<?xml version="1.0" encoding="UTF-8" standalone="no" ?>
<gpx xmlns="http://www.topografix.com/GPX/1/1" xmlns:xsi="http://www.w3.org/2001/XMLSchema-instance" xsi:schemaLocation="http://www.topografix.com/GPX/1/1 http://www.topografix.com/GPX/1/1/gpx.xsd" version="1.1" creator="VisuGPX - https://www.visugpx.com">
  <metadata>
    <name>Le Pilat</name>
    <desc><![CDATA[2009-08-27_Le Pilat,Dist.137Km Asc.1663m 6h11.gpx]]></desc>
  </metadata>
  <trk>
    <name><![CDATA[Le Pilat]]></name>
    <cmt><![CDATA[Seul]]></cmt>
    <trkseg>
      <trkpt lat="45.11579" lon="4.96449">
        <ele>196.35299682617</ele>
        <time>2009-08-27T07:44:09Z</time>
      </trkpt>
      <trkpt lat="45.11581" lon="4.96452">
        <ele>196.80599975586</ele>
        <time>2009-08-27T07:44:23Z</time>
      </trkpt>
      <trkpt lat="45.11581" lon="4.96479">
        <ele>195.92399597168</ele>
        <time>2009-08-27T07:44:32Z</time>
      </trkpt>
      <trkpt lat="45.11565" lon="4.96464">
        <ele>195.84899902344</ele>
        <time>2009-08-27T07:44:40Z</time>
      </trkpt>
      <trkpt lat="45.11544" lon="4.96429">
        <ele>195.60099792481</ele>
        <time>2009-08-27T07:44:47Z</time>
      </trkpt>
      <trkpt lat="45.11528" lon="4.96405">
        <ele>195.93600463867</ele>
        <time>2009-08-27T07:44:52Z</time>
      </trkpt>
      <trkpt lat="45.11472" lon="4.96318">
        <ele>196.81799316406</ele>
        <time>2009-08-27T07:45:09Z</time>
      </trkpt>
      <trkpt lat="45.11418" lon="4.96223">
        <ele>197.85299682617</ele>
        <time>2009-08-27T07:45:26Z</time>
      </trkpt>
      <trkpt lat="45.11358" lon="4.96102">
        <ele>196.19400024414</ele>
        <time>2009-08-27T07:45:43Z</time>
      </trkpt>
      <trkpt lat="45.11288" lon="4.9598">
        <ele>194.7859954834</ele>
        <time>2009-08-27T07:45:59Z</time>
      </trkpt>
      <trkpt lat="45.11212" lon="4.9586">
        <ele>193.37800598144</ele>
        <time>2009-08-27T07:46:14Z</time>
      </trkpt>
      <trkpt lat="45.1114" lon="4.95745">
        <ele>193.12399291992</ele>
        <time>2009-08-27T07:46:28Z</time>
      </trkpt>
      <trkpt lat="45.11071" lon="4.95648">
        <ele>194.67300415039</ele>
        <time>2009-08-27T07:46:41Z</time>
      </trkpt>
      <trkpt lat="45.11011" lon="4.9558">
        <ele>193.75399780273</ele>
        <time>2009-08-27T07:46:51Z</time>
      </trkpt>
      <trkpt lat="45.10952" lon="4.95442">
        <ele>192.0890045166</ele>
        <time>2009-08-27T07:47:05Z</time>
      </trkpt>
      <trkpt lat="45.10903" lon="4.95272">
        <ele>192.05400085449</ele>
        <time>2009-08-27T07:47:21Z</time>
      </trkpt>
      <trkpt lat="45.10877" lon="4.95198">
        <ele>193.60400390625</ele>
        <time>2009-08-27T07:47:29Z</time>
      </trkpt>
      <trkpt lat="45.10858" lon="4.95132">
        <ele>196.28199768066</ele>
        <time>2009-08-27T07:47:37Z</time>
      </trkpt>
      <trkpt lat="45.10853" lon="4.95107">
        <ele>197.66600036621</ele>
        <time>2009-08-27T07:47:40Z</time>
      </trkpt>
      <trkpt lat="45.10851" lon="4.95065">
        <ele>199.90400695801</ele>
        <time>2009-08-27T07:47:45Z</time>
      </trkpt>
      <trkpt lat="45.10855" lon="4.94993">
        <ele>203.86999511719</ele>
        <time>2009-08-27T07:47:54Z</time>
      </trkpt>
      <trkpt lat="45.10855" lon="4.94978">
        <ele>204.69299316406</ele>
        <time>2009-08-27T07:47:56Z</time>
      </trkpt>
      <trkpt lat="45.10862" lon="4.94864">
        <ele>209.95100402832</ele>
        <time>2009-08-27T07:48:12Z</time>
      </trkpt>
      <trkpt lat="45.10888" lon="4.94826">
        <ele>211.60299682617</ele>
        <time>2009-08-27T07:48:20Z</time>
      </trkpt>
      <trkpt lat="45.10977" lon="4.94802">
        <ele>212.86999511719</ele>
        <time>2009-08-27T07:48:36Z</time>
      </trkpt>
      <trkpt lat="45.11103" lon="4.94772">
        <ele>214.93499755859</ele>
        <time>2009-08-27T07:48:58Z</time>
      </trkpt>
      <trkpt lat="45.11233" lon="4.94741">
        <ele>219.28100585938</ele>
        <time>2009-08-27T07:49:22Z</time>
      </trkpt>
      <trkpt lat="45.11338" lon="4.94743">
        <ele>223.52099609375</ele>
        <time>2009-08-27T07:49:42Z</time>
      </trkpt>
      <trkpt lat="45.11419" lon="4.94712">
        <ele>225.37199401856</ele>
        <time>2009-08-27T07:49:57Z</time>
      </trkpt>
      <trkpt lat="45.11512" lon="4.94656">
        <ele>228.42300415039</ele>
        <time>2009-08-27T07:50:16Z</time>
      </trkpt>
      <trkpt lat="45.11549" lon="4.9463">
        <ele>229.38400268555</ele>
        <time>2009-08-27T07:50:24Z</time>
      </trkpt>
      <trkpt lat="45.11565" lon="4.94584">
        <ele>228.74000549316</ele>
        <time>2009-08-27T07:50:31Z</time>
      </trkpt>
      <trkpt lat="45.11565" lon="4.94559">
        <ele>228.54699707031</ele>
        <time>2009-08-27T07:50:34Z</time>
      </trkpt>
      <trkpt lat="45.1157" lon="4.94527">
        <ele>227.75</ele>
        <time>2009-08-27T07:50:38Z</time>
      </trkpt>
      <trkpt lat="45.11581" lon="4.94506">
        <ele>226.80299377441</ele>
        <time>2009-08-27T07:50:41Z</time>
      </trkpt>
      <trkpt lat="45.11618" lon="4.94461">
        <ele>223.32499694824</ele>
        <time>2009-08-27T07:50:47Z</time>
      </trkpt>
      <trkpt lat="45.11672" lon="4.9443">
        <ele>218.51800537109</ele>
        <time>2009-08-27T07:50:53Z</time>
      </trkpt>
      <trkpt lat="45.1172" lon="4.94417">
        <ele>215.44099426269</ele>
        <time>2009-08-27T07:50:58Z</time>
      </trkpt>
      <trkpt lat="45.11761" lon="4.94381">
        <ele>213.50500488281</ele>
        <time>2009-08-27T07:51:03Z</time>
      </trkpt>
      <trkpt lat="45.11774" lon="4.94358">
        <ele>213.02900695801</ele>
        <time>2009-08-27T07:51:05Z</time>
      </trkpt>
      <trkpt lat="45.11784" lon="4.94335">
        <ele>212.96800231934</ele>
        <time>2009-08-27T07:51:07Z</time>
      </trkpt>
      <trkpt lat="45.1179" lon="4.94265">
        <ele>213.55000305176</ele>
        <time>2009-08-27T07:51:12Z</time>
      </trkpt>
      <trkpt lat="45.11795" lon="4.94176">
        <ele>214.66499328613</ele>
        <time>2009-08-27T07:51:19Z</time>
      </trkpt>
      <trkpt lat="45.1183" lon="4.94012">
        <ele>215.66000366211</ele>
        <time>2009-08-27T07:51:34Z</time>
      </trkpt>
      <trkpt lat="45.11853" lon="4.93923">
        <ele>215.66400146484</ele>
        <time>2009-08-27T07:51:42Z</time>
      </trkpt>
      <trkpt lat="45.11912" lon="4.93835">
        <ele>218.52600097656</ele>
        <time>2009-08-27T07:51:54Z</time>
      </trkpt>
      <trkpt lat="45.11991" lon="4.93717">
        <ele>222.45599365234</ele>
        <time>2009-08-27T07:52:14Z</time>
      </trkpt>
      <trkpt lat="45.12043" lon="4.93632">
        <ele>223.09100341797</ele>
        <time>2009-08-27T07:52:27Z</time>
      </trkpt>
      <trkpt lat="45.12144" lon="4.93536">
        <ele>219.6609954834</ele>
        <time>2009-08-27T07:52:43Z</time>
      </trkpt>
      <trkpt lat="45.12223" lon="4.93422">
        <ele>217.37100219727</ele>
        <time>2009-08-27T07:52:56Z</time>
      </trkpt>
      <trkpt lat="45.1229" lon="4.9329">
        <ele>216.35800170898</ele>
        <time>2009-08-27T07:53:09Z</time>
      </trkpt>
      <trkpt lat="45.12366" lon="4.93096">
        <ele>218.35000610352</ele>
        <time>2009-08-27T07:53:29Z</time>
      </trkpt>
      <trkpt lat="45.12428" lon="4.92976">
        <ele>222.16400146484</ele>
        <time>2009-08-27T07:53:46Z</time>
      </trkpt>
      <trkpt lat="45.12477" lon="4.92888">
        <ele>224.84399414062</ele>
        <time>2009-08-27T07:54:00Z</time>
      </trkpt>
      <trkpt lat="45.12482" lon="4.92873">
        <ele>224.9640045166</ele>
        <time>2009-08-27T07:54:02Z</time>
      </trkpt>
      <trkpt lat="45.12495" lon="4.92825">
        <ele>224.71200561523</ele>
        <time>2009-08-27T07:54:08Z</time>
      </trkpt>
      <trkpt lat="45.12521" lon="4.92776">
        <ele>222.96800231934</ele>
        <time>2009-08-27T07:54:14Z</time>
      </trkpt>
      <trkpt lat="45.12649" lon="4.92635">
        <ele>218.10800170898</ele>
        <time>2009-08-27T07:54:33Z</time>
      </trkpt>
      <trkpt lat="45.12739" lon="4.92537">
        <ele>217.07499694824</ele>
        <time>2009-08-27T07:54:46Z</time>
      </trkpt>
      <trkpt lat="45.12873" lon="4.92403">
        <ele>216.98300170898</ele>
        <time>2009-08-27T07:55:06Z</time>
      </trkpt>
      <trkpt lat="45.12974" lon="4.92308">
        <ele>219.23300170898</ele>
        <time>2009-08-27T07:55:23Z</time>
      </trkpt>
      <trkpt lat="45.1307" lon="4.92262">
        <ele>221.68699645996</ele>
        <time>2009-08-27T07:55:39Z</time>
      </trkpt>
      <trkpt lat="45.13201" lon="4.92243">
        <ele>223.09100341797</ele>
        <time>2009-08-27T07:55:59Z</time>
      </trkpt>
      <trkpt lat="45.1333" lon="4.92236">
        <ele>225.35200500488</ele>
        <time>2009-08-27T07:56:19Z</time>
      </trkpt>
      <trkpt lat="45.1341" lon="4.92179">
        <ele>227.21299743652</ele>
        <time>2009-08-27T07:56:33Z</time>
      </trkpt>
      <trkpt lat="45.13514" lon="4.92086">
        <ele>229.24099731445</ele>
        <time>2009-08-27T07:56:52Z</time>
      </trkpt>
      <trkpt lat="45.13641" lon="4.92028">
        <ele>230.33399963379</ele>
        <time>2009-08-27T07:57:11Z</time>
      </trkpt>
      <trkpt lat="45.13783" lon="4.91975">
        <ele>229.3390045166</ele>
        <time>2009-08-27T07:57:31Z</time>
      </trkpt>
      <trkpt lat="45.13932" lon="4.919">
        <ele>227.47599792481</ele>
        <time>2009-08-27T07:57:51Z</time>
      </trkpt>
      <trkpt lat="45.13998" lon="4.91825">
        <ele>226.83099365234</ele>
        <time>2009-08-27T07:58:02Z</time>
      </trkpt>
      <trkpt lat="45.1404" lon="4.91755">
        <ele>226.05099487305</ele>
        <time>2009-08-27T07:58:10Z</time>
      </trkpt>
      <trkpt lat="45.14054" lon="4.91726">
        <ele>225.15400695801</ele>
        <time>2009-08-27T07:58:13Z</time>
      </trkpt>
      <trkpt lat="45.14059" lon="4.91716">
        <ele>225.25399780273</ele>
        <time>2009-08-27T07:58:14Z</time>
      </trkpt>
      <trkpt lat="45.14095" lon="4.91649">
        <ele>224.69400024414</ele>
        <time>2009-08-27T07:58:21Z</time>
      </trkpt>
      <trkpt lat="45.14198" lon="4.91456">
        <ele>222.83599853516</ele>
        <time>2009-08-27T07:58:41Z</time>
      </trkpt>
      <trkpt lat="45.14204" lon="4.91448">
        <ele>222.63400268555</ele>
        <time>2009-08-27T07:58:42Z</time>
      </trkpt>
      <trkpt lat="45.14241" lon="4.9142">
        <ele>222.125</ele>
        <time>2009-08-27T07:58:47Z</time>
      </trkpt>
      <trkpt lat="45.14399" lon="4.9139">
        <ele>220.28500366211</ele>
        <time>2009-08-27T07:59:06Z</time>
      </trkpt>
      <trkpt lat="45.1458" lon="4.91359">
        <ele>220.70700073242</ele>
        <time>2009-08-27T07:59:28Z</time>
      </trkpt>
      <trkpt lat="45.14683" lon="4.91323">
        <ele>221.86099243164</ele>
        <time>2009-08-27T07:59:43Z</time>
      </trkpt>
      <trkpt lat="45.14801" lon="4.9127">
        <ele>224.24800109863</ele>
        <time>2009-08-27T08:00:02Z</time>
      </trkpt>
      <trkpt lat="45.14926" lon="4.91245">
        <ele>226.07499694824</ele>
        <time>2009-08-27T08:00:22Z</time>
      </trkpt>
      <trkpt lat="45.15054" lon="4.91221">
        <ele>229.36099243164</ele>
        <time>2009-08-27T08:00:44Z</time>
      </trkpt>
      <trkpt lat="45.15156" lon="4.91203">
        <ele>233.28999328613</ele>
        <time>2009-08-27T08:01:03Z</time>
      </trkpt>
      <trkpt lat="45.15211" lon="4.91195">
        <ele>235.08500671387</ele>
        <time>2009-08-27T08:01:14Z</time>
      </trkpt>
      <trkpt lat="45.15289" lon="4.91234">
        <ele>237.07299804688</ele>
        <time>2009-08-27T08:01:30Z</time>
      </trkpt>
      <trkpt lat="45.15358" lon="4.91276">
        <ele>238.68499755859</ele>
        <time>2009-08-27T08:01:44Z</time>
      </trkpt>
      <trkpt lat="45.15392" lon="4.91327">
        <ele>239.75500488281</ele>
        <time>2009-08-27T08:01:53Z</time>
      </trkpt>
      <trkpt lat="45.15416" lon="4.91412">
        <ele>239.87800598144</ele>
        <time>2009-08-27T08:02:04Z</time>
      </trkpt>
      <trkpt lat="45.15442" lon="4.9142">
        <ele>240.05400085449</ele>
        <time>2009-08-27T08:02:09Z</time>
      </trkpt>
      <trkpt lat="45.15448" lon="4.91406">
        <ele>240.76699829102</ele>
        <time>2009-08-27T08:02:11Z</time>
      </trkpt>
      <trkpt lat="45.15452" lon="4.91392">
        <ele>240.90899658203</ele>
        <time>2009-08-27T08:02:13Z</time>
      </trkpt>
      <trkpt lat="45.15512" lon="4.91308">
        <ele>245.55400085449</ele>
        <time>2009-08-27T08:02:31Z</time>
      </trkpt>
      <trkpt lat="45.15547" lon="4.91266">
        <ele>247.31100463867</ele>
        <time>2009-08-27T08:02:44Z</time>
      </trkpt>
      <trkpt lat="45.15598" lon="4.91211">
        <ele>246.00100708008</ele>
        <time>2009-08-27T08:02:57Z</time>
      </trkpt>
      <trkpt lat="45.15627" lon="4.91183">
        <ele>245.04600524902</ele>
        <time>2009-08-27T08:03:02Z</time>
      </trkpt>
      <trkpt lat="45.15734" lon="4.91105">
        <ele>240.03199768066</ele>
        <time>2009-08-27T08:03:16Z</time>
      </trkpt>
      <trkpt lat="45.15775" lon="4.91076">
        <ele>238.33099365234</ele>
        <time>2009-08-27T08:03:21Z</time>
      </trkpt>
      <trkpt lat="45.15818" lon="4.91048">
        <ele>236.93800354004</ele>
        <time>2009-08-27T08:03:26Z</time>
      </trkpt>
      <trkpt lat="45.15879" lon="4.91008">
        <ele>234.80799865723</ele>
        <time>2009-08-27T08:03:33Z</time>
      </trkpt>
      <trkpt lat="45.15957" lon="4.90919">
        <ele>231.3809967041</ele>
        <time>2009-08-27T08:03:43Z</time>
      </trkpt>
      <trkpt lat="45.16039" lon="4.90704">
        <ele>226.27699279785</ele>
        <time>2009-08-27T08:04:00Z</time>
      </trkpt>
      <trkpt lat="45.161" lon="4.90512">
        <ele>222.12600708008</ele>
        <time>2009-08-27T08:04:15Z</time>
      </trkpt>
      <trkpt lat="45.16116" lon="4.90474">
        <ele>220.7140045166</ele>
        <time>2009-08-27T08:04:18Z</time>
      </trkpt>
      <trkpt lat="45.1614" lon="4.90425">
        <ele>218.89300537109</ele>
        <time>2009-08-27T08:04:22Z</time>
      </trkpt>
      <trkpt lat="45.16158" lon="4.90388">
        <ele>217.47399902344</ele>
        <time>2009-08-27T08:04:25Z</time>
      </trkpt>
      <trkpt lat="45.16265" lon="4.90174">
        <ele>213.62300109863</ele>
        <time>2009-08-27T08:04:44Z</time>
      </trkpt>
      <trkpt lat="45.16379" lon="4.89979">
        <ele>212.55000305176</ele>
        <time>2009-08-27T08:05:03Z</time>
      </trkpt>
      <trkpt lat="45.16451" lon="4.89784">
        <ele>208.12899780273</ele>
        <time>2009-08-27T08:05:21Z</time>
      </trkpt>
      <trkpt lat="45.16457" lon="4.89755">
        <ele>207.13800048828</ele>
        <time>2009-08-27T08:05:23Z</time>
      </trkpt>
      <trkpt lat="45.16481" lon="4.89656">
        <ele>204.30099487305</ele>
        <time>2009-08-27T08:05:30Z</time>
      </trkpt>
      <trkpt lat="45.16505" lon="4.89554">
        <ele>201.03999328613</ele>
        <time>2009-08-27T08:05:37Z</time>
      </trkpt>
      <trkpt lat="45.16538" lon="4.89415">
        <ele>195.11099243164</ele>
        <time>2009-08-27T08:05:46Z</time>
      </trkpt>
      <trkpt lat="45.16567" lon="4.89298">
        <ele>193.2859954834</ele>
        <time>2009-08-27T08:05:54Z</time>
      </trkpt>
      <trkpt lat="45.1662" lon="4.89212">
        <ele>194.41700744629</ele>
        <time>2009-08-27T08:06:03Z</time>
      </trkpt>
      <trkpt lat="45.16706" lon="4.89176">
        <ele>194.9640045166</ele>
        <time>2009-08-27T08:06:14Z</time>
      </trkpt>
      <trkpt lat="45.16779" lon="4.89151">
        <ele>195.05200195312</ele>
        <time>2009-08-27T08:06:23Z</time>
      </trkpt>
      <trkpt lat="45.16829" lon="4.89105">
        <ele>194.88900756836</ele>
        <time>2009-08-27T08:06:30Z</time>
      </trkpt>
      <trkpt lat="45.16864" lon="4.89006">
        <ele>194.41499328613</ele>
        <time>2009-08-27T08:06:39Z</time>
      </trkpt>
      <trkpt lat="45.16912" lon="4.88725">
        <ele>187.46200561523</ele>
        <time>2009-08-27T08:07:01Z</time>
      </trkpt>
      <trkpt lat="45.16932" lon="4.88618">
        <ele>181.0119934082</ele>
        <time>2009-08-27T08:07:08Z</time>
      </trkpt>
      <trkpt lat="45.16948" lon="4.88527">
        <ele>178.35499572754</ele>
        <time>2009-08-27T08:07:14Z</time>
      </trkpt>
      <trkpt lat="45.1698" lon="4.88341">
        <ele>177.6609954834</ele>
        <time>2009-08-27T08:07:28Z</time>
      </trkpt>
      <trkpt lat="45.16991" lon="4.8818">
        <ele>176.52499389648</ele>
        <time>2009-08-27T08:07:41Z</time>
      </trkpt>
      <trkpt lat="45.16973" lon="4.87946">
        <ele>173.72999572754</ele>
        <time>2009-08-27T08:07:59Z</time>
      </trkpt>
      <trkpt lat="45.16999" lon="4.87789">
        <ele>173.14599609375</ele>
        <time>2009-08-27T08:08:12Z</time>
      </trkpt>
      <trkpt lat="45.17001" lon="4.87778">
        <ele>173.17399597168</ele>
        <time>2009-08-27T08:08:13Z</time>
      </trkpt>
      <trkpt lat="45.1701" lon="4.87744">
        <ele>173.0950012207</ele>
        <time>2009-08-27T08:08:16Z</time>
      </trkpt>
      <trkpt lat="45.17032" lon="4.87611">
        <ele>172.09199523926</ele>
        <time>2009-08-27T08:08:27Z</time>
      </trkpt>
      <trkpt lat="45.17026" lon="4.87469">
        <ele>172.33700561523</ele>
        <time>2009-08-27T08:08:39Z</time>
      </trkpt>
      <trkpt lat="45.17023" lon="4.87435">
        <ele>172.72999572754</ele>
        <time>2009-08-27T08:08:42Z</time>
      </trkpt>
      <trkpt lat="45.17015" lon="4.87304">
        <ele>174.17799377441</ele>
        <time>2009-08-27T08:08:55Z</time>
      </trkpt>
      <trkpt lat="45.17009" lon="4.87215">
        <ele>174.81900024414</ele>
        <time>2009-08-27T08:09:04Z</time>
      </trkpt>
      <trkpt lat="45.17017" lon="4.87167">
        <ele>175.02699279785</ele>
        <time>2009-08-27T08:09:09Z</time>
      </trkpt>
      <trkpt lat="45.1707" lon="4.87039">
        <ele>173.34199523926</ele>
        <time>2009-08-27T08:09:22Z</time>
      </trkpt>
      <trkpt lat="45.1715" lon="4.8685">
        <ele>174.64199829102</ele>
        <time>2009-08-27T08:09:42Z</time>
      </trkpt>
      <trkpt lat="45.17221" lon="4.86679">
        <ele>175.27200317383</ele>
        <time>2009-08-27T08:10:02Z</time>
      </trkpt>
      <trkpt lat="45.17304" lon="4.86483">
        <ele>173.35299682617</ele>
        <time>2009-08-27T08:10:22Z</time>
      </trkpt>
      <trkpt lat="45.17371" lon="4.86321">
        <ele>172.97399902344</ele>
        <time>2009-08-27T08:10:38Z</time>
      </trkpt>
      <trkpt lat="45.1741" lon="4.86232">
        <ele>173.01499938965</ele>
        <time>2009-08-27T08:10:47Z</time>
      </trkpt>
      <trkpt lat="45.17457" lon="4.86148">
        <ele>172.28100585938</ele>
        <time>2009-08-27T08:10:56Z</time>
      </trkpt>
      <trkpt lat="45.17542" lon="4.85981">
        <ele>168.40299987793</ele>
        <time>2009-08-27T08:11:12Z</time>
      </trkpt>
      <trkpt lat="45.17594" lon="4.85829">
        <ele>168.63600158691</ele>
        <time>2009-08-27T08:11:25Z</time>
      </trkpt>
      <trkpt lat="45.17599" lon="4.85808">
        <ele>168.81399536133</ele>
        <time>2009-08-27T08:11:27Z</time>
      </trkpt>
      <trkpt lat="45.17629" lon="4.85754">
        <ele>171.02499389648</ele>
        <time>2009-08-27T08:11:34Z</time>
      </trkpt>
      <trkpt lat="45.17717" lon="4.85702">
        <ele>174.27099609375</ele>
        <time>2009-08-27T08:11:50Z</time>
      </trkpt>
      <trkpt lat="45.17817" lon="4.85608">
        <ele>175.65899658203</ele>
        <time>2009-08-27T08:12:09Z</time>
      </trkpt>
      <trkpt lat="45.17853" lon="4.85546">
        <ele>178.00700378418</ele>
        <time>2009-08-27T08:12:19Z</time>
      </trkpt>
      <trkpt lat="45.17879" lon="4.85492">
        <ele>180.05799865723</ele>
        <time>2009-08-27T08:12:28Z</time>
      </trkpt>
      <trkpt lat="45.17884" lon="4.85466">
        <ele>181.21099853516</ele>
        <time>2009-08-27T08:12:32Z</time>
      </trkpt>
      <trkpt lat="45.17882" lon="4.85424">
        <ele>181.78300476074</ele>
        <time>2009-08-27T08:12:38Z</time>
      </trkpt>
      <trkpt lat="45.17857" lon="4.8532">
        <ele>178.95100402832</ele>
        <time>2009-08-27T08:12:50Z</time>
      </trkpt>
      <trkpt lat="45.17857" lon="4.85308">
        <ele>178.64500427246</ele>
        <time>2009-08-27T08:12:51Z</time>
      </trkpt>
      <trkpt lat="45.17876" lon="4.85217">
        <ele>176.21099853516</ele>
        <time>2009-08-27T08:12:59Z</time>
      </trkpt>
      <trkpt lat="45.17934" lon="4.85136">
        <ele>174.02299499512</ele>
        <time>2009-08-27T08:13:08Z</time>
      </trkpt>
      <trkpt lat="45.1797" lon="4.85089">
        <ele>170.89199829102</ele>
        <time>2009-08-27T08:13:13Z</time>
      </trkpt>
      <trkpt lat="45.17988" lon="4.85025">
        <ele>168.2619934082</ele>
        <time>2009-08-27T08:13:18Z</time>
      </trkpt>
      <trkpt lat="45.17996" lon="4.84931">
        <ele>167.30000305176</ele>
        <time>2009-08-27T08:13:25Z</time>
      </trkpt>
      <trkpt lat="45.17989" lon="4.84795">
        <ele>165.29100036621</ele>
        <time>2009-08-27T08:13:36Z</time>
      </trkpt>
      <trkpt lat="45.17978" lon="4.84717">
        <ele>164.20100402832</ele>
        <time>2009-08-27T08:13:42Z</time>
      </trkpt>
      <trkpt lat="45.17922" lon="4.84542">
        <ele>162.70199584961</ele>
        <time>2009-08-27T08:13:57Z</time>
      </trkpt>
      <trkpt lat="45.1787" lon="4.84372">
        <ele>164.05900573731</ele>
        <time>2009-08-27T08:14:13Z</time>
      </trkpt>
      <trkpt lat="45.17861" lon="4.84307">
        <ele>164.8390045166</ele>
        <time>2009-08-27T08:14:19Z</time>
      </trkpt>
      <trkpt lat="45.17874" lon="4.8426">
        <ele>164.95300292969</ele>
        <time>2009-08-27T08:14:24Z</time>
      </trkpt>
      <trkpt lat="45.17907" lon="4.84027">
        <ele>155.91499328613</ele>
        <time>2009-08-27T08:14:43Z</time>
      </trkpt>
      <trkpt lat="45.17903" lon="4.83949">
        <ele>152.68099975586</ele>
        <time>2009-08-27T08:14:48Z</time>
      </trkpt>
      <trkpt lat="45.17905" lon="4.83934">
        <ele>152.71800231934</ele>
        <time>2009-08-27T08:14:49Z</time>
      </trkpt>
      <trkpt lat="45.17945" lon="4.83763">
        <ele>148.6130065918</ele>
        <time>2009-08-27T08:15:01Z</time>
      </trkpt>
      <trkpt lat="45.17964" lon="4.83711">
        <ele>148.80200195312</ele>
        <time>2009-08-27T08:15:05Z</time>
      </trkpt>
      <trkpt lat="45.18025" lon="4.83606">
        <ele>148.00199890137</ele>
        <time>2009-08-27T08:15:14Z</time>
      </trkpt>
      <trkpt lat="45.1804" lon="4.83589">
        <ele>147.71200561523</ele>
        <time>2009-08-27T08:15:16Z</time>
      </trkpt>
      <trkpt lat="45.18109" lon="4.83513">
        <ele>147.41600036621</ele>
        <time>2009-08-27T08:15:25Z</time>
      </trkpt>
      <trkpt lat="45.1811" lon="4.83459">
        <ele>148.55599975586</ele>
        <time>2009-08-27T08:15:30Z</time>
      </trkpt>
      <trkpt lat="45.18058" lon="4.83382">
        <ele>152.08799743652</ele>
        <time>2009-08-27T08:15:41Z</time>
      </trkpt>
      <trkpt lat="45.18053" lon="4.83376">
        <ele>151.97700500488</ele>
        <time>2009-08-27T08:15:42Z</time>
      </trkpt>
      <trkpt lat="45.18029" lon="4.83347">
        <ele>153.02600097656</ele>
        <time>2009-08-27T08:15:47Z</time>
      </trkpt>
      <trkpt lat="45.18012" lon="4.83319">
        <ele>153.01100158691</ele>
        <time>2009-08-27T08:15:51Z</time>
      </trkpt>
      <trkpt lat="45.17953" lon="4.83298">
        <ele>151.47700500488</ele>
        <time>2009-08-27T08:16:00Z</time>
      </trkpt>
      <trkpt lat="45.17937" lon="4.83307">
        <ele>150.70500183106</ele>
        <time>2009-08-27T08:16:02Z</time>
      </trkpt>
      <trkpt lat="45.17857" lon="4.83336">
        <ele>147.53100585938</ele>
        <time>2009-08-27T08:16:11Z</time>
      </trkpt>
      <trkpt lat="45.1782" lon="4.83333">
        <ele>147.14500427246</ele>
        <time>2009-08-27T08:16:15Z</time>
      </trkpt>
      <trkpt lat="45.17775" lon="4.83288">
        <ele>147.03199768066</ele>
        <time>2009-08-27T08:16:21Z</time>
      </trkpt>
      <trkpt lat="45.17758" lon="4.83253">
        <ele>146.33299255371</ele>
        <time>2009-08-27T08:16:24Z</time>
      </trkpt>
      <trkpt lat="45.17724" lon="4.83127">
        <ele>145.32800292969</ele>
        <time>2009-08-27T08:16:34Z</time>
      </trkpt>
      <trkpt lat="45.17718" lon="4.8302">
        <ele>145.24200439453</ele>
        <time>2009-08-27T08:16:42Z</time>
      </trkpt>
      <trkpt lat="45.17669" lon="4.82957">
        <ele>145.2200012207</ele>
        <time>2009-08-27T08:16:49Z</time>
      </trkpt>
      <trkpt lat="45.1763" lon="4.8296">
        <ele>145.15100097656</ele>
        <time>2009-08-27T08:16:53Z</time>
      </trkpt>
      <trkpt lat="45.17506" lon="4.8301">
        <ele>146.67399597168</ele>
        <time>2009-08-27T08:17:07Z</time>
      </trkpt>
      <trkpt lat="45.17463" lon="4.83009">
        <ele>147.44900512695</ele>
        <time>2009-08-27T08:17:12Z</time>
      </trkpt>
      <trkpt lat="45.17404" lon="4.82965">
        <ele>147.84700012207</ele>
        <time>2009-08-27T08:17:20Z</time>
      </trkpt>
      <trkpt lat="45.17387" lon="4.82928">
        <ele>146.67799377441</ele>
        <time>2009-08-27T08:17:24Z</time>
      </trkpt>
      <trkpt lat="45.17378" lon="4.82825">
        <ele>143.79699707031</ele>
        <time>2009-08-27T08:17:32Z</time>
      </trkpt>
      <trkpt lat="45.17395" lon="4.82749">
        <ele>141.40199279785</ele>
        <time>2009-08-27T08:17:38Z</time>
      </trkpt>
      <trkpt lat="45.17416" lon="4.8268">
        <ele>140.49099731445</ele>
        <time>2009-08-27T08:17:44Z</time>
      </trkpt>
      <trkpt lat="45.17418" lon="4.82667">
        <ele>140.21899414062</ele>
        <time>2009-08-27T08:17:45Z</time>
      </trkpt>
      <trkpt lat="45.17407" lon="4.82567">
        <ele>139.30599975586</ele>
        <time>2009-08-27T08:17:53Z</time>
      </trkpt>
      <trkpt lat="45.17402" lon="4.82557">
        <ele>139.2440032959</ele>
        <time>2009-08-27T08:17:54Z</time>
      </trkpt>
      <trkpt lat="45.17322" lon="4.82408">
        <ele>139.52799987793</ele>
        <time>2009-08-27T08:18:10Z</time>
      </trkpt>
      <trkpt lat="45.17318" lon="4.82399">
        <ele>139.66000366211</ele>
        <time>2009-08-27T08:18:11Z</time>
      </trkpt>
      <trkpt lat="45.17307" lon="4.82337">
        <ele>140.10200500488</ele>
        <time>2009-08-27T08:18:17Z</time>
      </trkpt>
      <trkpt lat="45.17334" lon="4.82271">
        <ele>141.36199951172</ele>
        <time>2009-08-27T08:18:25Z</time>
      </trkpt>
      <trkpt lat="45.17341" lon="4.82265">
        <ele>141.51699829102</ele>
        <time>2009-08-27T08:18:26Z</time>
      </trkpt>
      <trkpt lat="45.17395" lon="4.82224">
        <ele>139.37100219727</ele>
        <time>2009-08-27T08:18:34Z</time>
      </trkpt>
      <trkpt lat="45.17481" lon="4.82168">
        <ele>136.92500305176</ele>
        <time>2009-08-27T08:18:45Z</time>
      </trkpt>
      <trkpt lat="45.17522" lon="4.82135">
        <ele>136.66799926758</ele>
        <time>2009-08-27T08:18:51Z</time>
      </trkpt>
      <trkpt lat="45.17573" lon="4.82076">
        <ele>135.10099792481</ele>
        <time>2009-08-27T08:18:59Z</time>
      </trkpt>
      <trkpt lat="45.17595" lon="4.8204">
        <ele>134.04800415039</ele>
        <time>2009-08-27T08:19:03Z</time>
      </trkpt>
      <trkpt lat="45.17662" lon="4.81926">
        <ele>134.1369934082</ele>
        <time>2009-08-27T08:19:16Z</time>
      </trkpt>
      <trkpt lat="45.17689" lon="4.81886">
        <ele>134.79400634766</ele>
        <time>2009-08-27T08:19:22Z</time>
      </trkpt>
      <trkpt lat="45.17693" lon="4.8184">
        <ele>133.31300354004</ele>
        <time>2009-08-27T08:19:27Z</time>
      </trkpt>
      <trkpt lat="45.17719" lon="4.81753">
        <ele>133.46899414062</ele>
        <time>2009-08-27T08:19:36Z</time>
      </trkpt>
      <trkpt lat="45.17722" lon="4.81711">
        <ele>132.60400390625</ele>
        <time>2009-08-27T08:19:40Z</time>
      </trkpt>
      <trkpt lat="45.17723" lon="4.81676">
        <ele>132.82200622559</ele>
        <time>2009-08-27T08:19:43Z</time>
      </trkpt>
      <trkpt lat="45.17714" lon="4.81565">
        <ele>132.9049987793</ele>
        <time>2009-08-27T08:19:53Z</time>
      </trkpt>
      <trkpt lat="45.17725" lon="4.8153">
        <ele>133.36500549316</ele>
        <time>2009-08-27T08:19:57Z</time>
      </trkpt>
      <trkpt lat="45.17749" lon="4.81444">
        <ele>134.37199401856</ele>
        <time>2009-08-27T08:20:06Z</time>
      </trkpt>
      <trkpt lat="45.17774" lon="4.81413">
        <ele>134.44400024414</ele>
        <time>2009-08-27T08:20:11Z</time>
      </trkpt>
      <trkpt lat="45.17772" lon="4.81363">
        <ele>133.63400268555</ele>
        <time>2009-08-27T08:20:17Z</time>
      </trkpt>
      <trkpt lat="45.17794" lon="4.8133">
        <ele>132.51899719238</ele>
        <time>2009-08-27T08:20:22Z</time>
      </trkpt>
      <trkpt lat="45.17827" lon="4.81322">
        <ele>133.64199829102</ele>
        <time>2009-08-27T08:20:27Z</time>
      </trkpt>
      <trkpt lat="45.17849" lon="4.81325">
        <ele>133.15199279785</ele>
        <time>2009-08-27T08:20:31Z</time>
      </trkpt>
      <trkpt lat="45.17922" lon="4.81355">
        <ele>133.15600585938</ele>
        <time>2009-08-27T08:20:41Z</time>
      </trkpt>
      <trkpt lat="45.18059" lon="4.81398">
        <ele>133.17199707031</ele>
        <time>2009-08-27T08:20:59Z</time>
      </trkpt>
      <trkpt lat="45.18205" lon="4.81394">
        <ele>133.25199890137</ele>
        <time>2009-08-27T08:21:17Z</time>
      </trkpt>
      <trkpt lat="45.18331" lon="4.81385">
        <ele>134.84300231934</ele>
        <time>2009-08-27T08:21:34Z</time>
      </trkpt>
      <trkpt lat="45.18403" lon="4.81381">
        <ele>139.32899475098</ele>
        <time>2009-08-27T08:21:47Z</time>
      </trkpt>
      <trkpt lat="45.18429" lon="4.8139">
        <ele>140.32000732422</ele>
        <time>2009-08-27T08:21:54Z</time>
      </trkpt>
      <trkpt lat="45.18453" lon="4.81396">
        <ele>139.88999938965</ele>
        <time>2009-08-27T08:21:59Z</time>
      </trkpt>
      <trkpt lat="45.18476" lon="4.81397">
        <ele>139.70500183106</ele>
        <time>2009-08-27T08:22:03Z</time>
      </trkpt>
      <trkpt lat="45.18578" lon="4.81404">
        <ele>139.58299255371</ele>
        <time>2009-08-27T08:22:18Z</time>
      </trkpt>
      <trkpt lat="45.18706" lon="4.8141">
        <ele>138.08399963379</ele>
        <time>2009-08-27T08:22:35Z</time>
      </trkpt>
      <trkpt lat="45.18814" lon="4.81413">
        <ele>140.32099914551</ele>
        <time>2009-08-27T08:22:51Z</time>
      </trkpt>
      <trkpt lat="45.18854" lon="4.81415">
        <ele>142.62199401856</ele>
        <time>2009-08-27T08:22:58Z</time>
      </trkpt>
      <trkpt lat="45.18947" lon="4.8142">
        <ele>147.10299682617</ele>
        <time>2009-08-27T08:23:16Z</time>
      </trkpt>
      <trkpt lat="45.19027" lon="4.81426">
        <ele>149.10800170898</ele>
        <time>2009-08-27T08:23:31Z</time>
      </trkpt>
      <trkpt lat="45.19128" lon="4.81434">
        <ele>149.82099914551</ele>
        <time>2009-08-27T08:23:48Z</time>
      </trkpt>
      <trkpt lat="45.19224" lon="4.81439">
        <ele>151.09199523926</ele>
        <time>2009-08-27T08:24:02Z</time>
      </trkpt>
      <trkpt lat="45.19341" lon="4.81441">
        <ele>151.93299865723</ele>
        <time>2009-08-27T08:24:17Z</time>
      </trkpt>
      <trkpt lat="45.19438" lon="4.81448">
        <ele>152.60899353027</ele>
        <time>2009-08-27T08:24:31Z</time>
      </trkpt>
      <trkpt lat="45.19555" lon="4.81456">
        <ele>154.23699951172</ele>
        <time>2009-08-27T08:24:48Z</time>
      </trkpt>
      <trkpt lat="45.19675" lon="4.81463">
        <ele>151.54200744629</ele>
        <time>2009-08-27T08:25:03Z</time>
      </trkpt>
      <trkpt lat="45.198" lon="4.81471">
        <ele>148.88000488281</ele>
        <time>2009-08-27T08:25:17Z</time>
      </trkpt>
      <trkpt lat="45.19861" lon="4.81473">
        <ele>147.4700012207</ele>
        <time>2009-08-27T08:25:24Z</time>
      </trkpt>
      <trkpt lat="45.19982" lon="4.81481">
        <ele>146.1369934082</ele>
        <time>2009-08-27T08:25:38Z</time>
      </trkpt>
      <trkpt lat="45.20143" lon="4.81487">
        <ele>138.54299926758</ele>
        <time>2009-08-27T08:25:55Z</time>
      </trkpt>
      <trkpt lat="45.20176" lon="4.8149">
        <ele>136.59899902344</ele>
        <time>2009-08-27T08:25:58Z</time>
      </trkpt>
      <trkpt lat="45.2021" lon="4.81492">
        <ele>134.96200561523</ele>
        <time>2009-08-27T08:26:01Z</time>
      </trkpt>
      <trkpt lat="45.20335" lon="4.815">
        <ele>135.44599914551</ele>
        <time>2009-08-27T08:26:12Z</time>
      </trkpt>
      <trkpt lat="45.20366" lon="4.81499">
        <ele>135.43200683594</ele>
        <time>2009-08-27T08:26:15Z</time>
      </trkpt>
      <trkpt lat="45.20396" lon="4.81502">
        <ele>135.52699279785</ele>
        <time>2009-08-27T08:26:18Z</time>
      </trkpt>
      <trkpt lat="45.20446" lon="4.81503">
        <ele>135.63800048828</ele>
        <time>2009-08-27T08:26:23Z</time>
      </trkpt>
      <trkpt lat="45.20615" lon="4.8152">
        <ele>136.31300354004</ele>
        <time>2009-08-27T08:26:41Z</time>
      </trkpt>
      <trkpt lat="45.20824" lon="4.81535">
        <ele>138.62199401856</ele>
        <time>2009-08-27T08:27:06Z</time>
      </trkpt>
      <trkpt lat="45.20832" lon="4.81535">
        <ele>138.9049987793</ele>
        <time>2009-08-27T08:27:07Z</time>
      </trkpt>
      <trkpt lat="45.20971" lon="4.81539">
        <ele>137.53300476074</ele>
        <time>2009-08-27T08:27:24Z</time>
      </trkpt>
      <trkpt lat="45.21038" lon="4.81542">
        <ele>137.07299804688</ele>
        <time>2009-08-27T08:27:32Z</time>
      </trkpt>
      <trkpt lat="45.21071" lon="4.81498">
        <ele>137.59700012207</ele>
        <time>2009-08-27T08:27:38Z</time>
      </trkpt>
      <trkpt lat="45.21096" lon="4.81485">
        <ele>137.03100585938</ele>
        <time>2009-08-27T08:27:42Z</time>
      </trkpt>
      <trkpt lat="45.21172" lon="4.81493">
        <ele>137.25399780273</ele>
        <time>2009-08-27T08:27:52Z</time>
      </trkpt>
      <trkpt lat="45.21203" lon="4.81481">
        <ele>137.0890045166</ele>
        <time>2009-08-27T08:27:56Z</time>
      </trkpt>
      <trkpt lat="45.2134" lon="4.81387">
        <ele>137.12199401856</ele>
        <time>2009-08-27T08:28:15Z</time>
      </trkpt>
      <trkpt lat="45.21463" lon="4.81332">
        <ele>137.67399597168</ele>
        <time>2009-08-27T08:28:32Z</time>
      </trkpt>
      <trkpt lat="45.21603" lon="4.81287">
        <ele>137.78500366211</ele>
        <time>2009-08-27T08:28:52Z</time>
      </trkpt>
      <trkpt lat="45.21723" lon="4.8125">
        <ele>138.35400390625</ele>
        <time>2009-08-27T08:29:10Z</time>
      </trkpt>
      <trkpt lat="45.2181" lon="4.81224">
        <ele>138.85899353027</ele>
        <time>2009-08-27T08:29:23Z</time>
      </trkpt>
      <trkpt lat="45.21923" lon="4.81184">
        <ele>137.03900146484</ele>
        <time>2009-08-27T08:29:39Z</time>
      </trkpt>
      <trkpt lat="45.2201" lon="4.81158">
        <ele>139.39700317383</ele>
        <time>2009-08-27T08:29:53Z</time>
      </trkpt>
      <trkpt lat="45.22078" lon="4.81136">
        <ele>140.53799438477</ele>
        <time>2009-08-27T08:30:05Z</time>
      </trkpt>
      <trkpt lat="45.22099" lon="4.81116">
        <ele>140.08399963379</ele>
        <time>2009-08-27T08:30:09Z</time>
      </trkpt>
      <trkpt lat="45.22163" lon="4.81042">
        <ele>142.87600708008</ele>
        <time>2009-08-27T08:30:23Z</time>
      </trkpt>
      <trkpt lat="45.22195" lon="4.81019">
        <ele>143.44299316406</ele>
        <time>2009-08-27T08:30:29Z</time>
      </trkpt>
      <trkpt lat="45.22305" lon="4.80966">
        <ele>142.39900207519</ele>
        <time>2009-08-27T08:30:46Z</time>
      </trkpt>
      <trkpt lat="45.2243" lon="4.80924">
        <ele>142.50399780273</ele>
        <time>2009-08-27T08:31:04Z</time>
      </trkpt>
      <trkpt lat="45.22544" lon="4.80907">
        <ele>142.36999511719</ele>
        <time>2009-08-27T08:31:21Z</time>
      </trkpt>
      <trkpt lat="45.22623" lon="4.80896">
        <ele>140.91999816894</ele>
        <time>2009-08-27T08:31:32Z</time>
      </trkpt>
      <trkpt lat="45.22748" lon="4.80879">
        <ele>140.59300231934</ele>
        <time>2009-08-27T08:31:49Z</time>
      </trkpt>
      <trkpt lat="45.22849" lon="4.80855">
        <ele>142.81300354004</ele>
        <time>2009-08-27T08:32:05Z</time>
      </trkpt>
      <trkpt lat="45.22958" lon="4.808">
        <ele>143.30599975586</ele>
        <time>2009-08-27T08:32:23Z</time>
      </trkpt>
      <trkpt lat="45.23041" lon="4.80751">
        <ele>143.59100341797</ele>
        <time>2009-08-27T08:32:36Z</time>
      </trkpt>
      <trkpt lat="45.23189" lon="4.80653">
        <ele>144.08500671387</ele>
        <time>2009-08-27T08:32:59Z</time>
      </trkpt>
      <trkpt lat="45.23208" lon="4.80639">
        <ele>143.96499633789</ele>
        <time>2009-08-27T08:33:02Z</time>
      </trkpt>
      <trkpt lat="45.23291" lon="4.80619">
        <ele>141.77400207519</ele>
        <time>2009-08-27T08:33:13Z</time>
      </trkpt>
      <trkpt lat="45.23404" lon="4.80609">
        <ele>139.44900512695</ele>
        <time>2009-08-27T08:33:27Z</time>
      </trkpt>
      <trkpt lat="45.23422" lon="4.80613">
        <ele>138.69000244141</ele>
        <time>2009-08-27T08:33:29Z</time>
      </trkpt>
      <trkpt lat="45.2349" lon="4.80641">
        <ele>135.59100341797</ele>
        <time>2009-08-27T08:33:37Z</time>
      </trkpt>
      <trkpt lat="45.23624" lon="4.8066">
        <ele>135.15800476074</ele>
        <time>2009-08-27T08:33:53Z</time>
      </trkpt>
      <trkpt lat="45.2378" lon="4.80673">
        <ele>135.875</ele>
        <time>2009-08-27T08:34:14Z</time>
      </trkpt>
      <trkpt lat="45.2388" lon="4.80654">
        <ele>135.82200622559</ele>
        <time>2009-08-27T08:34:28Z</time>
      </trkpt>
      <trkpt lat="45.23907" lon="4.8064">
        <ele>135.51899719238</ele>
        <time>2009-08-27T08:34:32Z</time>
      </trkpt>
      <trkpt lat="45.23953" lon="4.80588">
        <ele>137.7380065918</ele>
        <time>2009-08-27T08:34:42Z</time>
      </trkpt>
      <trkpt lat="45.2396" lon="4.80579">
        <ele>138.1130065918</ele>
        <time>2009-08-27T08:34:44Z</time>
      </trkpt>
      <trkpt lat="45.24004" lon="4.8055">
        <ele>141.16000366211</ele>
        <time>2009-08-27T08:34:56Z</time>
      </trkpt>
      <trkpt lat="45.24033" lon="4.8055">
        <ele>141.75399780273</ele>
        <time>2009-08-27T08:35:02Z</time>
      </trkpt>
      <trkpt lat="45.24075" lon="4.8055">
        <ele>142.05700683594</ele>
        <time>2009-08-27T08:35:10Z</time>
      </trkpt>
      <trkpt lat="45.24151" lon="4.80547">
        <ele>141.94299316406</ele>
        <time>2009-08-27T08:35:22Z</time>
      </trkpt>
      <trkpt lat="45.24203" lon="4.80555">
        <ele>142.27499389648</ele>
        <time>2009-08-27T08:35:31Z</time>
      </trkpt>
      <trkpt lat="45.24213" lon="4.80557">
        <ele>142.13400268555</ele>
        <time>2009-08-27T08:35:33Z</time>
      </trkpt>
      <trkpt lat="45.24221" lon="4.80527">
        <ele>142.13900756836</ele>
        <time>2009-08-27T08:35:37Z</time>
      </trkpt>
      <trkpt lat="45.24219" lon="4.80433">
        <ele>140.04899597168</ele>
        <time>2009-08-27T08:35:47Z</time>
      </trkpt>
      <trkpt lat="45.24216" lon="4.80392">
        <ele>139.34399414062</ele>
        <time>2009-08-27T08:35:51Z</time>
      </trkpt>
      <trkpt lat="45.24216" lon="4.80335">
        <ele>139.82699584961</ele>
        <time>2009-08-27T08:35:58Z</time>
      </trkpt>
      <trkpt lat="45.24216" lon="4.80326">
        <ele>139.87399291992</ele>
        <time>2009-08-27T08:35:59Z</time>
      </trkpt>
      <trkpt lat="45.24221" lon="4.80265">
        <ele>141.41900634766</ele>
        <time>2009-08-27T08:36:06Z</time>
      </trkpt>
      <trkpt lat="45.24229" lon="4.80175">
        <ele>143.61599731445</ele>
        <time>2009-08-27T08:36:17Z</time>
      </trkpt>
      <trkpt lat="45.24234" lon="4.80116">
        <ele>144.18600463867</ele>
        <time>2009-08-27T08:36:24Z</time>
      </trkpt>
      <trkpt lat="45.24243" lon="4.79992">
        <ele>141.21099853516</ele>
        <time>2009-08-27T08:36:37Z</time>
      </trkpt>
      <trkpt lat="45.24244" lon="4.79982">
        <ele>141.15400695801</ele>
        <time>2009-08-27T08:36:38Z</time>
      </trkpt>
      <trkpt lat="45.24256" lon="4.79964">
        <ele>140.80499267578</ele>
        <time>2009-08-27T08:36:45Z</time>
      </trkpt>
      <trkpt lat="45.24262" lon="4.79967">
        <ele>140.70100402832</ele>
        <time>2009-08-27T08:36:46Z</time>
      </trkpt>
      <trkpt lat="45.24336" lon="4.79998">
        <ele>139.52699279785</ele>
        <time>2009-08-27T08:36:58Z</time>
      </trkpt>
      <trkpt lat="45.24411" lon="4.80027">
        <ele>138.6369934082</ele>
        <time>2009-08-27T08:37:09Z</time>
      </trkpt>
      <trkpt lat="45.24501" lon="4.80047">
        <ele>137.25399780273</ele>
        <time>2009-08-27T08:37:21Z</time>
      </trkpt>
      <trkpt lat="45.24609" lon="4.80049">
        <ele>137.38299560547</ele>
        <time>2009-08-27T08:37:35Z</time>
      </trkpt>
      <trkpt lat="45.24706" lon="4.80035">
        <ele>137.20700073242</ele>
        <time>2009-08-27T08:37:47Z</time>
      </trkpt>
      <trkpt lat="45.24804" lon="4.80025">
        <ele>137.85099792481</ele>
        <time>2009-08-27T08:38:00Z</time>
      </trkpt>
      <trkpt lat="45.24892" lon="4.80034">
        <ele>138.73300170898</ele>
        <time>2009-08-27T08:38:12Z</time>
      </trkpt>
      <trkpt lat="45.25006" lon="4.80038">
        <ele>139.09300231934</ele>
        <time>2009-08-27T08:38:28Z</time>
      </trkpt>
      <trkpt lat="45.25126" lon="4.80041">
        <ele>138.98399353027</ele>
        <time>2009-08-27T08:38:44Z</time>
      </trkpt>
      <trkpt lat="45.25257" lon="4.80044">
        <ele>139.52000427246</ele>
        <time>2009-08-27T08:39:02Z</time>
      </trkpt>
      <trkpt lat="45.2535" lon="4.80042">
        <ele>139.20300292969</ele>
        <time>2009-08-27T08:39:15Z</time>
      </trkpt>
      <trkpt lat="45.25461" lon="4.80036">
        <ele>139.25799560547</ele>
        <time>2009-08-27T08:39:30Z</time>
      </trkpt>
      <trkpt lat="45.25591" lon="4.80035">
        <ele>139.40299987793</ele>
        <time>2009-08-27T08:39:48Z</time>
      </trkpt>
      <trkpt lat="45.2575" lon="4.80034">
        <ele>140.375</ele>
        <time>2009-08-27T08:40:10Z</time>
      </trkpt>
      <trkpt lat="45.2577" lon="4.80036">
        <ele>140.85899353027</ele>
        <time>2009-08-27T08:40:13Z</time>
      </trkpt>
      <trkpt lat="45.25826" lon="4.80036">
        <ele>139.96200561523</ele>
        <time>2009-08-27T08:40:22Z</time>
      </trkpt>
      <trkpt lat="45.25853" lon="4.8004">
        <ele>139.8630065918</ele>
        <time>2009-08-27T08:40:26Z</time>
      </trkpt>
      <trkpt lat="45.25861" lon="4.80013">
        <ele>139.79400634766</ele>
        <time>2009-08-27T08:40:31Z</time>
      </trkpt>
      <trkpt lat="45.25844" lon="4.8001">
        <ele>140.32099914551</ele>
        <time>2009-08-27T08:40:34Z</time>
      </trkpt>
      <trkpt lat="45.25821" lon="4.80013">
        <ele>140.45700073242</ele>
        <time>2009-08-27T08:40:38Z</time>
      </trkpt>
      <trkpt lat="45.25803" lon="4.80014">
        <ele>140.86500549316</ele>
        <time>2009-08-27T08:40:41Z</time>
      </trkpt>
      <trkpt lat="45.25769" lon="4.79967">
        <ele>140.53500366211</ele>
        <time>2009-08-27T08:40:50Z</time>
      </trkpt>
      <trkpt lat="45.2577" lon="4.79948">
        <ele>140.46299743652</ele>
        <time>2009-08-27T08:40:52Z</time>
      </trkpt>
      <trkpt lat="45.25776" lon="4.79907">
        <ele>139.91900634766</ele>
        <time>2009-08-27T08:40:56Z</time>
      </trkpt>
      <trkpt lat="45.25775" lon="4.79867">
        <ele>140.00500488281</ele>
        <time>2009-08-27T08:41:00Z</time>
      </trkpt>
      <trkpt lat="45.25784" lon="4.79823">
        <ele>140.00399780273</ele>
        <time>2009-08-27T08:41:05Z</time>
      </trkpt>
      <trkpt lat="45.25788" lon="4.79817">
        <ele>139.77099609375</ele>
        <time>2009-08-27T08:41:06Z</time>
      </trkpt>
      <trkpt lat="45.25846" lon="4.79708">
        <ele>140.72599792481</ele>
        <time>2009-08-27T08:41:21Z</time>
      </trkpt>
      <trkpt lat="45.2587" lon="4.79553">
        <ele>141.68200683594</ele>
        <time>2009-08-27T08:41:38Z</time>
      </trkpt>
      <trkpt lat="45.25872" lon="4.79483">
        <ele>142.24600219727</ele>
        <time>2009-08-27T08:41:45Z</time>
      </trkpt>
      <trkpt lat="45.25861" lon="4.79411">
        <ele>144.54800415039</ele>
        <time>2009-08-27T08:41:53Z</time>
      </trkpt>
      <trkpt lat="45.25863" lon="4.79387">
        <ele>145.32499694824</ele>
        <time>2009-08-27T08:41:56Z</time>
      </trkpt>
      <trkpt lat="45.25862" lon="4.79325">
        <ele>145.76600646973</ele>
        <time>2009-08-27T08:42:03Z</time>
      </trkpt>
      <trkpt lat="45.2587" lon="4.79292">
        <ele>146.27499389648</ele>
        <time>2009-08-27T08:42:07Z</time>
      </trkpt>
      <trkpt lat="45.25872" lon="4.79265">
        <ele>146.86500549316</ele>
        <time>2009-08-27T08:42:10Z</time>
      </trkpt>
      <trkpt lat="45.25872" lon="4.79238">
        <ele>146.96099853516</ele>
        <time>2009-08-27T08:42:13Z</time>
      </trkpt>
      <trkpt lat="45.25865" lon="4.79139">
        <ele>148.62899780273</ele>
        <time>2009-08-27T08:42:24Z</time>
      </trkpt>
      <trkpt lat="45.25836" lon="4.79015">
        <ele>149.20100402832</ele>
        <time>2009-08-27T08:42:38Z</time>
      </trkpt>
      <trkpt lat="45.25833" lon="4.79007">
        <ele>149.22999572754</ele>
        <time>2009-08-27T08:42:39Z</time>
      </trkpt>
      <trkpt lat="45.25816" lon="4.78975">
        <ele>148.64399719238</ele>
        <time>2009-08-27T08:42:43Z</time>
      </trkpt>
      <trkpt lat="45.258" lon="4.78954">
        <ele>147.92999267578</ele>
        <time>2009-08-27T08:42:46Z</time>
      </trkpt>
      <trkpt lat="45.25787" lon="4.78917">
        <ele>147.41400146484</ele>
        <time>2009-08-27T08:42:50Z</time>
      </trkpt>
      <trkpt lat="45.25784" lon="4.78884">
        <ele>147.24099731445</ele>
        <time>2009-08-27T08:42:53Z</time>
      </trkpt>
      <trkpt lat="45.25772" lon="4.78844">
        <ele>147.70100402832</ele>
        <time>2009-08-27T08:42:57Z</time>
      </trkpt>
      <trkpt lat="45.25692" lon="4.78722">
        <ele>147.35899353027</ele>
        <time>2009-08-27T08:43:13Z</time>
      </trkpt>
      <trkpt lat="45.25655" lon="4.78684">
        <ele>147.83099365234</ele>
        <time>2009-08-27T08:43:19Z</time>
      </trkpt>
      <trkpt lat="45.25644" lon="4.78668">
        <ele>147.69999694824</ele>
        <time>2009-08-27T08:43:21Z</time>
      </trkpt>
      <trkpt lat="45.25585" lon="4.7858">
        <ele>148.22200012207</ele>
        <time>2009-08-27T08:43:33Z</time>
      </trkpt>
      <trkpt lat="45.25562" lon="4.78536">
        <ele>148.5359954834</ele>
        <time>2009-08-27T08:43:40Z</time>
      </trkpt>
      <trkpt lat="45.25561" lon="4.78541">
        <ele>149.1369934082</ele>
        <time>2009-08-27T08:43:45Z</time>
      </trkpt>
      <trkpt lat="45.25558" lon="4.78548">
        <ele>149.03900146484</ele>
        <time>2009-08-27T08:43:47Z</time>
      </trkpt>
      <trkpt lat="45.25542" lon="4.78562">
        <ele>148.64700317383</ele>
        <time>2009-08-27T08:43:53Z</time>
      </trkpt>
      <trkpt lat="45.25508" lon="4.78551">
        <ele>149.16299438477</ele>
        <time>2009-08-27T08:44:00Z</time>
      </trkpt>
      <trkpt lat="45.25468" lon="4.78494">
        <ele>149.44400024414</ele>
        <time>2009-08-27T08:44:10Z</time>
      </trkpt>
      <trkpt lat="45.25436" lon="4.7845">
        <ele>149.44500732422</ele>
        <time>2009-08-27T08:44:19Z</time>
      </trkpt>
      <trkpt lat="45.25419" lon="4.78405">
        <ele>151.52499389648</ele>
        <time>2009-08-27T08:44:30Z</time>
      </trkpt>
      <trkpt lat="45.25421" lon="4.78401">
        <ele>151.60200500488</ele>
        <time>2009-08-27T08:44:31Z</time>
      </trkpt>
      <trkpt lat="45.25439" lon="4.78368">
        <ele>153.56199645996</ele>
        <time>2009-08-27T08:44:41Z</time>
      </trkpt>
      <trkpt lat="45.25472" lon="4.78316">
        <ele>156.25999450684</ele>
        <time>2009-08-27T08:44:55Z</time>
      </trkpt>
      <trkpt lat="45.25481" lon="4.78299">
        <ele>156.6549987793</ele>
        <time>2009-08-27T08:44:59Z</time>
      </trkpt>
      <trkpt lat="45.25473" lon="4.78252">
        <ele>157.35800170898</ele>
        <time>2009-08-27T08:45:07Z</time>
      </trkpt>
      <trkpt lat="45.25446" lon="4.78193">
        <ele>159.34899902344</ele>
        <time>2009-08-27T08:45:20Z</time>
      </trkpt>
      <trkpt lat="45.2542" lon="4.78126">
        <ele>160.97300720215</ele>
        <time>2009-08-27T08:45:33Z</time>
      </trkpt>
      <trkpt lat="45.25416" lon="4.78115">
        <ele>161.28300476074</ele>
        <time>2009-08-27T08:45:35Z</time>
      </trkpt>
      <trkpt lat="45.25423" lon="4.78065">
        <ele>163.55499267578</ele>
        <time>2009-08-27T08:45:44Z</time>
      </trkpt>
      <trkpt lat="45.2544" lon="4.78047">
        <ele>165.51300048828</ele>
        <time>2009-08-27T08:45:49Z</time>
      </trkpt>
      <trkpt lat="45.2546" lon="4.78022">
        <ele>166.11799621582</ele>
        <time>2009-08-27T08:45:56Z</time>
      </trkpt>
      <trkpt lat="45.25475" lon="4.78004">
        <ele>170.41999816894</ele>
        <time>2009-08-27T08:46:02Z</time>
      </trkpt>
      <trkpt lat="45.25512" lon="4.77965">
        <ele>174.89599609375</ele>
        <time>2009-08-27T08:46:16Z</time>
      </trkpt>
      <trkpt lat="45.25542" lon="4.77926">
        <ele>179.37300109863</ele>
        <time>2009-08-27T08:46:30Z</time>
      </trkpt>
      <trkpt lat="45.25573" lon="4.77879">
        <ele>183.9940032959</ele>
        <time>2009-08-27T08:46:46Z</time>
      </trkpt>
      <trkpt lat="45.25607" lon="4.77859">
        <ele>187.99899291992</ele>
        <time>2009-08-27T08:47:01Z</time>
      </trkpt>
      <trkpt lat="45.25638" lon="4.77883">
        <ele>191.14900207519</ele>
        <time>2009-08-27T08:47:14Z</time>
      </trkpt>
      <trkpt lat="45.25681" lon="4.7789">
        <ele>195.36700439453</ele>
        <time>2009-08-27T08:47:30Z</time>
      </trkpt>
      <trkpt lat="45.25722" lon="4.77893">
        <ele>199.10600280762</ele>
        <time>2009-08-27T08:47:45Z</time>
      </trkpt>
      <trkpt lat="45.2577" lon="4.7788">
        <ele>203.09300231934</ele>
        <time>2009-08-27T08:48:00Z</time>
      </trkpt>
      <trkpt lat="45.25818" lon="4.77878">
        <ele>207.22200012207</ele>
        <time>2009-08-27T08:48:15Z</time>
      </trkpt>
      <trkpt lat="45.25827" lon="4.77876">
        <ele>208.27299499512</ele>
        <time>2009-08-27T08:48:18Z</time>
      </trkpt>
      <trkpt lat="45.25819" lon="4.77854">
        <ele>210.35800170898</ele>
        <time>2009-08-27T08:48:26Z</time>
      </trkpt>
      <trkpt lat="45.25785" lon="4.77841">
        <ele>214.18299865723</ele>
        <time>2009-08-27T08:48:40Z</time>
      </trkpt>
      <trkpt lat="45.25756" lon="4.77792">
        <ele>218.39100646973</ele>
        <time>2009-08-27T08:48:58Z</time>
      </trkpt>
      <trkpt lat="45.25743" lon="4.77731">
        <ele>222.77499389648</ele>
        <time>2009-08-27T08:49:16Z</time>
      </trkpt>
      <trkpt lat="45.2572" lon="4.77674">
        <ele>227.30299377441</ele>
        <time>2009-08-27T08:49:35Z</time>
      </trkpt>
      <trkpt lat="45.25699" lon="4.7764">
        <ele>230.41400146484</ele>
        <time>2009-08-27T08:49:47Z</time>
      </trkpt>
      <trkpt lat="45.25665" lon="4.77595">
        <ele>232.99899291992</ele>
        <time>2009-08-27T08:50:00Z</time>
      </trkpt>
      <trkpt lat="45.25673" lon="4.77566">
        <ele>234.36099243164</ele>
        <time>2009-08-27T08:50:07Z</time>
      </trkpt>
      <trkpt lat="45.25692" lon="4.77581">
        <ele>237.00999450684</ele>
        <time>2009-08-27T08:50:16Z</time>
      </trkpt>
      <trkpt lat="45.25717" lon="4.77619">
        <ele>240.45599365234</ele>
        <time>2009-08-27T08:50:30Z</time>
      </trkpt>
      <trkpt lat="45.25726" lon="4.77624">
        <ele>241.6309967041</ele>
        <time>2009-08-27T08:50:34Z</time>
      </trkpt>
      <trkpt lat="45.25731" lon="4.77605">
        <ele>243.38200378418</ele>
        <time>2009-08-27T08:50:42Z</time>
      </trkpt>
      <trkpt lat="45.25701" lon="4.77565">
        <ele>246.71000671387</ele>
        <time>2009-08-27T08:50:56Z</time>
      </trkpt>
      <trkpt lat="45.25676" lon="4.77521">
        <ele>249.74200439453</ele>
        <time>2009-08-27T08:51:08Z</time>
      </trkpt>
      <trkpt lat="45.2566" lon="4.77458">
        <ele>253.29600524902</ele>
        <time>2009-08-27T08:51:23Z</time>
      </trkpt>
      <trkpt lat="45.25644" lon="4.77393">
        <ele>257.11999511719</ele>
        <time>2009-08-27T08:51:39Z</time>
      </trkpt>
      <trkpt lat="45.25626" lon="4.77316">
        <ele>261.51300048828</ele>
        <time>2009-08-27T08:51:58Z</time>
      </trkpt>
      <trkpt lat="45.25618" lon="4.77268">
        <ele>264.47198486328</ele>
        <time>2009-08-27T08:52:10Z</time>
      </trkpt>
      <trkpt lat="45.25614" lon="4.77213">
        <ele>267.02099609375</ele>
        <time>2009-08-27T08:52:22Z</time>
      </trkpt>
      <trkpt lat="45.25631" lon="4.77214">
        <ele>268.9580078125</ele>
        <time>2009-08-27T08:52:30Z</time>
      </trkpt>
      <trkpt lat="45.25632" lon="4.77227">
        <ele>269.83099365234</ele>
        <time>2009-08-27T08:52:33Z</time>
      </trkpt>
      <trkpt lat="45.25639" lon="4.77283">
        <ele>272.83401489258</ele>
        <time>2009-08-27T08:52:46Z</time>
      </trkpt>
      <trkpt lat="45.25681" lon="4.77356">
        <ele>277.55801391602</ele>
        <time>2009-08-27T08:53:06Z</time>
      </trkpt>
      <trkpt lat="45.25715" lon="4.77404">
        <ele>281.04901123047</ele>
        <time>2009-08-27T08:53:21Z</time>
      </trkpt>
      <trkpt lat="45.25748" lon="4.77454">
        <ele>284.35998535156</ele>
        <time>2009-08-27T08:53:37Z</time>
      </trkpt>
      <trkpt lat="45.25778" lon="4.77502">
        <ele>287.70901489258</ele>
        <time>2009-08-27T08:53:52Z</time>
      </trkpt>
      <trkpt lat="45.25823" lon="4.77545">
        <ele>291.59201049805</ele>
        <time>2009-08-27T08:54:09Z</time>
      </trkpt>
      <trkpt lat="45.25864" lon="4.77582">
        <ele>295.60598754883</ele>
        <time>2009-08-27T08:54:26Z</time>
      </trkpt>
      <trkpt lat="45.25901" lon="4.77598">
        <ele>298.9700012207</ele>
        <time>2009-08-27T08:54:40Z</time>
      </trkpt>
      <trkpt lat="45.25952" lon="4.77595">
        <ele>303.52301025391</ele>
        <time>2009-08-27T08:54:58Z</time>
      </trkpt>
      <trkpt lat="45.2599" lon="4.77581">
        <ele>307.00799560547</ele>
        <time>2009-08-27T08:55:13Z</time>
      </trkpt>
      <trkpt lat="45.26003" lon="4.77617">
        <ele>309.28100585938</ele>
        <time>2009-08-27T08:55:24Z</time>
      </trkpt>
      <trkpt lat="45.26002" lon="4.77684">
        <ele>313.04598999023</ele>
        <time>2009-08-27T08:55:40Z</time>
      </trkpt>
      <trkpt lat="45.26027" lon="4.77733">
        <ele>316.0710144043</ele>
        <time>2009-08-27T08:55:54Z</time>
      </trkpt>
      <trkpt lat="45.26064" lon="4.77789">
        <ele>320.30700683594</ele>
        <time>2009-08-27T08:56:12Z</time>
      </trkpt>
      <trkpt lat="45.2611" lon="4.77834">
        <ele>324.67599487305</ele>
        <time>2009-08-27T08:56:30Z</time>
      </trkpt>
      <trkpt lat="45.26149" lon="4.77848">
        <ele>327.61999511719</ele>
        <time>2009-08-27T08:56:43Z</time>
      </trkpt>
      <trkpt lat="45.26202" lon="4.77874">
        <ele>331.98300170898</ele>
        <time>2009-08-27T08:57:00Z</time>
      </trkpt>
      <trkpt lat="45.26266" lon="4.77897">
        <ele>336.99200439453</ele>
        <time>2009-08-27T08:57:20Z</time>
      </trkpt>
      <trkpt lat="45.26324" lon="4.77881">
        <ele>340.56298828125</ele>
        <time>2009-08-27T08:57:37Z</time>
      </trkpt>
      <trkpt lat="45.26376" lon="4.77886">
        <ele>343.94299316406</ele>
        <time>2009-08-27T08:57:53Z</time>
      </trkpt>
      <trkpt lat="45.26434" lon="4.77904">
        <ele>347.875</ele>
        <time>2009-08-27T08:58:10Z</time>
      </trkpt>
      <trkpt lat="45.2648" lon="4.77906">
        <ele>350.4049987793</ele>
        <time>2009-08-27T08:58:23Z</time>
      </trkpt>
      <trkpt lat="45.26508" lon="4.77852">
        <ele>352.76000976562</ele>
        <time>2009-08-27T08:58:36Z</time>
      </trkpt>
      <trkpt lat="45.26535" lon="4.77779">
        <ele>356.04400634766</ele>
        <time>2009-08-27T08:58:51Z</time>
      </trkpt>
      <trkpt lat="45.26566" lon="4.77708">
        <ele>360.39999389648</ele>
        <time>2009-08-27T08:59:07Z</time>
      </trkpt>
      <trkpt lat="45.2661" lon="4.77619">
        <ele>364.72799682617</ele>
        <time>2009-08-27T08:59:27Z</time>
      </trkpt>
      <trkpt lat="45.26618" lon="4.77579">
        <ele>365.42001342773</ele>
        <time>2009-08-27T08:59:34Z</time>
      </trkpt>
      <trkpt lat="45.26615" lon="4.77541">
        <ele>365.98300170898</ele>
        <time>2009-08-27T08:59:40Z</time>
      </trkpt>
      <trkpt lat="45.26609" lon="4.77502">
        <ele>366.41299438477</ele>
        <time>2009-08-27T08:59:49Z</time>
      </trkpt>
      <trkpt lat="45.26601" lon="4.77458">
        <ele>366.05200195312</ele>
        <time>2009-08-27T09:00:15Z</time>
      </trkpt>
      <trkpt lat="45.26596" lon="4.7742">
        <ele>365.05599975586</ele>
        <time>2009-08-27T09:00:21Z</time>
      </trkpt>
      <trkpt lat="45.26593" lon="4.77387">
        <ele>363.50799560547</ele>
        <time>2009-08-27T09:00:25Z</time>
      </trkpt>
      <trkpt lat="45.2658" lon="4.77265">
        <ele>361.34600830078</ele>
        <time>2009-08-27T09:00:38Z</time>
      </trkpt>
      <trkpt lat="45.26572" lon="4.7715">
        <ele>359.95700073242</ele>
        <time>2009-08-27T09:00:48Z</time>
      </trkpt>
      <trkpt lat="45.26572" lon="4.77138">
        <ele>359.85699462891</ele>
        <time>2009-08-27T09:00:49Z</time>
      </trkpt>
      <trkpt lat="45.26563" lon="4.77093">
        <ele>360.02899169922</ele>
        <time>2009-08-27T09:00:53Z</time>
      </trkpt>
      <trkpt lat="45.26541" lon="4.77049">
        <ele>360.58801269531</ele>
        <time>2009-08-27T09:00:58Z</time>
      </trkpt>
      <trkpt lat="45.26516" lon="4.76923">
        <ele>362.30999755859</ele>
        <time>2009-08-27T09:01:12Z</time>
      </trkpt>
      <trkpt lat="45.26511" lon="4.76887">
        <ele>362.74700927734</ele>
        <time>2009-08-27T09:01:16Z</time>
      </trkpt>
      <trkpt lat="45.26485" lon="4.76749">
        <ele>363.98498535156</ele>
        <time>2009-08-27T09:01:32Z</time>
      </trkpt>
      <trkpt lat="45.26448" lon="4.76604">
        <ele>365.29299926758</ele>
        <time>2009-08-27T09:01:49Z</time>
      </trkpt>
      <trkpt lat="45.26428" lon="4.76491">
        <ele>365.7619934082</ele>
        <time>2009-08-27T09:02:01Z</time>
      </trkpt>
      <trkpt lat="45.26425" lon="4.76461">
        <ele>365.55899047852</ele>
        <time>2009-08-27T09:02:04Z</time>
      </trkpt>
      <trkpt lat="45.26436" lon="4.76302">
        <ele>365.9700012207</ele>
        <time>2009-08-27T09:02:19Z</time>
      </trkpt>
      <trkpt lat="45.26416" lon="4.76179">
        <ele>367.67401123047</ele>
        <time>2009-08-27T09:02:33Z</time>
      </trkpt>
      <trkpt lat="45.26426" lon="4.76057">
        <ele>366.64700317383</ele>
        <time>2009-08-27T09:02:46Z</time>
      </trkpt>
      <trkpt lat="45.26435" lon="4.7598">
        <ele>363.43701171875</ele>
        <time>2009-08-27T09:02:53Z</time>
      </trkpt>
      <trkpt lat="45.26436" lon="4.75955">
        <ele>362.45999145508</ele>
        <time>2009-08-27T09:02:55Z</time>
      </trkpt>
      <trkpt lat="45.26424" lon="4.75903">
        <ele>359.7919921875</ele>
        <time>2009-08-27T09:02:59Z</time>
      </trkpt>
      <trkpt lat="45.26393" lon="4.75869">
        <ele>358.47198486328</ele>
        <time>2009-08-27T09:03:03Z</time>
      </trkpt>
      <trkpt lat="45.26384" lon="4.75864">
        <ele>358.55200195312</ele>
        <time>2009-08-27T09:03:04Z</time>
      </trkpt>
      <trkpt lat="45.2634" lon="4.75841">
        <ele>358.56298828125</ele>
        <time>2009-08-27T09:03:09Z</time>
      </trkpt>
      <trkpt lat="45.26315" lon="4.75812">
        <ele>360.13198852539</ele>
        <time>2009-08-27T09:03:13Z</time>
      </trkpt>
      <trkpt lat="45.26304" lon="4.75786">
        <ele>362.25601196289</ele>
        <time>2009-08-27T09:03:16Z</time>
      </trkpt>
      <trkpt lat="45.26297" lon="4.75761">
        <ele>363.62899780273</ele>
        <time>2009-08-27T09:03:19Z</time>
      </trkpt>
      <trkpt lat="45.26292" lon="4.75745">
        <ele>364.33599853516</ele>
        <time>2009-08-27T09:03:21Z</time>
      </trkpt>
      <trkpt lat="45.2629" lon="4.75728">
        <ele>364.81900024414</ele>
        <time>2009-08-27T09:03:23Z</time>
      </trkpt>
      <trkpt lat="45.26294" lon="4.75644">
        <ele>365.02301025391</ele>
        <time>2009-08-27T09:03:32Z</time>
      </trkpt>
      <trkpt lat="45.26297" lon="4.75625">
        <ele>365.28399658203</ele>
        <time>2009-08-27T09:03:34Z</time>
      </trkpt>
      <trkpt lat="45.26315" lon="4.75574">
        <ele>364.89099121094</ele>
        <time>2009-08-27T09:03:40Z</time>
      </trkpt>
      <trkpt lat="45.2633" lon="4.75526">
        <ele>363.36700439453</ele>
        <time>2009-08-27T09:03:45Z</time>
      </trkpt>
      <trkpt lat="45.26358" lon="4.75361">
        <ele>365.36499023438</ele>
        <time>2009-08-27T09:04:01Z</time>
      </trkpt>
      <trkpt lat="45.26384" lon="4.75241">
        <ele>366.88800048828</ele>
        <time>2009-08-27T09:04:15Z</time>
      </trkpt>
      <trkpt lat="45.26406" lon="4.7514">
        <ele>364.36898803711</ele>
        <time>2009-08-27T09:04:25Z</time>
      </trkpt>
      <trkpt lat="45.26423" lon="4.75067">
        <ele>363.9280090332</ele>
        <time>2009-08-27T09:04:32Z</time>
      </trkpt>
      <trkpt lat="45.26461" lon="4.74896">
        <ele>362.77600097656</ele>
        <time>2009-08-27T09:04:48Z</time>
      </trkpt>
      <trkpt lat="45.26537" lon="4.74698">
        <ele>364.14401245117</ele>
        <time>2009-08-27T09:05:09Z</time>
      </trkpt>
      <trkpt lat="45.26602" lon="4.74539">
        <ele>367.95498657227</ele>
        <time>2009-08-27T09:05:30Z</time>
      </trkpt>
      <trkpt lat="45.26649" lon="4.74433">
        <ele>369.72299194336</ele>
        <time>2009-08-27T09:05:45Z</time>
      </trkpt>
      <trkpt lat="45.26716" lon="4.74325">
        <ele>371.05200195312</ele>
        <time>2009-08-27T09:06:02Z</time>
      </trkpt>
      <trkpt lat="45.26719" lon="4.74317">
        <ele>371.27899169922</ele>
        <time>2009-08-27T09:06:03Z</time>
      </trkpt>
      <trkpt lat="45.26725" lon="4.74299">
        <ele>371.53100585938</ele>
        <time>2009-08-27T09:06:05Z</time>
      </trkpt>
      <trkpt lat="45.26756" lon="4.74149">
        <ele>371.23498535156</ele>
        <time>2009-08-27T09:06:20Z</time>
      </trkpt>
      <trkpt lat="45.2678" lon="4.74027">
        <ele>371.41799926758</ele>
        <time>2009-08-27T09:06:33Z</time>
      </trkpt>
      <trkpt lat="45.26789" lon="4.73987">
        <ele>371.01400756836</ele>
        <time>2009-08-27T09:06:37Z</time>
      </trkpt>
      <trkpt lat="45.26815" lon="4.73961">
        <ele>371.26300048828</ele>
        <time>2009-08-27T09:06:42Z</time>
      </trkpt>
      <trkpt lat="45.26899" lon="4.73978">
        <ele>373.08801269531</ele>
        <time>2009-08-27T09:06:55Z</time>
      </trkpt>
      <trkpt lat="45.2692" lon="4.73981">
        <ele>374.37100219727</ele>
        <time>2009-08-27T09:06:59Z</time>
      </trkpt>
      <trkpt lat="45.26944" lon="4.73976">
        <ele>374.75</ele>
        <time>2009-08-27T09:07:04Z</time>
      </trkpt>
      <trkpt lat="45.26992" lon="4.7395">
        <ele>376.46899414062</ele>
        <time>2009-08-27T09:07:13Z</time>
      </trkpt>
      <trkpt lat="45.27032" lon="4.73923">
        <ele>377.85198974609</ele>
        <time>2009-08-27T09:07:21Z</time>
      </trkpt>
      <trkpt lat="45.27037" lon="4.7392">
        <ele>378.23599243164</ele>
        <time>2009-08-27T09:07:22Z</time>
      </trkpt>
      <trkpt lat="45.27081" lon="4.7392">
        <ele>381.13101196289</ele>
        <time>2009-08-27T09:07:31Z</time>
      </trkpt>
      <trkpt lat="45.27123" lon="4.73929">
        <ele>382.86801147461</ele>
        <time>2009-08-27T09:07:40Z</time>
      </trkpt>
      <trkpt lat="45.27187" lon="4.73939">
        <ele>385.74301147461</ele>
        <time>2009-08-27T09:07:53Z</time>
      </trkpt>
      <trkpt lat="45.27275" lon="4.73952">
        <ele>387.69500732422</ele>
        <time>2009-08-27T09:08:10Z</time>
      </trkpt>
      <trkpt lat="45.27391" lon="4.73986">
        <ele>389.72900390625</ele>
        <time>2009-08-27T09:08:29Z</time>
      </trkpt>
      <trkpt lat="45.27517" lon="4.74023">
        <ele>393.90399169922</ele>
        <time>2009-08-27T09:08:51Z</time>
      </trkpt>
      <trkpt lat="45.27613" lon="4.74033">
        <ele>395.39700317383</ele>
        <time>2009-08-27T09:09:07Z</time>
      </trkpt>
      <trkpt lat="45.27652" lon="4.7402">
        <ele>395.41500854492</ele>
        <time>2009-08-27T09:09:13Z</time>
      </trkpt>
      <trkpt lat="45.27714" lon="4.73999">
        <ele>395.03900146484</ele>
        <time>2009-08-27T09:09:23Z</time>
      </trkpt>
      <trkpt lat="45.27772" lon="4.73981">
        <ele>395.02099609375</ele>
        <time>2009-08-27T09:09:32Z</time>
      </trkpt>
      <trkpt lat="45.2788" lon="4.73966">
        <ele>392.70300292969</ele>
        <time>2009-08-27T09:09:47Z</time>
      </trkpt>
      <trkpt lat="45.27995" lon="4.73955">
        <ele>394.79400634766</ele>
        <time>2009-08-27T09:10:03Z</time>
      </trkpt>
      <trkpt lat="45.28145" lon="4.73919">
        <ele>395.88400268555</ele>
        <time>2009-08-27T09:10:26Z</time>
      </trkpt>
      <trkpt lat="45.28264" lon="4.73854">
        <ele>395.00100708008</ele>
        <time>2009-08-27T09:10:42Z</time>
      </trkpt>
      <trkpt lat="45.28271" lon="4.73847">
        <ele>394.72799682617</ele>
        <time>2009-08-27T09:10:43Z</time>
      </trkpt>
      <trkpt lat="45.2839" lon="4.73676">
        <ele>390.43701171875</ele>
        <time>2009-08-27T09:11:01Z</time>
      </trkpt>
      <trkpt lat="45.28482" lon="4.7351">
        <ele>386.97799682617</ele>
        <time>2009-08-27T09:11:16Z</time>
      </trkpt>
      <trkpt lat="45.28517" lon="4.73447">
        <ele>385.09100341797</ele>
        <time>2009-08-27T09:11:22Z</time>
      </trkpt>
      <trkpt lat="45.28546" lon="4.73377">
        <ele>383.41198730469</ele>
        <time>2009-08-27T09:11:28Z</time>
      </trkpt>
      <trkpt lat="45.28571" lon="4.73282">
        <ele>377.30200195312</ele>
        <time>2009-08-27T09:11:35Z</time>
      </trkpt>
      <trkpt lat="45.28607" lon="4.73208">
        <ele>381.24899291992</ele>
        <time>2009-08-27T09:11:42Z</time>
      </trkpt>
      <trkpt lat="45.28631" lon="4.7317">
        <ele>381.3039855957</ele>
        <time>2009-08-27T09:11:47Z</time>
      </trkpt>
      <trkpt lat="45.28658" lon="4.73082">
        <ele>378.73300170898</ele>
        <time>2009-08-27T09:11:55Z</time>
      </trkpt>
      <trkpt lat="45.28661" lon="4.73043">
        <ele>380.1549987793</ele>
        <time>2009-08-27T09:11:59Z</time>
      </trkpt>
      <trkpt lat="45.2866" lon="4.73016">
        <ele>380.62298583984</ele>
        <time>2009-08-27T09:12:02Z</time>
      </trkpt>
      <trkpt lat="45.28665" lon="4.72987">
        <ele>381.56399536133</ele>
        <time>2009-08-27T09:12:06Z</time>
      </trkpt>
      <trkpt lat="45.2868" lon="4.72954">
        <ele>381.09298706055</ele>
        <time>2009-08-27T09:12:11Z</time>
      </trkpt>
      <trkpt lat="45.28679" lon="4.72885">
        <ele>380.15100097656</ele>
        <time>2009-08-27T09:12:19Z</time>
      </trkpt>
      <trkpt lat="45.28685" lon="4.72863">
        <ele>379.36999511719</ele>
        <time>2009-08-27T09:12:22Z</time>
      </trkpt>
      <trkpt lat="45.28689" lon="4.72854">
        <ele>379.21600341797</ele>
        <time>2009-08-27T09:12:25Z</time>
      </trkpt>
      <trkpt lat="45.28674" lon="4.72835">
        <ele>379.32800292969</ele>
        <time>2009-08-27T09:12:31Z</time>
      </trkpt>
      <trkpt lat="45.28648" lon="4.72822">
        <ele>379.55499267578</ele>
        <time>2009-08-27T09:12:36Z</time>
      </trkpt>
      <trkpt lat="45.28625" lon="4.72814">
        <ele>379.95300292969</ele>
        <time>2009-08-27T09:12:40Z</time>
      </trkpt>
      <trkpt lat="45.28619" lon="4.7281">
        <ele>380.24899291992</ele>
        <time>2009-08-27T09:12:41Z</time>
      </trkpt>
      <trkpt lat="45.28606" lon="4.72797">
        <ele>380.80700683594</ele>
        <time>2009-08-27T09:12:44Z</time>
      </trkpt>
      <trkpt lat="45.28601" lon="4.72793">
        <ele>381.03100585938</ele>
        <time>2009-08-27T09:12:45Z</time>
      </trkpt>
      <trkpt lat="45.2853" lon="4.72732">
        <ele>383.90899658203</ele>
        <time>2009-08-27T09:13:00Z</time>
      </trkpt>
      <trkpt lat="45.28441" lon="4.72658">
        <ele>385.70401000977</ele>
        <time>2009-08-27T09:13:19Z</time>
      </trkpt>
      <trkpt lat="45.28354" lon="4.72595">
        <ele>389.40798950195</ele>
        <time>2009-08-27T09:13:37Z</time>
      </trkpt>
      <trkpt lat="45.2829" lon="4.72545">
        <ele>393.19198608398</ele>
        <time>2009-08-27T09:13:53Z</time>
      </trkpt>
      <trkpt lat="45.28276" lon="4.72529">
        <ele>393.20999145508</ele>
        <time>2009-08-27T09:13:57Z</time>
      </trkpt>
      <trkpt lat="45.28267" lon="4.72515">
        <ele>393.21899414062</ele>
        <time>2009-08-27T09:14:00Z</time>
      </trkpt>
      <trkpt lat="45.28244" lon="4.72494">
        <ele>396.01800537109</ele>
        <time>2009-08-27T09:14:06Z</time>
      </trkpt>
      <trkpt lat="45.28227" lon="4.72471">
        <ele>397.2380065918</ele>
        <time>2009-08-27T09:14:11Z</time>
      </trkpt>
      <trkpt lat="45.28208" lon="4.72461">
        <ele>398.24600219727</ele>
        <time>2009-08-27T09:14:16Z</time>
      </trkpt>
      <trkpt lat="45.282" lon="4.72461">
        <ele>398.75201416016</ele>
        <time>2009-08-27T09:14:18Z</time>
      </trkpt>
      <trkpt lat="45.28134" lon="4.72433">
        <ele>403.06298828125</ele>
        <time>2009-08-27T09:14:34Z</time>
      </trkpt>
      <trkpt lat="45.28068" lon="4.72385">
        <ele>406.94400024414</ele>
        <time>2009-08-27T09:14:51Z</time>
      </trkpt>
      <trkpt lat="45.27993" lon="4.72318">
        <ele>411.18200683594</ele>
        <time>2009-08-27T09:15:11Z</time>
      </trkpt>
      <trkpt lat="45.27935" lon="4.72276">
        <ele>414.03399658203</ele>
        <time>2009-08-27T09:15:25Z</time>
      </trkpt>
      <trkpt lat="45.27844" lon="4.72219">
        <ele>417.39801025391</ele>
        <time>2009-08-27T09:15:45Z</time>
      </trkpt>
      <trkpt lat="45.27837" lon="4.72195">
        <ele>417.98599243164</ele>
        <time>2009-08-27T09:15:50Z</time>
      </trkpt>
      <trkpt lat="45.27848" lon="4.72139">
        <ele>419.98400878906</ele>
        <time>2009-08-27T09:15:59Z</time>
      </trkpt>
      <trkpt lat="45.27856" lon="4.72098">
        <ele>420.50399780273</ele>
        <time>2009-08-27T09:16:05Z</time>
      </trkpt>
      <trkpt lat="45.27885" lon="4.72006">
        <ele>422.64700317383</ele>
        <time>2009-08-27T09:16:20Z</time>
      </trkpt>
      <trkpt lat="45.27893" lon="4.7198">
        <ele>423.80599975586</ele>
        <time>2009-08-27T09:16:27Z</time>
      </trkpt>
      <trkpt lat="45.27906" lon="4.71918">
        <ele>425.91799926758</ele>
        <time>2009-08-27T09:16:39Z</time>
      </trkpt>
      <trkpt lat="45.27918" lon="4.71837">
        <ele>430.89700317383</ele>
        <time>2009-08-27T09:16:55Z</time>
      </trkpt>
      <trkpt lat="45.27919" lon="4.71829">
        <ele>431.5950012207</ele>
        <time>2009-08-27T09:16:57Z</time>
      </trkpt>
      <trkpt lat="45.27923" lon="4.718">
        <ele>433.95700073242</ele>
        <time>2009-08-27T09:17:04Z</time>
      </trkpt>
      <trkpt lat="45.27924" lon="4.71778">
        <ele>435.92401123047</ele>
        <time>2009-08-27T09:17:10Z</time>
      </trkpt>
      <trkpt lat="45.27931" lon="4.71747">
        <ele>439.20700073242</ele>
        <time>2009-08-27T09:17:20Z</time>
      </trkpt>
      <trkpt lat="45.27941" lon="4.71721">
        <ele>442.20300292969</ele>
        <time>2009-08-27T09:17:28Z</time>
      </trkpt>
      <trkpt lat="45.27964" lon="4.71666">
        <ele>445.61801147461</ele>
        <time>2009-08-27T09:17:44Z</time>
      </trkpt>
      <trkpt lat="45.27987" lon="4.71615">
        <ele>448.98199462891</ele>
        <time>2009-08-27T09:17:58Z</time>
      </trkpt>
      <trkpt lat="45.28002" lon="4.71563">
        <ele>453.64801025391</ele>
        <time>2009-08-27T09:18:13Z</time>
      </trkpt>
      <trkpt lat="45.28019" lon="4.71506">
        <ele>457.95901489258</ele>
        <time>2009-08-27T09:18:30Z</time>
      </trkpt>
      <trkpt lat="45.28041" lon="4.7144">
        <ele>461.87600708008</ele>
        <time>2009-08-27T09:18:47Z</time>
      </trkpt>
      <trkpt lat="45.28057" lon="4.71385">
        <ele>464.61898803711</ele>
        <time>2009-08-27T09:19:01Z</time>
      </trkpt>
      <trkpt lat="45.28068" lon="4.71346">
        <ele>468.03500366211</ele>
        <time>2009-08-27T09:19:13Z</time>
      </trkpt>
      <trkpt lat="45.28085" lon="4.71299">
        <ele>469.08700561523</ele>
        <time>2009-08-27T09:19:25Z</time>
      </trkpt>
      <trkpt lat="45.2809" lon="4.71288">
        <ele>469.20001220703</ele>
        <time>2009-08-27T09:19:27Z</time>
      </trkpt>
      <trkpt lat="45.28129" lon="4.7121">
        <ele>469.11898803711</ele>
        <time>2009-08-27T09:19:40Z</time>
      </trkpt>
      <trkpt lat="45.28132" lon="4.71203">
        <ele>469.01800537109</ele>
        <time>2009-08-27T09:19:41Z</time>
      </trkpt>
      <trkpt lat="45.28164" lon="4.71145">
        <ele>469.34298706055</ele>
        <time>2009-08-27T09:19:50Z</time>
      </trkpt>
      <trkpt lat="45.28186" lon="4.71105">
        <ele>470.94799804688</ele>
        <time>2009-08-27T09:19:57Z</time>
      </trkpt>
      <trkpt lat="45.28256" lon="4.71021">
        <ele>471.16598510742</ele>
        <time>2009-08-27T09:20:13Z</time>
      </trkpt>
      <trkpt lat="45.28324" lon="4.70937">
        <ele>472.64801025391</ele>
        <time>2009-08-27T09:20:27Z</time>
      </trkpt>
      <trkpt lat="45.28347" lon="4.70907">
        <ele>473.46499633789</ele>
        <time>2009-08-27T09:20:32Z</time>
      </trkpt>
      <trkpt lat="45.28427" lon="4.70787">
        <ele>475.57000732422</ele>
        <time>2009-08-27T09:20:51Z</time>
      </trkpt>
      <trkpt lat="45.2847" lon="4.70689">
        <ele>478.96798706055</ele>
        <time>2009-08-27T09:21:06Z</time>
      </trkpt>
      <trkpt lat="45.28499" lon="4.70627">
        <ele>482.72399902344</ele>
        <time>2009-08-27T09:21:19Z</time>
      </trkpt>
      <trkpt lat="45.28518" lon="4.70578">
        <ele>484.46301269531</ele>
        <time>2009-08-27T09:21:29Z</time>
      </trkpt>
      <trkpt lat="45.28524" lon="4.70538">
        <ele>485.84799194336</ele>
        <time>2009-08-27T09:21:36Z</time>
      </trkpt>
      <trkpt lat="45.28542" lon="4.70456">
        <ele>489.62399291992</ele>
        <time>2009-08-27T09:21:51Z</time>
      </trkpt>
      <trkpt lat="45.28559" lon="4.70341">
        <ele>493.10000610352</ele>
        <time>2009-08-27T09:22:10Z</time>
      </trkpt>
      <trkpt lat="45.28556" lon="4.70309">
        <ele>494.11999511719</ele>
        <time>2009-08-27T09:22:15Z</time>
      </trkpt>
      <trkpt lat="45.28555" lon="4.70296">
        <ele>494.12298583984</ele>
        <time>2009-08-27T09:22:17Z</time>
      </trkpt>
      <trkpt lat="45.28553" lon="4.70279">
        <ele>496.31100463867</ele>
        <time>2009-08-27T09:22:20Z</time>
      </trkpt>
      <trkpt lat="45.28547" lon="4.70176">
        <ele>499.19900512695</ele>
        <time>2009-08-27T09:22:36Z</time>
      </trkpt>
      <trkpt lat="45.28548" lon="4.70151">
        <ele>500.02600097656</ele>
        <time>2009-08-27T09:22:40Z</time>
      </trkpt>
      <trkpt lat="45.28551" lon="4.7007">
        <ele>502.99798583984</ele>
        <time>2009-08-27T09:22:53Z</time>
      </trkpt>
      <trkpt lat="45.28554" lon="4.70046">
        <ele>503.9049987793</ele>
        <time>2009-08-27T09:22:57Z</time>
      </trkpt>
      <trkpt lat="45.28558" lon="4.70021">
        <ele>504.56399536133</ele>
        <time>2009-08-27T09:23:01Z</time>
      </trkpt>
      <trkpt lat="45.28568" lon="4.6999">
        <ele>505.00500488281</ele>
        <time>2009-08-27T09:23:06Z</time>
      </trkpt>
      <trkpt lat="45.28623" lon="4.69891">
        <ele>506.0710144043</ele>
        <time>2009-08-27T09:23:22Z</time>
      </trkpt>
      <trkpt lat="45.2868" lon="4.69785">
        <ele>506.29098510742</ele>
        <time>2009-08-27T09:23:37Z</time>
      </trkpt>
      <trkpt lat="45.28694" lon="4.69762">
        <ele>506.35998535156</ele>
        <time>2009-08-27T09:23:40Z</time>
      </trkpt>
      <trkpt lat="45.28728" lon="4.69677">
        <ele>506.59899902344</ele>
        <time>2009-08-27T09:23:50Z</time>
      </trkpt>
      <trkpt lat="45.28788" lon="4.69616">
        <ele>507.63598632812</ele>
        <time>2009-08-27T09:24:01Z</time>
      </trkpt>
      <trkpt lat="45.28835" lon="4.69575">
        <ele>507.65701293945</ele>
        <time>2009-08-27T09:24:14Z</time>
      </trkpt>
      <trkpt lat="45.28852" lon="4.6956">
        <ele>512.97900390625</ele>
        <time>2009-08-27T09:24:20Z</time>
      </trkpt>
      <trkpt lat="45.28889" lon="4.69528">
        <ele>515.99200439453</ele>
        <time>2009-08-27T09:24:31Z</time>
      </trkpt>
      <trkpt lat="45.28915" lon="4.69507">
        <ele>517.6259765625</ele>
        <time>2009-08-27T09:24:38Z</time>
      </trkpt>
      <trkpt lat="45.28983" lon="4.69458">
        <ele>520.54498291016</ele>
        <time>2009-08-27T09:24:54Z</time>
      </trkpt>
      <trkpt lat="45.2899" lon="4.69455">
        <ele>520.51501464844</ele>
        <time>2009-08-27T09:24:56Z</time>
      </trkpt>
      <trkpt lat="45.29027" lon="4.69456">
        <ele>520.94000244141</ele>
        <time>2009-08-27T09:25:04Z</time>
      </trkpt>
      <trkpt lat="45.29089" lon="4.69426">
        <ele>522.23101806641</ele>
        <time>2009-08-27T09:25:16Z</time>
      </trkpt>
      <trkpt lat="45.29111" lon="4.69414">
        <ele>523.00299072266</ele>
        <time>2009-08-27T09:25:20Z</time>
      </trkpt>
      <trkpt lat="45.2914" lon="4.69414">
        <ele>522.99401855469</ele>
        <time>2009-08-27T09:25:25Z</time>
      </trkpt>
      <trkpt lat="45.29237" lon="4.69465">
        <ele>528.07800292969</ele>
        <time>2009-08-27T09:25:44Z</time>
      </trkpt>
      <trkpt lat="45.29301" lon="4.69506">
        <ele>532.18103027344</ele>
        <time>2009-08-27T09:25:59Z</time>
      </trkpt>
      <trkpt lat="45.29351" lon="4.69531">
        <ele>535.39099121094</ele>
        <time>2009-08-27T09:26:12Z</time>
      </trkpt>
      <trkpt lat="45.29387" lon="4.69505">
        <ele>537.94598388672</ele>
        <time>2009-08-27T09:26:22Z</time>
      </trkpt>
      <trkpt lat="45.29444" lon="4.69418">
        <ele>542.51000976562</ele>
        <time>2009-08-27T09:26:42Z</time>
      </trkpt>
      <trkpt lat="45.29499" lon="4.6934">
        <ele>546.98901367188</ele>
        <time>2009-08-27T09:27:01Z</time>
      </trkpt>
      <trkpt lat="45.29507" lon="4.69334">
        <ele>547.3759765625</ele>
        <time>2009-08-27T09:27:03Z</time>
      </trkpt>
      <trkpt lat="45.2956" lon="4.69324">
        <ele>550.09698486328</ele>
        <time>2009-08-27T09:27:17Z</time>
      </trkpt>
      <trkpt lat="45.29627" lon="4.69305">
        <ele>554.58697509766</ele>
        <time>2009-08-27T09:27:35Z</time>
      </trkpt>
      <trkpt lat="45.2967" lon="4.693">
        <ele>557.75598144531</ele>
        <time>2009-08-27T09:27:48Z</time>
      </trkpt>
      <trkpt lat="45.29723" lon="4.69307">
        <ele>562.26702880859</ele>
        <time>2009-08-27T09:28:04Z</time>
      </trkpt>
      <trkpt lat="45.29769" lon="4.69303">
        <ele>565.38702392578</ele>
        <time>2009-08-27T09:28:17Z</time>
      </trkpt>
      <trkpt lat="45.29807" lon="4.69252">
        <ele>568.76800537109</ele>
        <time>2009-08-27T09:28:32Z</time>
      </trkpt>
      <trkpt lat="45.29855" lon="4.69189">
        <ele>572.26000976562</ele>
        <time>2009-08-27T09:28:50Z</time>
      </trkpt>
      <trkpt lat="45.29912" lon="4.69135">
        <ele>576.55902099609</ele>
        <time>2009-08-27T09:29:09Z</time>
      </trkpt>
      <trkpt lat="45.29969" lon="4.69108">
        <ele>580.37799072266</ele>
        <time>2009-08-27T09:29:26Z</time>
      </trkpt>
      <trkpt lat="45.30032" lon="4.69113">
        <ele>583.27197265625</ele>
        <time>2009-08-27T09:29:43Z</time>
      </trkpt>
      <trkpt lat="45.30074" lon="4.69138">
        <ele>584.54797363281</ele>
        <time>2009-08-27T09:29:53Z</time>
      </trkpt>
      <trkpt lat="45.30082" lon="4.69146">
        <ele>584.76000976562</ele>
        <time>2009-08-27T09:29:55Z</time>
      </trkpt>
      <trkpt lat="45.30124" lon="4.69217">
        <ele>586.84997558594</ele>
        <time>2009-08-27T09:30:08Z</time>
      </trkpt>
      <trkpt lat="45.3013" lon="4.6926">
        <ele>588.29602050781</ele>
        <time>2009-08-27T09:30:14Z</time>
      </trkpt>
      <trkpt lat="45.3013" lon="4.69274">
        <ele>588.68103027344</ele>
        <time>2009-08-27T09:30:16Z</time>
      </trkpt>
      <trkpt lat="45.30125" lon="4.69319">
        <ele>590.34600830078</ele>
        <time>2009-08-27T09:30:22Z</time>
      </trkpt>
      <trkpt lat="45.30118" lon="4.69364">
        <ele>591.74700927734</ele>
        <time>2009-08-27T09:30:28Z</time>
      </trkpt>
      <trkpt lat="45.30142" lon="4.69408">
        <ele>592.90698242188</ele>
        <time>2009-08-27T09:30:36Z</time>
      </trkpt>
      <trkpt lat="45.30148" lon="4.69409">
        <ele>592.59301757812</ele>
        <time>2009-08-27T09:30:37Z</time>
      </trkpt>
      <trkpt lat="45.30164" lon="4.69409">
        <ele>593.96197509766</ele>
        <time>2009-08-27T09:30:40Z</time>
      </trkpt>
      <trkpt lat="45.3017" lon="4.69409">
        <ele>594.0419921875</ele>
        <time>2009-08-27T09:30:41Z</time>
      </trkpt>
      <trkpt lat="45.30196" lon="4.69418">
        <ele>594.91802978516</ele>
        <time>2009-08-27T09:30:46Z</time>
      </trkpt>
      <trkpt lat="45.30227" lon="4.69431">
        <ele>596.10498046875</ele>
        <time>2009-08-27T09:30:52Z</time>
      </trkpt>
      <trkpt lat="45.30252" lon="4.6942">
        <ele>597.25201416016</ele>
        <time>2009-08-27T09:30:57Z</time>
      </trkpt>
      <trkpt lat="45.30273" lon="4.69394">
        <ele>598.04498291016</ele>
        <time>2009-08-27T09:31:02Z</time>
      </trkpt>
      <trkpt lat="45.30301" lon="4.69384">
        <ele>598.68298339844</ele>
        <time>2009-08-27T09:31:07Z</time>
      </trkpt>
      <trkpt lat="45.30339" lon="4.69352">
        <ele>599.31402587891</ele>
        <time>2009-08-27T09:31:15Z</time>
      </trkpt>
      <trkpt lat="45.30341" lon="4.69336">
        <ele>599.32202148438</ele>
        <time>2009-08-27T09:31:17Z</time>
      </trkpt>
      <trkpt lat="45.30346" lon="4.6932">
        <ele>601.26397705078</ele>
        <time>2009-08-27T09:31:19Z</time>
      </trkpt>
      <trkpt lat="45.3039" lon="4.69284">
        <ele>603.23699951172</ele>
        <time>2009-08-27T09:31:28Z</time>
      </trkpt>
      <trkpt lat="45.30396" lon="4.69284">
        <ele>603.375</ele>
        <time>2009-08-27T09:31:29Z</time>
      </trkpt>
      <trkpt lat="45.30421" lon="4.69282">
        <ele>604.65100097656</ele>
        <time>2009-08-27T09:31:34Z</time>
      </trkpt>
      <trkpt lat="45.30444" lon="4.69272">
        <ele>605.57800292969</ele>
        <time>2009-08-27T09:31:39Z</time>
      </trkpt>
      <trkpt lat="45.30466" lon="4.69256">
        <ele>606.43798828125</ele>
        <time>2009-08-27T09:31:44Z</time>
      </trkpt>
      <trkpt lat="45.30479" lon="4.69246">
        <ele>607.15502929688</ele>
        <time>2009-08-27T09:31:47Z</time>
      </trkpt>
      <trkpt lat="45.30491" lon="4.69226">
        <ele>607.71997070312</ele>
        <time>2009-08-27T09:31:51Z</time>
      </trkpt>
      <trkpt lat="45.30499" lon="4.69201">
        <ele>608.75402832031</ele>
        <time>2009-08-27T09:31:55Z</time>
      </trkpt>
      <trkpt lat="45.30524" lon="4.69093">
        <ele>611.7919921875</ele>
        <time>2009-08-27T09:32:12Z</time>
      </trkpt>
      <trkpt lat="45.30528" lon="4.69042">
        <ele>612.62701416016</ele>
        <time>2009-08-27T09:32:19Z</time>
      </trkpt>
      <trkpt lat="45.3052" lon="4.68927">
        <ele>612.81701660156</ele>
        <time>2009-08-27T09:32:32Z</time>
      </trkpt>
      <trkpt lat="45.30544" lon="4.68872">
        <ele>613.03302001953</ele>
        <time>2009-08-27T09:32:39Z</time>
      </trkpt>
      <trkpt lat="45.30637" lon="4.68787">
        <ele>612.48101806641</ele>
        <time>2009-08-27T09:32:55Z</time>
      </trkpt>
      <trkpt lat="45.30653" lon="4.68751">
        <ele>612.32501220703</ele>
        <time>2009-08-27T09:32:59Z</time>
      </trkpt>
      <trkpt lat="45.3066" lon="4.68718">
        <ele>611.95098876953</ele>
        <time>2009-08-27T09:33:02Z</time>
      </trkpt>
      <trkpt lat="45.3068" lon="4.68668">
        <ele>611.42797851562</ele>
        <time>2009-08-27T09:33:07Z</time>
      </trkpt>
      <trkpt lat="45.3073" lon="4.68631">
        <ele>610.85400390625</ele>
        <time>2009-08-27T09:33:14Z</time>
      </trkpt>
      <trkpt lat="45.30746" lon="4.68626">
        <ele>611.07202148438</ele>
        <time>2009-08-27T09:33:16Z</time>
      </trkpt>
      <trkpt lat="45.30809" lon="4.68554">
        <ele>611.21502685547</ele>
        <time>2009-08-27T09:33:26Z</time>
      </trkpt>
      <trkpt lat="45.30856" lon="4.68454">
        <ele>613.97497558594</ele>
        <time>2009-08-27T09:33:38Z</time>
      </trkpt>
      <trkpt lat="45.3087" lon="4.68339">
        <ele>616.54602050781</ele>
        <time>2009-08-27T09:33:51Z</time>
      </trkpt>
      <trkpt lat="45.30867" lon="4.6832">
        <ele>616.41101074219</ele>
        <time>2009-08-27T09:33:53Z</time>
      </trkpt>
      <trkpt lat="45.30855" lon="4.68283">
        <ele>616.28002929688</ele>
        <time>2009-08-27T09:33:57Z</time>
      </trkpt>
      <trkpt lat="45.30839" lon="4.68245">
        <ele>615.61297607422</ele>
        <time>2009-08-27T09:34:01Z</time>
      </trkpt>
      <trkpt lat="45.30835" lon="4.68201">
        <ele>614.58001708984</ele>
        <time>2009-08-27T09:34:05Z</time>
      </trkpt>
      <trkpt lat="45.30841" lon="4.68139">
        <ele>611.68298339844</ele>
        <time>2009-08-27T09:34:10Z</time>
      </trkpt>
      <trkpt lat="45.30835" lon="4.68086">
        <ele>609.88201904297</ele>
        <time>2009-08-27T09:34:14Z</time>
      </trkpt>
      <trkpt lat="45.30827" lon="4.6806">
        <ele>609.00598144531</ele>
        <time>2009-08-27T09:34:16Z</time>
      </trkpt>
      <trkpt lat="45.30824" lon="4.67994">
        <ele>608.89202880859</ele>
        <time>2009-08-27T09:34:22Z</time>
      </trkpt>
      <trkpt lat="45.30826" lon="4.67972">
        <ele>609.58898925781</ele>
        <time>2009-08-27T09:34:27Z</time>
      </trkpt>
      <trkpt lat="45.30827" lon="4.67969">
        <ele>609.64599609375</ele>
        <time>2009-08-27T09:34:28Z</time>
      </trkpt>
      <trkpt lat="45.30832" lon="4.67962">
        <ele>609.875</ele>
        <time>2009-08-27T09:34:33Z</time>
      </trkpt>
      <trkpt lat="45.30836" lon="4.67962">
        <ele>610.20397949219</ele>
        <time>2009-08-27T09:36:55Z</time>
      </trkpt>
      <trkpt lat="45.30846" lon="4.67955">
        <ele>610.12701416016</ele>
        <time>2009-08-27T09:36:59Z</time>
      </trkpt>
      <trkpt lat="45.30861" lon="4.6793">
        <ele>610.71502685547</ele>
        <time>2009-08-27T09:37:04Z</time>
      </trkpt>
      <trkpt lat="45.30873" lon="4.67903">
        <ele>611.5</ele>
        <time>2009-08-27T09:37:09Z</time>
      </trkpt>
      <trkpt lat="45.30897" lon="4.67833">
        <ele>613.15600585938</ele>
        <time>2009-08-27T09:37:20Z</time>
      </trkpt>
      <trkpt lat="45.30902" lon="4.6782">
        <ele>613.19702148438</ele>
        <time>2009-08-27T09:37:22Z</time>
      </trkpt>
      <trkpt lat="45.30915" lon="4.67771">
        <ele>614.60400390625</ele>
        <time>2009-08-27T09:37:29Z</time>
      </trkpt>
      <trkpt lat="45.30926" lon="4.67729">
        <ele>614.94500732422</ele>
        <time>2009-08-27T09:37:35Z</time>
      </trkpt>
      <trkpt lat="45.30947" lon="4.67662">
        <ele>615.98101806641</ele>
        <time>2009-08-27T09:37:44Z</time>
      </trkpt>
      <trkpt lat="45.30933" lon="4.67608">
        <ele>616.66101074219</ele>
        <time>2009-08-27T09:37:52Z</time>
      </trkpt>
      <trkpt lat="45.30917" lon="4.6761">
        <ele>616.68701171875</ele>
        <time>2009-08-27T09:37:55Z</time>
      </trkpt>
      <trkpt lat="45.30906" lon="4.67617">
        <ele>616.44201660156</ele>
        <time>2009-08-27T09:37:57Z</time>
      </trkpt>
      <trkpt lat="45.30864" lon="4.67598">
        <ele>616.96801757812</ele>
        <time>2009-08-27T09:38:04Z</time>
      </trkpt>
      <trkpt lat="45.30801" lon="4.67492">
        <ele>616.71301269531</ele>
        <time>2009-08-27T09:38:19Z</time>
      </trkpt>
      <trkpt lat="45.30736" lon="4.67413">
        <ele>617.49499511719</ele>
        <time>2009-08-27T09:38:33Z</time>
      </trkpt>
      <trkpt lat="45.30674" lon="4.67334">
        <ele>618.08001708984</ele>
        <time>2009-08-27T09:38:47Z</time>
      </trkpt>
      <trkpt lat="45.30634" lon="4.6724">
        <ele>618.25402832031</ele>
        <time>2009-08-27T09:39:00Z</time>
      </trkpt>
      <trkpt lat="45.3063" lon="4.67218">
        <ele>618.33197021484</ele>
        <time>2009-08-27T09:39:03Z</time>
      </trkpt>
      <trkpt lat="45.30638" lon="4.6718">
        <ele>618.27197265625</ele>
        <time>2009-08-27T09:39:08Z</time>
      </trkpt>
      <trkpt lat="45.30655" lon="4.67151">
        <ele>618.49102783203</ele>
        <time>2009-08-27T09:39:12Z</time>
      </trkpt>
      <trkpt lat="45.30663" lon="4.67084">
        <ele>617.97497558594</ele>
        <time>2009-08-27T09:39:19Z</time>
      </trkpt>
      <trkpt lat="45.30656" lon="4.67036">
        <ele>618.29797363281</ele>
        <time>2009-08-27T09:39:24Z</time>
      </trkpt>
      <trkpt lat="45.30652" lon="4.67007">
        <ele>618.375</ele>
        <time>2009-08-27T09:39:27Z</time>
      </trkpt>
      <trkpt lat="45.30604" lon="4.66868">
        <ele>618.21398925781</ele>
        <time>2009-08-27T09:39:42Z</time>
      </trkpt>
      <trkpt lat="45.30568" lon="4.66728">
        <ele>619.20501708984</ele>
        <time>2009-08-27T09:39:56Z</time>
      </trkpt>
      <trkpt lat="45.30529" lon="4.66585">
        <ele>619.27697753906</ele>
        <time>2009-08-27T09:40:10Z</time>
      </trkpt>
      <trkpt lat="45.30494" lon="4.66486">
        <ele>619.17797851562</ele>
        <time>2009-08-27T09:40:20Z</time>
      </trkpt>
      <trkpt lat="45.30502" lon="4.66421">
        <ele>617.40698242188</ele>
        <time>2009-08-27T09:40:26Z</time>
      </trkpt>
      <trkpt lat="45.30544" lon="4.6635">
        <ele>613.98400878906</ele>
        <time>2009-08-27T09:40:33Z</time>
      </trkpt>
      <trkpt lat="45.30577" lon="4.66323">
        <ele>611.5830078125</ele>
        <time>2009-08-27T09:40:37Z</time>
      </trkpt>
      <trkpt lat="45.30608" lon="4.66318">
        <ele>609.98297119141</ele>
        <time>2009-08-27T09:40:40Z</time>
      </trkpt>
      <trkpt lat="45.30638" lon="4.66326">
        <ele>608.60101318359</ele>
        <time>2009-08-27T09:40:43Z</time>
      </trkpt>
      <trkpt lat="45.30667" lon="4.6634">
        <ele>607.00701904297</ele>
        <time>2009-08-27T09:40:46Z</time>
      </trkpt>
      <trkpt lat="45.30699" lon="4.66331">
        <ele>605.44598388672</ele>
        <time>2009-08-27T09:40:49Z</time>
      </trkpt>
      <trkpt lat="45.307" lon="4.66278">
        <ele>604.69897460938</ele>
        <time>2009-08-27T09:40:53Z</time>
      </trkpt>
      <trkpt lat="45.30676" lon="4.66252">
        <ele>604.46398925781</ele>
        <time>2009-08-27T09:40:56Z</time>
      </trkpt>
      <trkpt lat="45.30564" lon="4.66154">
        <ele>601.8330078125</ele>
        <time>2009-08-27T09:41:10Z</time>
      </trkpt>
      <trkpt lat="45.30533" lon="4.66103">
        <ele>600.7080078125</ele>
        <time>2009-08-27T09:41:15Z</time>
      </trkpt>
      <trkpt lat="45.30528" lon="4.66038">
        <ele>599.65997314453</ele>
        <time>2009-08-27T09:41:20Z</time>
      </trkpt>
      <trkpt lat="45.30537" lon="4.65985">
        <ele>598.31597900391</ele>
        <time>2009-08-27T09:41:24Z</time>
      </trkpt>
      <trkpt lat="45.30566" lon="4.65934">
        <ele>598.01898193359</ele>
        <time>2009-08-27T09:41:29Z</time>
      </trkpt>
      <trkpt lat="45.30587" lon="4.65909">
        <ele>597.00402832031</ele>
        <time>2009-08-27T09:41:32Z</time>
      </trkpt>
      <trkpt lat="45.30602" lon="4.65834">
        <ele>594.73400878906</ele>
        <time>2009-08-27T09:41:38Z</time>
      </trkpt>
      <trkpt lat="45.30598" lon="4.6582">
        <ele>594.42602539062</ele>
        <time>2009-08-27T09:41:39Z</time>
      </trkpt>
      <trkpt lat="45.3058" lon="4.65724">
        <ele>592.65197753906</ele>
        <time>2009-08-27T09:41:46Z</time>
      </trkpt>
      <trkpt lat="45.30589" lon="4.65656">
        <ele>591.76000976562</ele>
        <time>2009-08-27T09:41:51Z</time>
      </trkpt>
      <trkpt lat="45.30592" lon="4.65615">
        <ele>590.38098144531</ele>
        <time>2009-08-27T09:41:54Z</time>
      </trkpt>
      <trkpt lat="45.30594" lon="4.65601">
        <ele>590.26300048828</ele>
        <time>2009-08-27T09:41:55Z</time>
      </trkpt>
      <trkpt lat="45.30619" lon="4.6553">
        <ele>589.35699462891</ele>
        <time>2009-08-27T09:42:01Z</time>
      </trkpt>
      <trkpt lat="45.307" lon="4.65452">
        <ele>586.92999267578</ele>
        <time>2009-08-27T09:42:11Z</time>
      </trkpt>
      <trkpt lat="45.30797" lon="4.65362">
        <ele>584.49597167969</ele>
        <time>2009-08-27T09:42:23Z</time>
      </trkpt>
      <trkpt lat="45.30806" lon="4.65356">
        <ele>584.458984375</ele>
        <time>2009-08-27T09:42:24Z</time>
      </trkpt>
      <trkpt lat="45.30837" lon="4.65297">
        <ele>584.21600341797</ele>
        <time>2009-08-27T09:42:30Z</time>
      </trkpt>
      <trkpt lat="45.30902" lon="4.65199">
        <ele>585.14599609375</ele>
        <time>2009-08-27T09:42:42Z</time>
      </trkpt>
      <trkpt lat="45.30944" lon="4.65161">
        <ele>586.30798339844</ele>
        <time>2009-08-27T09:42:49Z</time>
      </trkpt>
      <trkpt lat="45.31022" lon="4.65089">
        <ele>588.23999023438</ele>
        <time>2009-08-27T09:43:03Z</time>
      </trkpt>
      <trkpt lat="45.31125" lon="4.64994">
        <ele>588.0830078125</ele>
        <time>2009-08-27T09:43:21Z</time>
      </trkpt>
      <trkpt lat="45.31251" lon="4.64879">
        <ele>588.42199707031</ele>
        <time>2009-08-27T09:43:42Z</time>
      </trkpt>
      <trkpt lat="45.31344" lon="4.64786">
        <ele>590.60302734375</ele>
        <time>2009-08-27T09:44:00Z</time>
      </trkpt>
      <trkpt lat="45.31427" lon="4.64684">
        <ele>593.18499755859</ele>
        <time>2009-08-27T09:44:19Z</time>
      </trkpt>
      <trkpt lat="45.31509" lon="4.64565">
        <ele>595.45202636719</ele>
        <time>2009-08-27T09:44:39Z</time>
      </trkpt>
      <trkpt lat="45.31599" lon="4.64447">
        <ele>595.95501708984</ele>
        <time>2009-08-27T09:44:59Z</time>
      </trkpt>
      <trkpt lat="45.31688" lon="4.64399">
        <ele>592.34197998047</ele>
        <time>2009-08-27T09:45:11Z</time>
      </trkpt>
      <trkpt lat="45.31782" lon="4.64348">
        <ele>588.64501953125</ele>
        <time>2009-08-27T09:45:22Z</time>
      </trkpt>
      <trkpt lat="45.3181" lon="4.64274">
        <ele>586.07598876953</ele>
        <time>2009-08-27T09:45:29Z</time>
      </trkpt>
      <trkpt lat="45.31796" lon="4.64236">
        <ele>584.94299316406</ele>
        <time>2009-08-27T09:45:32Z</time>
      </trkpt>
      <trkpt lat="45.31748" lon="4.64114">
        <ele>580.92999267578</ele>
        <time>2009-08-27T09:45:41Z</time>
      </trkpt>
      <trkpt lat="45.31741" lon="4.64066">
        <ele>579.62799072266</ele>
        <time>2009-08-27T09:45:44Z</time>
      </trkpt>
      <trkpt lat="45.31737" lon="4.64017">
        <ele>578.27001953125</ele>
        <time>2009-08-27T09:45:47Z</time>
      </trkpt>
      <trkpt lat="45.31723" lon="4.63854">
        <ele>573.85797119141</ele>
        <time>2009-08-27T09:45:57Z</time>
      </trkpt>
      <trkpt lat="45.31721" lon="4.63803">
        <ele>572.48797607422</ele>
        <time>2009-08-27T09:46:00Z</time>
      </trkpt>
      <trkpt lat="45.31723" lon="4.63702">
        <ele>569.53100585938</ele>
        <time>2009-08-27T09:46:06Z</time>
      </trkpt>
      <trkpt lat="45.3174" lon="4.63623">
        <ele>568.04400634766</ele>
        <time>2009-08-27T09:46:11Z</time>
      </trkpt>
      <trkpt lat="45.31776" lon="4.63539">
        <ele>565.46099853516</ele>
        <time>2009-08-27T09:46:17Z</time>
      </trkpt>
      <trkpt lat="45.31815" lon="4.63428">
        <ele>562.02899169922</ele>
        <time>2009-08-27T09:46:25Z</time>
      </trkpt>
      <trkpt lat="45.3182" lon="4.63414">
        <ele>561.77001953125</ele>
        <time>2009-08-27T09:46:26Z</time>
      </trkpt>
      <trkpt lat="45.31837" lon="4.63359">
        <ele>560.52099609375</ele>
        <time>2009-08-27T09:46:30Z</time>
      </trkpt>
      <trkpt lat="45.31841" lon="4.63316">
        <ele>559.72302246094</ele>
        <time>2009-08-27T09:46:33Z</time>
      </trkpt>
      <trkpt lat="45.31849" lon="4.63277">
        <ele>559.58099365234</ele>
        <time>2009-08-27T09:46:36Z</time>
      </trkpt>
      <trkpt lat="45.31866" lon="4.63159">
        <ele>560.67297363281</ele>
        <time>2009-08-27T09:46:45Z</time>
      </trkpt>
      <trkpt lat="45.31883" lon="4.63018">
        <ele>564.18499755859</ele>
        <time>2009-08-27T09:46:59Z</time>
      </trkpt>
      <trkpt lat="45.31897" lon="4.629">
        <ele>567.27600097656</ele>
        <time>2009-08-27T09:47:13Z</time>
      </trkpt>
      <trkpt lat="45.3189" lon="4.62774">
        <ele>568.24597167969</ele>
        <time>2009-08-27T09:47:27Z</time>
      </trkpt>
      <trkpt lat="45.31902" lon="4.62655">
        <ele>569.44097900391</ele>
        <time>2009-08-27T09:47:39Z</time>
      </trkpt>
      <trkpt lat="45.31924" lon="4.62568">
        <ele>573.53900146484</ele>
        <time>2009-08-27T09:47:52Z</time>
      </trkpt>
      <trkpt lat="45.31951" lon="4.62519">
        <ele>575.73999023438</ele>
        <time>2009-08-27T09:48:04Z</time>
      </trkpt>
      <trkpt lat="45.3195" lon="4.62496">
        <ele>575.85498046875</ele>
        <time>2009-08-27T09:48:08Z</time>
      </trkpt>
      <trkpt lat="45.31947" lon="4.6246">
        <ele>577.416015625</ele>
        <time>2009-08-27T09:48:14Z</time>
      </trkpt>
      <trkpt lat="45.31974" lon="4.62363">
        <ele>580.68402099609</ele>
        <time>2009-08-27T09:48:30Z</time>
      </trkpt>
      <trkpt lat="45.32012" lon="4.62241">
        <ele>581.79400634766</ele>
        <time>2009-08-27T09:48:47Z</time>
      </trkpt>
      <trkpt lat="45.32067" lon="4.62067">
        <ele>583.96398925781</ele>
        <time>2009-08-27T09:49:08Z</time>
      </trkpt>
      <trkpt lat="45.32103" lon="4.61892">
        <ele>584.89697265625</ele>
        <time>2009-08-27T09:49:26Z</time>
      </trkpt>
      <trkpt lat="45.32118" lon="4.61796">
        <ele>584.52899169922</ele>
        <time>2009-08-27T09:49:35Z</time>
      </trkpt>
      <trkpt lat="45.32146" lon="4.61728">
        <ele>584.87298583984</ele>
        <time>2009-08-27T09:49:44Z</time>
      </trkpt>
      <trkpt lat="45.32158" lon="4.61703">
        <ele>585.02801513672</ele>
        <time>2009-08-27T09:49:48Z</time>
      </trkpt>
      <trkpt lat="45.32206" lon="4.61625">
        <ele>584.90698242188</ele>
        <time>2009-08-27T09:50:01Z</time>
      </trkpt>
      <trkpt lat="45.32214" lon="4.61613">
        <ele>584.85101318359</ele>
        <time>2009-08-27T09:50:03Z</time>
      </trkpt>
      <trkpt lat="45.32216" lon="4.61576">
        <ele>585.09997558594</ele>
        <time>2009-08-27T09:50:08Z</time>
      </trkpt>
      <trkpt lat="45.32202" lon="4.61525">
        <ele>586.01599121094</ele>
        <time>2009-08-27T09:50:15Z</time>
      </trkpt>
      <trkpt lat="45.3219" lon="4.61486">
        <ele>587.97998046875</ele>
        <time>2009-08-27T09:50:21Z</time>
      </trkpt>
      <trkpt lat="45.32198" lon="4.6146">
        <ele>588.72998046875</ele>
        <time>2009-08-27T09:50:26Z</time>
      </trkpt>
      <trkpt lat="45.32206" lon="4.61455">
        <ele>589.09802246094</ele>
        <time>2009-08-27T09:50:28Z</time>
      </trkpt>
      <trkpt lat="45.32218" lon="4.61447">
        <ele>589.35198974609</ele>
        <time>2009-08-27T09:50:31Z</time>
      </trkpt>
      <trkpt lat="45.32254" lon="4.61413">
        <ele>591.19500732422</ele>
        <time>2009-08-27T09:50:40Z</time>
      </trkpt>
      <trkpt lat="45.32266" lon="4.61391">
        <ele>592.2919921875</ele>
        <time>2009-08-27T09:50:45Z</time>
      </trkpt>
      <trkpt lat="45.32269" lon="4.6139">
        <ele>592.51397705078</ele>
        <time>2009-08-27T09:50:48Z</time>
      </trkpt>
      <trkpt lat="45.32275" lon="4.61398">
        <ele>592.43200683594</ele>
        <time>2009-08-27T09:51:34Z</time>
      </trkpt>
      <trkpt lat="45.32277" lon="4.61398">
        <ele>592.56799316406</ele>
        <time>2009-08-27T09:51:35Z</time>
      </trkpt>
      <trkpt lat="45.32313" lon="4.61356">
        <ele>594.875</ele>
        <time>2009-08-27T09:51:48Z</time>
      </trkpt>
      <trkpt lat="45.32366" lon="4.61294">
        <ele>598.39300537109</ele>
        <time>2009-08-27T09:52:05Z</time>
      </trkpt>
      <trkpt lat="45.32392" lon="4.61266">
        <ele>600.36401367188</ele>
        <time>2009-08-27T09:52:13Z</time>
      </trkpt>
      <trkpt lat="45.32431" lon="4.61224">
        <ele>602.64202880859</ele>
        <time>2009-08-27T09:52:25Z</time>
      </trkpt>
      <trkpt lat="45.32485" lon="4.61139">
        <ele>606.72100830078</ele>
        <time>2009-08-27T09:52:46Z</time>
      </trkpt>
      <trkpt lat="45.32476" lon="4.61094">
        <ele>609.15100097656</ele>
        <time>2009-08-27T09:52:56Z</time>
      </trkpt>
      <trkpt lat="45.32428" lon="4.61077">
        <ele>611.09197998047</ele>
        <time>2009-08-27T09:53:08Z</time>
      </trkpt>
      <trkpt lat="45.32412" lon="4.61073">
        <ele>613.04699707031</ele>
        <time>2009-08-27T09:53:12Z</time>
      </trkpt>
      <trkpt lat="45.32353" lon="4.6105">
        <ele>616.61798095703</ele>
        <time>2009-08-27T09:53:28Z</time>
      </trkpt>
      <trkpt lat="45.32309" lon="4.61001">
        <ele>620.42401123047</ele>
        <time>2009-08-27T09:53:43Z</time>
      </trkpt>
      <trkpt lat="45.32312" lon="4.60941">
        <ele>624.64801025391</ele>
        <time>2009-08-27T09:53:57Z</time>
      </trkpt>
      <trkpt lat="45.32352" lon="4.60866">
        <ele>629.83197021484</ele>
        <time>2009-08-27T09:54:17Z</time>
      </trkpt>
      <trkpt lat="45.32399" lon="4.60812">
        <ele>634.23602294922</ele>
        <time>2009-08-27T09:54:36Z</time>
      </trkpt>
      <trkpt lat="45.3245" lon="4.60782">
        <ele>638.15100097656</ele>
        <time>2009-08-27T09:54:53Z</time>
      </trkpt>
      <trkpt lat="45.32501" lon="4.60767">
        <ele>641.8759765625</ele>
        <time>2009-08-27T09:55:09Z</time>
      </trkpt>
      <trkpt lat="45.32555" lon="4.60771">
        <ele>645.66998291016</ele>
        <time>2009-08-27T09:55:26Z</time>
      </trkpt>
      <trkpt lat="45.32604" lon="4.60749">
        <ele>649.4990234375</ele>
        <time>2009-08-27T09:55:42Z</time>
      </trkpt>
      <trkpt lat="45.32634" lon="4.60696">
        <ele>653.04699707031</ele>
        <time>2009-08-27T09:55:57Z</time>
      </trkpt>
      <trkpt lat="45.32637" lon="4.60607">
        <ele>656.90197753906</ele>
        <time>2009-08-27T09:56:15Z</time>
      </trkpt>
      <trkpt lat="45.32657" lon="4.60566">
        <ele>659.84997558594</ele>
        <time>2009-08-27T09:56:26Z</time>
      </trkpt>
      <trkpt lat="45.32703" lon="4.60546">
        <ele>663.75799560547</ele>
        <time>2009-08-27T09:56:40Z</time>
      </trkpt>
      <trkpt lat="45.32749" lon="4.60527">
        <ele>667.22802734375</ele>
        <time>2009-08-27T09:56:53Z</time>
      </trkpt>
      <trkpt lat="45.32782" lon="4.60514">
        <ele>669.96697998047</ele>
        <time>2009-08-27T09:57:03Z</time>
      </trkpt>
      <trkpt lat="45.32816" lon="4.60497">
        <ele>673.02502441406</ele>
        <time>2009-08-27T09:57:15Z</time>
      </trkpt>
      <trkpt lat="45.32853" lon="4.60494">
        <ele>675.50299072266</ele>
        <time>2009-08-27T09:57:27Z</time>
      </trkpt>
      <trkpt lat="45.32896" lon="4.60507">
        <ele>678.98400878906</ele>
        <time>2009-08-27T09:57:42Z</time>
      </trkpt>
      <trkpt lat="45.32952" lon="4.6051">
        <ele>682.93597412109</ele>
        <time>2009-08-27T09:58:00Z</time>
      </trkpt>
      <trkpt lat="45.32972" lon="4.60473">
        <ele>684.95501708984</ele>
        <time>2009-08-27T09:58:10Z</time>
      </trkpt>
      <trkpt lat="45.33001" lon="4.60419">
        <ele>688.50201416016</ele>
        <time>2009-08-27T09:58:24Z</time>
      </trkpt>
      <trkpt lat="45.33052" lon="4.60362">
        <ele>692.93103027344</ele>
        <time>2009-08-27T09:58:43Z</time>
      </trkpt>
      <trkpt lat="45.33101" lon="4.60338">
        <ele>696.43298339844</ele>
        <time>2009-08-27T09:58:59Z</time>
      </trkpt>
      <trkpt lat="45.33139" lon="4.60326">
        <ele>699.12298583984</ele>
        <time>2009-08-27T09:59:10Z</time>
      </trkpt>
      <trkpt lat="45.33181" lon="4.60273">
        <ele>703.18902587891</ele>
        <time>2009-08-27T09:59:25Z</time>
      </trkpt>
      <trkpt lat="45.33199" lon="4.60192">
        <ele>706.75201416016</ele>
        <time>2009-08-27T09:59:41Z</time>
      </trkpt>
      <trkpt lat="45.33206" lon="4.60136">
        <ele>709.28601074219</ele>
        <time>2009-08-27T09:59:53Z</time>
      </trkpt>
      <trkpt lat="45.33215" lon="4.6007">
        <ele>712.71997070312</ele>
        <time>2009-08-27T10:00:08Z</time>
      </trkpt>
      <trkpt lat="45.33217" lon="4.60009">
        <ele>715.83197021484</ele>
        <time>2009-08-27T10:00:22Z</time>
      </trkpt>
      <trkpt lat="45.3321" lon="4.59955">
        <ele>718.40197753906</ele>
        <time>2009-08-27T10:00:33Z</time>
      </trkpt>
      <trkpt lat="45.33214" lon="4.59889">
        <ele>721.40197753906</ele>
        <time>2009-08-27T10:00:47Z</time>
      </trkpt>
      <trkpt lat="45.33226" lon="4.59813">
        <ele>725.38897705078</ele>
        <time>2009-08-27T10:01:03Z</time>
      </trkpt>
      <trkpt lat="45.33221" lon="4.59736">
        <ele>729.31597900391</ele>
        <time>2009-08-27T10:01:20Z</time>
      </trkpt>
      <trkpt lat="45.33222" lon="4.59661">
        <ele>731.79901123047</ele>
        <time>2009-08-27T10:01:35Z</time>
      </trkpt>
      <trkpt lat="45.33257" lon="4.59655">
        <ele>734.0009765625</ele>
        <time>2009-08-27T10:01:45Z</time>
      </trkpt>
      <trkpt lat="45.333" lon="4.5971">
        <ele>737.25701904297</ele>
        <time>2009-08-27T10:02:01Z</time>
      </trkpt>
      <trkpt lat="45.33331" lon="4.59781">
        <ele>741.11297607422</ele>
        <time>2009-08-27T10:02:18Z</time>
      </trkpt>
      <trkpt lat="45.33352" lon="4.59863">
        <ele>745.02697753906</ele>
        <time>2009-08-27T10:02:36Z</time>
      </trkpt>
      <trkpt lat="45.3339" lon="4.5996">
        <ele>750.58898925781</ele>
        <time>2009-08-27T10:02:58Z</time>
      </trkpt>
      <trkpt lat="45.33425" lon="4.60035">
        <ele>754.51599121094</ele>
        <time>2009-08-27T10:03:16Z</time>
      </trkpt>
      <trkpt lat="45.33443" lon="4.60089">
        <ele>757.72302246094</ele>
        <time>2009-08-27T10:03:30Z</time>
      </trkpt>
      <trkpt lat="45.33445" lon="4.60144">
        <ele>760.291015625</ele>
        <time>2009-08-27T10:03:43Z</time>
      </trkpt>
      <trkpt lat="45.33456" lon="4.60198">
        <ele>762.37200927734</ele>
        <time>2009-08-27T10:03:56Z</time>
      </trkpt>
      <trkpt lat="45.33474" lon="4.60243">
        <ele>765.18499755859</ele>
        <time>2009-08-27T10:04:08Z</time>
      </trkpt>
      <trkpt lat="45.33512" lon="4.60267">
        <ele>767.87799072266</ele>
        <time>2009-08-27T10:04:21Z</time>
      </trkpt>
      <trkpt lat="45.33551" lon="4.60231">
        <ele>770.54699707031</ele>
        <time>2009-08-27T10:04:34Z</time>
      </trkpt>
      <trkpt lat="45.33598" lon="4.60155">
        <ele>775.83697509766</ele>
        <time>2009-08-27T10:04:54Z</time>
      </trkpt>
      <trkpt lat="45.33634" lon="4.60096">
        <ele>779.63897705078</ele>
        <time>2009-08-27T10:05:12Z</time>
      </trkpt>
      <trkpt lat="45.33672" lon="4.6009">
        <ele>782.01397705078</ele>
        <time>2009-08-27T10:05:24Z</time>
      </trkpt>
      <trkpt lat="45.33719" lon="4.6015">
        <ele>785.52301025391</ele>
        <time>2009-08-27T10:05:41Z</time>
      </trkpt>
      <trkpt lat="45.33746" lon="4.60241">
        <ele>789.83502197266</ele>
        <time>2009-08-27T10:05:59Z</time>
      </trkpt>
      <trkpt lat="45.33762" lon="4.60267">
        <ele>791.11901855469</ele>
        <time>2009-08-27T10:06:05Z</time>
      </trkpt>
      <trkpt lat="45.33783" lon="4.60281">
        <ele>792.81597900391</ele>
        <time>2009-08-27T10:06:11Z</time>
      </trkpt>
      <trkpt lat="45.33816" lon="4.60258">
        <ele>795.39099121094</ele>
        <time>2009-08-27T10:06:21Z</time>
      </trkpt>
      <trkpt lat="45.33818" lon="4.60232">
        <ele>797.13098144531</ele>
        <time>2009-08-27T10:06:26Z</time>
      </trkpt>
      <trkpt lat="45.33836" lon="4.60222">
        <ele>798.32098388672</ele>
        <time>2009-08-27T10:06:33Z</time>
      </trkpt>
      <trkpt lat="45.33839" lon="4.6022">
        <ele>798.76599121094</ele>
        <time>2009-08-27T10:06:34Z</time>
      </trkpt>
      <trkpt lat="45.33876" lon="4.60166">
        <ele>803.10198974609</ele>
        <time>2009-08-27T10:06:52Z</time>
      </trkpt>
      <trkpt lat="45.33898" lon="4.60151">
        <ele>803.36999511719</ele>
        <time>2009-08-27T10:06:59Z</time>
      </trkpt>
      <trkpt lat="45.33939" lon="4.60103">
        <ele>803.97198486328</ele>
        <time>2009-08-27T10:07:10Z</time>
      </trkpt>
      <trkpt lat="45.33988" lon="4.60028">
        <ele>804.40002441406</ele>
        <time>2009-08-27T10:07:23Z</time>
      </trkpt>
      <trkpt lat="45.34" lon="4.59999">
        <ele>804.77502441406</ele>
        <time>2009-08-27T10:07:27Z</time>
      </trkpt>
      <trkpt lat="45.34029" lon="4.59919">
        <ele>804.48797607422</ele>
        <time>2009-08-27T10:07:37Z</time>
      </trkpt>
      <trkpt lat="45.3405" lon="4.59848">
        <ele>804.77600097656</ele>
        <time>2009-08-27T10:07:45Z</time>
      </trkpt>
      <trkpt lat="45.34052" lon="4.5976">
        <ele>805.10198974609</ele>
        <time>2009-08-27T10:07:54Z</time>
      </trkpt>
      <trkpt lat="45.34084" lon="4.59638">
        <ele>805.84399414062</ele>
        <time>2009-08-27T10:08:07Z</time>
      </trkpt>
      <trkpt lat="45.3413" lon="4.59599">
        <ele>806.27398681641</ele>
        <time>2009-08-27T10:08:15Z</time>
      </trkpt>
      <trkpt lat="45.34154" lon="4.59631">
        <ele>807.51000976562</ele>
        <time>2009-08-27T10:08:21Z</time>
      </trkpt>
      <trkpt lat="45.34156" lon="4.59645">
        <ele>807.71002197266</ele>
        <time>2009-08-27T10:08:23Z</time>
      </trkpt>
      <trkpt lat="45.34163" lon="4.5971">
        <ele>808.50897216797</ele>
        <time>2009-08-27T10:08:32Z</time>
      </trkpt>
      <trkpt lat="45.34169" lon="4.59737">
        <ele>808.53497314453</ele>
        <time>2009-08-27T10:08:36Z</time>
      </trkpt>
      <trkpt lat="45.34181" lon="4.5976">
        <ele>810.75201416016</ele>
        <time>2009-08-27T10:08:40Z</time>
      </trkpt>
      <trkpt lat="45.34184" lon="4.59764">
        <ele>810.78698730469</ele>
        <time>2009-08-27T10:08:41Z</time>
      </trkpt>
      <trkpt lat="45.34231" lon="4.59853">
        <ele>813.18701171875</ele>
        <time>2009-08-27T10:08:57Z</time>
      </trkpt>
      <trkpt lat="45.34248" lon="4.5993">
        <ele>815.69396972656</ele>
        <time>2009-08-27T10:09:09Z</time>
      </trkpt>
      <trkpt lat="45.34291" lon="4.59999">
        <ele>817.81701660156</ele>
        <time>2009-08-27T10:09:24Z</time>
      </trkpt>
      <trkpt lat="45.34317" lon="4.60013">
        <ele>819.02398681641</ele>
        <time>2009-08-27T10:09:30Z</time>
      </trkpt>
      <trkpt lat="45.3438" lon="4.60064">
        <ele>820.79400634766</ele>
        <time>2009-08-27T10:09:45Z</time>
      </trkpt>
      <trkpt lat="45.34406" lon="4.60156">
        <ele>822.57299804688</ele>
        <time>2009-08-27T10:09:59Z</time>
      </trkpt>
      <trkpt lat="45.34413" lon="4.60191">
        <ele>823.78601074219</ele>
        <time>2009-08-27T10:10:04Z</time>
      </trkpt>
      <trkpt lat="45.34402" lon="4.60298">
        <ele>826.27099609375</ele>
        <time>2009-08-27T10:10:21Z</time>
      </trkpt>
      <trkpt lat="45.34401" lon="4.60312">
        <ele>826.583984375</ele>
        <time>2009-08-27T10:10:23Z</time>
      </trkpt>
      <trkpt lat="45.344" lon="4.60332">
        <ele>827.07000732422</ele>
        <time>2009-08-27T10:10:26Z</time>
      </trkpt>
      <trkpt lat="45.34409" lon="4.60364">
        <ele>828.11798095703</ele>
        <time>2009-08-27T10:10:32Z</time>
      </trkpt>
      <trkpt lat="45.34449" lon="4.60405">
        <ele>829.21099853516</ele>
        <time>2009-08-27T10:10:45Z</time>
      </trkpt>
      <trkpt lat="45.34511" lon="4.60466">
        <ele>831.38397216797</ele>
        <time>2009-08-27T10:11:00Z</time>
      </trkpt>
      <trkpt lat="45.34533" lon="4.60474">
        <ele>832.56500244141</ele>
        <time>2009-08-27T10:11:05Z</time>
      </trkpt>
      <trkpt lat="45.34588" lon="4.60464">
        <ele>836.77801513672</ele>
        <time>2009-08-27T10:11:21Z</time>
      </trkpt>
      <trkpt lat="45.34628" lon="4.60424">
        <ele>839.66900634766</ele>
        <time>2009-08-27T10:11:36Z</time>
      </trkpt>
      <trkpt lat="45.34657" lon="4.60381">
        <ele>842.75500488281</ele>
        <time>2009-08-27T10:11:50Z</time>
      </trkpt>
      <trkpt lat="45.34657" lon="4.60337">
        <ele>844.48797607422</ele>
        <time>2009-08-27T10:12:02Z</time>
      </trkpt>
      <trkpt lat="45.34664" lon="4.60288">
        <ele>846.71197509766</ele>
        <time>2009-08-27T10:12:14Z</time>
      </trkpt>
      <trkpt lat="45.34697" lon="4.60276">
        <ele>849.30700683594</ele>
        <time>2009-08-27T10:12:25Z</time>
      </trkpt>
      <trkpt lat="45.34755" lon="4.60286">
        <ele>852.85101318359</ele>
        <time>2009-08-27T10:12:42Z</time>
      </trkpt>
      <trkpt lat="45.34804" lon="4.60315">
        <ele>856.48199462891</ele>
        <time>2009-08-27T10:12:58Z</time>
      </trkpt>
      <trkpt lat="45.34857" lon="4.60343">
        <ele>860.05798339844</ele>
        <time>2009-08-27T10:13:15Z</time>
      </trkpt>
      <trkpt lat="45.34905" lon="4.60373">
        <ele>863.37200927734</ele>
        <time>2009-08-27T10:13:31Z</time>
      </trkpt>
      <trkpt lat="45.34946" lon="4.60396">
        <ele>866.35900878906</ele>
        <time>2009-08-27T10:13:45Z</time>
      </trkpt>
      <trkpt lat="45.35002" lon="4.60393">
        <ele>869.89697265625</ele>
        <time>2009-08-27T10:14:02Z</time>
      </trkpt>
      <trkpt lat="45.35047" lon="4.60371">
        <ele>873.26202392578</ele>
        <time>2009-08-27T10:14:18Z</time>
      </trkpt>
      <trkpt lat="45.35049" lon="4.60371">
        <ele>873.28802490234</ele>
        <time>2009-08-27T10:14:20Z</time>
      </trkpt>
      <trkpt lat="45.35051" lon="4.60372">
        <ele>873.19396972656</ele>
        <time>2009-08-27T10:14:23Z</time>
      </trkpt>
      <trkpt lat="45.35051" lon="4.60371">
        <ele>874.66497802734</ele>
        <time>2009-08-27T10:20:10Z</time>
      </trkpt>
      <trkpt lat="45.3505" lon="4.60369">
        <ele>875.02099609375</ele>
        <time>2009-08-27T10:20:13Z</time>
      </trkpt>
      <trkpt lat="45.35051" lon="4.60365">
        <ele>874.98199462891</ele>
        <time>2009-08-27T10:20:20Z</time>
      </trkpt>
      <trkpt lat="45.3506" lon="4.60358">
        <ele>875.49798583984</ele>
        <time>2009-08-27T10:20:32Z</time>
      </trkpt>
      <trkpt lat="45.35081" lon="4.60341">
        <ele>876.83001708984</ele>
        <time>2009-08-27T10:20:44Z</time>
      </trkpt>
      <trkpt lat="45.35106" lon="4.60349">
        <ele>878.95300292969</ele>
        <time>2009-08-27T10:20:53Z</time>
      </trkpt>
      <trkpt lat="45.35128" lon="4.60365">
        <ele>880.52398681641</ele>
        <time>2009-08-27T10:21:01Z</time>
      </trkpt>
      <trkpt lat="45.35138" lon="4.60377">
        <ele>881.04400634766</ele>
        <time>2009-08-27T10:21:05Z</time>
      </trkpt>
      <trkpt lat="45.35149" lon="4.60393">
        <ele>882.26599121094</ele>
        <time>2009-08-27T10:21:10Z</time>
      </trkpt>
      <trkpt lat="45.35158" lon="4.6041">
        <ele>883.26098632812</ele>
        <time>2009-08-27T10:21:18Z</time>
      </trkpt>
      <trkpt lat="45.35163" lon="4.60414">
        <ele>885.041015625</ele>
        <time>2009-08-27T10:29:35Z</time>
      </trkpt>
      <trkpt lat="45.35183" lon="4.60433">
        <ele>886.20001220703</ele>
        <time>2009-08-27T10:29:46Z</time>
      </trkpt>
      <trkpt lat="45.35195" lon="4.60442">
        <ele>887.02099609375</ele>
        <time>2009-08-27T10:29:51Z</time>
      </trkpt>
      <trkpt lat="45.35247" lon="4.60459">
        <ele>890.43103027344</ele>
        <time>2009-08-27T10:30:09Z</time>
      </trkpt>
      <trkpt lat="45.35281" lon="4.60464">
        <ele>892.70001220703</ele>
        <time>2009-08-27T10:30:20Z</time>
      </trkpt>
      <trkpt lat="45.353" lon="4.60466">
        <ele>893.72601318359</ele>
        <time>2009-08-27T10:30:26Z</time>
      </trkpt>
      <trkpt lat="45.35324" lon="4.60468">
        <ele>895.71697998047</ele>
        <time>2009-08-27T10:30:34Z</time>
      </trkpt>
      <trkpt lat="45.35373" lon="4.60482">
        <ele>898.71801757812</ele>
        <time>2009-08-27T10:30:50Z</time>
      </trkpt>
      <trkpt lat="45.35408" lon="4.60493">
        <ele>901.20202636719</ele>
        <time>2009-08-27T10:31:02Z</time>
      </trkpt>
      <trkpt lat="45.35441" lon="4.60462">
        <ele>903.92901611328</ele>
        <time>2009-08-27T10:31:14Z</time>
      </trkpt>
      <trkpt lat="45.35467" lon="4.60431">
        <ele>906.02801513672</ele>
        <time>2009-08-27T10:31:24Z</time>
      </trkpt>
      <trkpt lat="45.35522" lon="4.60373">
        <ele>910.34497070312</ele>
        <time>2009-08-27T10:31:45Z</time>
      </trkpt>
      <trkpt lat="45.3557" lon="4.60325">
        <ele>914.07000732422</ele>
        <time>2009-08-27T10:32:03Z</time>
      </trkpt>
      <trkpt lat="45.35624" lon="4.60278">
        <ele>917.97998046875</ele>
        <time>2009-08-27T10:32:22Z</time>
      </trkpt>
      <trkpt lat="45.35687" lon="4.60232">
        <ele>922.46197509766</ele>
        <time>2009-08-27T10:32:42Z</time>
      </trkpt>
      <trkpt lat="45.35743" lon="4.60168">
        <ele>926.625</ele>
        <time>2009-08-27T10:33:02Z</time>
      </trkpt>
      <trkpt lat="45.35804" lon="4.60091">
        <ele>931.79302978516</ele>
        <time>2009-08-27T10:33:24Z</time>
      </trkpt>
      <trkpt lat="45.35867" lon="4.60052">
        <ele>936.40600585938</ele>
        <time>2009-08-27T10:33:43Z</time>
      </trkpt>
      <trkpt lat="45.35934" lon="4.60001">
        <ele>941.22399902344</ele>
        <time>2009-08-27T10:34:04Z</time>
      </trkpt>
      <trkpt lat="45.35992" lon="4.59953">
        <ele>945.49102783203</ele>
        <time>2009-08-27T10:34:23Z</time>
      </trkpt>
      <trkpt lat="45.36051" lon="4.59939">
        <ele>949.79998779297</ele>
        <time>2009-08-27T10:34:40Z</time>
      </trkpt>
      <trkpt lat="45.36102" lon="4.59944">
        <ele>953.19799804688</ele>
        <time>2009-08-27T10:34:54Z</time>
      </trkpt>
      <trkpt lat="45.36165" lon="4.59955">
        <ele>957.39599609375</ele>
        <time>2009-08-27T10:35:12Z</time>
      </trkpt>
      <trkpt lat="45.36219" lon="4.59949">
        <ele>961.14099121094</ele>
        <time>2009-08-27T10:35:28Z</time>
      </trkpt>
      <trkpt lat="45.36273" lon="4.59983">
        <ele>964.71801757812</ele>
        <time>2009-08-27T10:35:44Z</time>
      </trkpt>
      <trkpt lat="45.36334" lon="4.60015">
        <ele>967.47100830078</ele>
        <time>2009-08-27T10:36:01Z</time>
      </trkpt>
      <trkpt lat="45.36364" lon="4.60065">
        <ele>968.95098876953</ele>
        <time>2009-08-27T10:36:13Z</time>
      </trkpt>
      <trkpt lat="45.36389" lon="4.60136">
        <ele>970.65802001953</ele>
        <time>2009-08-27T10:36:26Z</time>
      </trkpt>
      <trkpt lat="45.36418" lon="4.60182">
        <ele>972.04901123047</ele>
        <time>2009-08-27T10:36:36Z</time>
      </trkpt>
      <trkpt lat="45.36473" lon="4.60255">
        <ele>975.34997558594</ele>
        <time>2009-08-27T10:36:54Z</time>
      </trkpt>
      <trkpt lat="45.3652" lon="4.60333">
        <ele>980.56097412109</ele>
        <time>2009-08-27T10:37:15Z</time>
      </trkpt>
      <trkpt lat="45.36562" lon="4.60358">
        <ele>983.75201416016</ele>
        <time>2009-08-27T10:37:29Z</time>
      </trkpt>
      <trkpt lat="45.36602" lon="4.60357">
        <ele>986.33599853516</ele>
        <time>2009-08-27T10:37:40Z</time>
      </trkpt>
      <trkpt lat="45.36635" lon="4.60333">
        <ele>988.88299560547</ele>
        <time>2009-08-27T10:37:51Z</time>
      </trkpt>
      <trkpt lat="45.36666" lon="4.60282">
        <ele>992.12701416016</ele>
        <time>2009-08-27T10:38:04Z</time>
      </trkpt>
      <trkpt lat="45.36701" lon="4.60232">
        <ele>995.31799316406</ele>
        <time>2009-08-27T10:38:18Z</time>
      </trkpt>
      <trkpt lat="45.36729" lon="4.60204">
        <ele>997.34197998047</ele>
        <time>2009-08-27T10:38:28Z</time>
      </trkpt>
      <trkpt lat="45.36763" lon="4.60172">
        <ele>1000.2540283203</ele>
        <time>2009-08-27T10:38:40Z</time>
      </trkpt>
      <trkpt lat="45.36801" lon="4.60147">
        <ele>1003.1870117188</ele>
        <time>2009-08-27T10:38:53Z</time>
      </trkpt>
      <trkpt lat="45.36832" lon="4.60118">
        <ele>1005.424987793</ele>
        <time>2009-08-27T10:39:05Z</time>
      </trkpt>
      <trkpt lat="45.36866" lon="4.60094">
        <ele>1008.208984375</ele>
        <time>2009-08-27T10:39:16Z</time>
      </trkpt>
      <trkpt lat="45.36905" lon="4.60068">
        <ele>1011.1079711914</ele>
        <time>2009-08-27T10:39:29Z</time>
      </trkpt>
      <trkpt lat="45.36934" lon="4.60042">
        <ele>1013.4470214844</ele>
        <time>2009-08-27T10:39:42Z</time>
      </trkpt>
      <trkpt lat="45.36963" lon="4.60013">
        <ele>1015.8779907227</ele>
        <time>2009-08-27T10:39:54Z</time>
      </trkpt>
      <trkpt lat="45.36988" lon="4.59983">
        <ele>1017.9819946289</ele>
        <time>2009-08-27T10:40:05Z</time>
      </trkpt>
      <trkpt lat="45.37019" lon="4.59958">
        <ele>1019.9710083008</ele>
        <time>2009-08-27T10:40:15Z</time>
      </trkpt>
      <trkpt lat="45.37054" lon="4.59931">
        <ele>1022.6979980469</ele>
        <time>2009-08-27T10:40:27Z</time>
      </trkpt>
      <trkpt lat="45.37089" lon="4.59902">
        <ele>1025.2139892578</ele>
        <time>2009-08-27T10:40:38Z</time>
      </trkpt>
      <trkpt lat="45.37114" lon="4.59857">
        <ele>1028.1639404297</ele>
        <time>2009-08-27T10:40:51Z</time>
      </trkpt>
      <trkpt lat="45.37123" lon="4.5983">
        <ele>1029.4119873047</ele>
        <time>2009-08-27T10:40:58Z</time>
      </trkpt>
      <trkpt lat="45.3714" lon="4.59776">
        <ele>1032.0090332031</ele>
        <time>2009-08-27T10:41:10Z</time>
      </trkpt>
      <trkpt lat="45.3717" lon="4.59747">
        <ele>1034.7299804688</ele>
        <time>2009-08-27T10:41:22Z</time>
      </trkpt>
      <trkpt lat="45.37178" lon="4.59752">
        <ele>1035.1550292969</ele>
        <time>2009-08-27T10:41:27Z</time>
      </trkpt>
      <trkpt lat="45.37181" lon="4.5975">
        <ele>1036.0260009766</ele>
        <time>2009-08-27T10:42:29Z</time>
      </trkpt>
      <trkpt lat="45.37183" lon="4.59751">
        <ele>1036.0799560547</ele>
        <time>2009-08-27T10:42:30Z</time>
      </trkpt>
      <trkpt lat="45.37219" lon="4.59743">
        <ele>1038.4129638672</ele>
        <time>2009-08-27T10:42:41Z</time>
      </trkpt>
      <trkpt lat="45.3728" lon="4.59726">
        <ele>1042.0909423828</ele>
        <time>2009-08-27T10:42:58Z</time>
      </trkpt>
      <trkpt lat="45.3731" lon="4.59746">
        <ele>1044.2819824219</ele>
        <time>2009-08-27T10:43:07Z</time>
      </trkpt>
      <trkpt lat="45.37339" lon="4.59748">
        <ele>1046.5369873047</ele>
        <time>2009-08-27T10:43:15Z</time>
      </trkpt>
      <trkpt lat="45.3741" lon="4.59723">
        <ele>1051.3979492188</ele>
        <time>2009-08-27T10:43:35Z</time>
      </trkpt>
      <trkpt lat="45.37484" lon="4.59695">
        <ele>1056.2939453125</ele>
        <time>2009-08-27T10:43:56Z</time>
      </trkpt>
      <trkpt lat="45.37544" lon="4.59663">
        <ele>1060.4100341797</ele>
        <time>2009-08-27T10:44:13Z</time>
      </trkpt>
      <trkpt lat="45.37598" lon="4.5963">
        <ele>1064.2640380859</ele>
        <time>2009-08-27T10:44:29Z</time>
      </trkpt>
      <trkpt lat="45.37611" lon="4.5966">
        <ele>1066.1750488281</ele>
        <time>2009-08-27T10:44:37Z</time>
      </trkpt>
      <trkpt lat="45.37598" lon="4.59733">
        <ele>1069.6999511719</ele>
        <time>2009-08-27T10:44:53Z</time>
      </trkpt>
      <trkpt lat="45.376" lon="4.59833">
        <ele>1074.1760253906</ele>
        <time>2009-08-27T10:45:14Z</time>
      </trkpt>
      <trkpt lat="45.37607" lon="4.59906">
        <ele>1077.4479980469</ele>
        <time>2009-08-27T10:45:29Z</time>
      </trkpt>
      <trkpt lat="45.37619" lon="4.59969">
        <ele>1080.6500244141</ele>
        <time>2009-08-27T10:45:43Z</time>
      </trkpt>
      <trkpt lat="45.37655" lon="4.60027">
        <ele>1084.4370117188</ele>
        <time>2009-08-27T10:45:59Z</time>
      </trkpt>
      <trkpt lat="45.37701" lon="4.60062">
        <ele>1087.4060058594</ele>
        <time>2009-08-27T10:46:15Z</time>
      </trkpt>
      <trkpt lat="45.3774" lon="4.60076">
        <ele>1090.7640380859</ele>
        <time>2009-08-27T10:46:28Z</time>
      </trkpt>
      <trkpt lat="45.3778" lon="4.60078">
        <ele>1093.5620117188</ele>
        <time>2009-08-27T10:46:41Z</time>
      </trkpt>
      <trkpt lat="45.3782" lon="4.60078">
        <ele>1095.9949951172</ele>
        <time>2009-08-27T10:46:53Z</time>
      </trkpt>
      <trkpt lat="45.37867" lon="4.60086">
        <ele>1098.9599609375</ele>
        <time>2009-08-27T10:47:07Z</time>
      </trkpt>
      <trkpt lat="45.37875" lon="4.60133">
        <ele>1101.1619873047</ele>
        <time>2009-08-27T10:47:18Z</time>
      </trkpt>
      <trkpt lat="45.3788" lon="4.60201">
        <ele>1104.5970458984</ele>
        <time>2009-08-27T10:47:33Z</time>
      </trkpt>
      <trkpt lat="45.37901" lon="4.60281">
        <ele>1107.7729492188</ele>
        <time>2009-08-27T10:47:50Z</time>
      </trkpt>
      <trkpt lat="45.37928" lon="4.6033">
        <ele>1110.6190185547</ele>
        <time>2009-08-27T10:48:04Z</time>
      </trkpt>
      <trkpt lat="45.37955" lon="4.60362">
        <ele>1112.7469482422</ele>
        <time>2009-08-27T10:48:15Z</time>
      </trkpt>
      <trkpt lat="45.38004" lon="4.60395">
        <ele>1116.3499755859</ele>
        <time>2009-08-27T10:48:32Z</time>
      </trkpt>
      <trkpt lat="45.38064" lon="4.60405">
        <ele>1120.1899414062</ele>
        <time>2009-08-27T10:48:50Z</time>
      </trkpt>
      <trkpt lat="45.38111" lon="4.60396">
        <ele>1123.45703125</ele>
        <time>2009-08-27T10:49:04Z</time>
      </trkpt>
      <trkpt lat="45.38162" lon="4.60375">
        <ele>1127.2230224609</ele>
        <time>2009-08-27T10:49:20Z</time>
      </trkpt>
      <trkpt lat="45.38206" lon="4.60353">
        <ele>1129.9320068359</ele>
        <time>2009-08-27T10:49:35Z</time>
      </trkpt>
      <trkpt lat="45.38228" lon="4.60346">
        <ele>1131.7159423828</ele>
        <time>2009-08-27T10:49:44Z</time>
      </trkpt>
      <trkpt lat="45.38248" lon="4.60382">
        <ele>1134.6850585938</ele>
        <time>2009-08-27T10:49:56Z</time>
      </trkpt>
      <trkpt lat="45.38257" lon="4.60457">
        <ele>1138.2209472656</ele>
        <time>2009-08-27T10:50:14Z</time>
      </trkpt>
      <trkpt lat="45.38272" lon="4.60536">
        <ele>1141.6850585938</ele>
        <time>2009-08-27T10:50:31Z</time>
      </trkpt>
      <trkpt lat="45.38292" lon="4.60623">
        <ele>1145.70703125</ele>
        <time>2009-08-27T10:50:50Z</time>
      </trkpt>
      <trkpt lat="45.38305" lon="4.60699">
        <ele>1149.1590576172</ele>
        <time>2009-08-27T10:51:07Z</time>
      </trkpt>
      <trkpt lat="45.38322" lon="4.60752">
        <ele>1151.8330078125</ele>
        <time>2009-08-27T10:51:21Z</time>
      </trkpt>
      <trkpt lat="45.38351" lon="4.60813">
        <ele>1155.1429443359</ele>
        <time>2009-08-27T10:51:38Z</time>
      </trkpt>
      <trkpt lat="45.38376" lon="4.60863">
        <ele>1158.2080078125</ele>
        <time>2009-08-27T10:51:53Z</time>
      </trkpt>
      <trkpt lat="45.38424" lon="4.60926">
        <ele>1162.1400146484</ele>
        <time>2009-08-27T10:52:13Z</time>
      </trkpt>
      <trkpt lat="45.38471" lon="4.60983">
        <ele>1165.8719482422</ele>
        <time>2009-08-27T10:52:31Z</time>
      </trkpt>
      <trkpt lat="45.3851" lon="4.61039">
        <ele>1169.9620361328</ele>
        <time>2009-08-27T10:52:48Z</time>
      </trkpt>
      <trkpt lat="45.38559" lon="4.61099">
        <ele>1174.0200195312</ele>
        <time>2009-08-27T10:53:07Z</time>
      </trkpt>
      <trkpt lat="45.38614" lon="4.61143">
        <ele>1178.0539550781</ele>
        <time>2009-08-27T10:53:26Z</time>
      </trkpt>
      <trkpt lat="45.38657" lon="4.61181">
        <ele>1181.5300292969</ele>
        <time>2009-08-27T10:53:41Z</time>
      </trkpt>
      <trkpt lat="45.3866" lon="4.61249">
        <ele>1184.8609619141</ele>
        <time>2009-08-27T10:53:55Z</time>
      </trkpt>
      <trkpt lat="45.38655" lon="4.61341">
        <ele>1188.4790039062</ele>
        <time>2009-08-27T10:54:13Z</time>
      </trkpt>
      <trkpt lat="45.38631" lon="4.61397">
        <ele>1190.7709960938</ele>
        <time>2009-08-27T10:54:26Z</time>
      </trkpt>
      <trkpt lat="45.38582" lon="4.61467">
        <ele>1193.1169433594</ele>
        <time>2009-08-27T10:54:43Z</time>
      </trkpt>
      <trkpt lat="45.38572" lon="4.61477">
        <ele>1193.7590332031</ele>
        <time>2009-08-27T10:54:46Z</time>
      </trkpt>
      <trkpt lat="45.38517" lon="4.61511">
        <ele>1195.7020263672</ele>
        <time>2009-08-27T10:55:01Z</time>
      </trkpt>
      <trkpt lat="45.38515" lon="4.61515">
        <ele>1195.7449951172</ele>
        <time>2009-08-27T10:55:02Z</time>
      </trkpt>
      <trkpt lat="45.38511" lon="4.61517">
        <ele>1196.6979980469</ele>
        <time>2009-08-27T10:55:07Z</time>
      </trkpt>
      <trkpt lat="45.38515" lon="4.61514">
        <ele>1196.5600585938</ele>
        <time>2009-08-27T10:56:08Z</time>
      </trkpt>
      <trkpt lat="45.38522" lon="4.61541">
        <ele>1197.0860595703</ele>
        <time>2009-08-27T10:56:16Z</time>
      </trkpt>
      <trkpt lat="45.38517" lon="4.61554">
        <ele>1197.6070556641</ele>
        <time>2009-08-27T10:56:21Z</time>
      </trkpt>
      <trkpt lat="45.38506" lon="4.61568">
        <ele>1197.4990234375</ele>
        <time>2009-08-27T10:56:28Z</time>
      </trkpt>
      <trkpt lat="45.38499" lon="4.61578">
        <ele>1197.4189453125</ele>
        <time>2009-08-27T10:56:36Z</time>
      </trkpt>
      <trkpt lat="45.38498" lon="4.61574">
        <ele>1197.4360351562</ele>
        <time>2009-08-27T10:57:01Z</time>
      </trkpt>
      <trkpt lat="45.38518" lon="4.61551">
        <ele>1197.7270507812</ele>
        <time>2009-08-27T10:57:13Z</time>
      </trkpt>
      <trkpt lat="45.38529" lon="4.61543">
        <ele>1197.4060058594</ele>
        <time>2009-08-27T10:57:18Z</time>
      </trkpt>
      <trkpt lat="45.38552" lon="4.61541">
        <ele>1198.6240234375</ele>
        <time>2009-08-27T10:57:23Z</time>
      </trkpt>
      <trkpt lat="45.3856" lon="4.61536">
        <ele>1199.0849609375</ele>
        <time>2009-08-27T10:57:25Z</time>
      </trkpt>
      <trkpt lat="45.38577" lon="4.61529">
        <ele>1200.3100585938</ele>
        <time>2009-08-27T10:57:29Z</time>
      </trkpt>
      <trkpt lat="45.38589" lon="4.61525">
        <ele>1201.2760009766</ele>
        <time>2009-08-27T10:57:32Z</time>
      </trkpt>
      <trkpt lat="45.38593" lon="4.61524">
        <ele>1201.7159423828</ele>
        <time>2009-08-27T10:57:33Z</time>
      </trkpt>
      <trkpt lat="45.3863" lon="4.61514">
        <ele>1203.8260498047</ele>
        <time>2009-08-27T10:57:42Z</time>
      </trkpt>
      <trkpt lat="45.3867" lon="4.6151">
        <ele>1206.3819580078</ele>
        <time>2009-08-27T10:57:52Z</time>
      </trkpt>
      <trkpt lat="45.38702" lon="4.61499">
        <ele>1208.373046875</ele>
        <time>2009-08-27T10:58:01Z</time>
      </trkpt>
      <trkpt lat="45.38732" lon="4.61485">
        <ele>1210.6899414062</ele>
        <time>2009-08-27T10:58:10Z</time>
      </trkpt>
      <trkpt lat="45.38794" lon="4.61441">
        <ele>1215.6540527344</ele>
        <time>2009-08-27T10:58:31Z</time>
      </trkpt>
      <trkpt lat="45.38829" lon="4.61426">
        <ele>1218.2619628906</ele>
        <time>2009-08-27T10:58:43Z</time>
      </trkpt>
      <trkpt lat="45.3883" lon="4.61427">
        <ele>1218.3100585938</ele>
        <time>2009-08-27T10:58:44Z</time>
      </trkpt>
      <trkpt lat="45.38832" lon="4.61427">
        <ele>1218.4840087891</ele>
        <time>2009-08-27T10:58:46Z</time>
      </trkpt>
      <trkpt lat="45.38835" lon="4.61424">
        <ele>1218.9670410156</ele>
        <time>2009-08-27T10:58:49Z</time>
      </trkpt>
      <trkpt lat="45.38837" lon="4.61424">
        <ele>1219.0209960938</ele>
        <time>2009-08-27T10:58:52Z</time>
      </trkpt>
      <trkpt lat="45.38836" lon="4.6143">
        <ele>1219.541015625</ele>
        <time>2009-08-27T11:00:54Z</time>
      </trkpt>
      <trkpt lat="45.38838" lon="4.61455">
        <ele>1220.2879638672</ele>
        <time>2009-08-27T11:01:01Z</time>
      </trkpt>
      <trkpt lat="45.38837" lon="4.61488">
        <ele>1221.8609619141</ele>
        <time>2009-08-27T11:01:07Z</time>
      </trkpt>
      <trkpt lat="45.38837" lon="4.61514">
        <ele>1222.7740478516</ele>
        <time>2009-08-27T11:01:12Z</time>
      </trkpt>
      <trkpt lat="45.38839" lon="4.61548">
        <ele>1224.5329589844</ele>
        <time>2009-08-27T11:01:19Z</time>
      </trkpt>
      <trkpt lat="45.38845" lon="4.6157">
        <ele>1224.9279785156</ele>
        <time>2009-08-27T11:01:24Z</time>
      </trkpt>
      <trkpt lat="45.38874" lon="4.61582">
        <ele>1225.6710205078</ele>
        <time>2009-08-27T11:01:33Z</time>
      </trkpt>
      <trkpt lat="45.38877" lon="4.61582">
        <ele>1225.6209716797</ele>
        <time>2009-08-27T11:01:36Z</time>
      </trkpt>
      <trkpt lat="45.38883" lon="4.61581">
        <ele>1225.6860351562</ele>
        <time>2009-08-27T11:02:14Z</time>
      </trkpt>
      <trkpt lat="45.38885" lon="4.61582">
        <ele>1225.7130126953</ele>
        <time>2009-08-27T11:02:15Z</time>
      </trkpt>
      <trkpt lat="45.38891" lon="4.61583">
        <ele>1225.5579833984</ele>
        <time>2009-08-27T11:02:17Z</time>
      </trkpt>
      <trkpt lat="45.3889" lon="4.61563">
        <ele>1227.1070556641</ele>
        <time>2009-08-27T11:02:23Z</time>
      </trkpt>
      <trkpt lat="45.38891" lon="4.61543">
        <ele>1228.5030517578</ele>
        <time>2009-08-27T11:02:28Z</time>
      </trkpt>
      <trkpt lat="45.38899" lon="4.61516">
        <ele>1230.2080078125</ele>
        <time>2009-08-27T11:02:35Z</time>
      </trkpt>
      <trkpt lat="45.38904" lon="4.61502">
        <ele>1229.9890136719</ele>
        <time>2009-08-27T11:02:39Z</time>
      </trkpt>
      <trkpt lat="45.38915" lon="4.61468">
        <ele>1234.1159667969</ele>
        <time>2009-08-27T11:02:49Z</time>
      </trkpt>
      <trkpt lat="45.3893" lon="4.61426">
        <ele>1237.3270263672</ele>
        <time>2009-08-27T11:03:01Z</time>
      </trkpt>
      <trkpt lat="45.38938" lon="4.61391">
        <ele>1239.6219482422</ele>
        <time>2009-08-27T11:03:10Z</time>
      </trkpt>
      <trkpt lat="45.38947" lon="4.61348">
        <ele>1242.7039794922</ele>
        <time>2009-08-27T11:03:21Z</time>
      </trkpt>
      <trkpt lat="45.38949" lon="4.61332">
        <ele>1244.3680419922</ele>
        <time>2009-08-27T11:03:25Z</time>
      </trkpt>
      <trkpt lat="45.3896" lon="4.61269">
        <ele>1249.0930175781</ele>
        <time>2009-08-27T11:03:41Z</time>
      </trkpt>
      <trkpt lat="45.3897" lon="4.61196">
        <ele>1254.0860595703</ele>
        <time>2009-08-27T11:03:59Z</time>
      </trkpt>
      <trkpt lat="45.38968" lon="4.61149">
        <ele>1257.0310058594</ele>
        <time>2009-08-27T11:04:09Z</time>
      </trkpt>
      <trkpt lat="45.38977" lon="4.61143">
        <ele>1258.3599853516</ele>
        <time>2009-08-27T11:04:12Z</time>
      </trkpt>
      <trkpt lat="45.38989" lon="4.61163">
        <ele>1259.7030029297</ele>
        <time>2009-08-27T11:04:18Z</time>
      </trkpt>
      <trkpt lat="45.39007" lon="4.6121">
        <ele>1264.0240478516</ele>
        <time>2009-08-27T11:04:31Z</time>
      </trkpt>
      <trkpt lat="45.3903" lon="4.61262">
        <ele>1267.7239990234</ele>
        <time>2009-08-27T11:04:47Z</time>
      </trkpt>
      <trkpt lat="45.39046" lon="4.61303">
        <ele>1270.5639648438</ele>
        <time>2009-08-27T11:04:59Z</time>
      </trkpt>
      <trkpt lat="45.39066" lon="4.61356">
        <ele>1273.8979492188</ele>
        <time>2009-08-27T11:05:14Z</time>
      </trkpt>
      <trkpt lat="45.39073" lon="4.61362">
        <ele>1274.5780029297</ele>
        <time>2009-08-27T11:05:17Z</time>
      </trkpt>
      <trkpt lat="45.39087" lon="4.61344">
        <ele>1277.0770263672</ele>
        <time>2009-08-27T11:05:25Z</time>
      </trkpt>
      <trkpt lat="45.39082" lon="4.61294">
        <ele>1280.2359619141</ele>
        <time>2009-08-27T11:05:40Z</time>
      </trkpt>
      <trkpt lat="45.39079" lon="4.61231">
        <ele>1284.7309570312</ele>
        <time>2009-08-27T11:05:58Z</time>
      </trkpt>
      <trkpt lat="45.39087" lon="4.61164">
        <ele>1289.1030273438</ele>
        <time>2009-08-27T11:06:17Z</time>
      </trkpt>
      <trkpt lat="45.39099" lon="4.61106">
        <ele>1293.1550292969</ele>
        <time>2009-08-27T11:06:35Z</time>
      </trkpt>
      <trkpt lat="45.39112" lon="4.61046">
        <ele>1297.4329833984</ele>
        <time>2009-08-27T11:06:53Z</time>
      </trkpt>
      <trkpt lat="45.3912" lon="4.61007">
        <ele>1300.6300048828</ele>
        <time>2009-08-27T11:07:04Z</time>
      </trkpt>
      <trkpt lat="45.39125" lon="4.60952">
        <ele>1305.0040283203</ele>
        <time>2009-08-27T11:07:20Z</time>
      </trkpt>
      <trkpt lat="45.39126" lon="4.60898">
        <ele>1308.2490234375</ele>
        <time>2009-08-27T11:07:35Z</time>
      </trkpt>
      <trkpt lat="45.3915" lon="4.60847">
        <ele>1312.4809570312</ele>
        <time>2009-08-27T11:07:52Z</time>
      </trkpt>
      <trkpt lat="45.3919" lon="4.60849">
        <ele>1316.7309570312</ele>
        <time>2009-08-27T11:08:06Z</time>
      </trkpt>
      <trkpt lat="45.39235" lon="4.60883">
        <ele>1321.3869628906</ele>
        <time>2009-08-27T11:08:23Z</time>
      </trkpt>
      <trkpt lat="45.39264" lon="4.60942">
        <ele>1326.6510009766</ele>
        <time>2009-08-27T11:08:41Z</time>
      </trkpt>
      <trkpt lat="45.39283" lon="4.60997">
        <ele>1331.3979492188</ele>
        <time>2009-08-27T11:08:57Z</time>
      </trkpt>
      <trkpt lat="45.39268" lon="4.60991">
        <ele>1333.9969482422</ele>
        <time>2009-08-27T11:09:07Z</time>
      </trkpt>
      <trkpt lat="45.39259" lon="4.60976">
        <ele>1335.4930419922</ele>
        <time>2009-08-27T11:09:13Z</time>
      </trkpt>
      <trkpt lat="45.39229" lon="4.60978">
        <ele>1337.6750488281</ele>
        <time>2009-08-27T11:09:25Z</time>
      </trkpt>
      <trkpt lat="45.39224" lon="4.61028">
        <ele>1340.6590576172</ele>
        <time>2009-08-27T11:09:38Z</time>
      </trkpt>
      <trkpt lat="45.39225" lon="4.61046">
        <ele>1341.9079589844</ele>
        <time>2009-08-27T11:09:44Z</time>
      </trkpt>
      <trkpt lat="45.39227" lon="4.61048">
        <ele>1342.1109619141</ele>
        <time>2009-08-27T11:09:48Z</time>
      </trkpt>
      <trkpt lat="45.39225" lon="4.61049">
        <ele>1342.4279785156</ele>
        <time>2009-08-27T11:09:58Z</time>
      </trkpt>
      <trkpt lat="45.39225" lon="4.61046">
        <ele>1341.9129638672</ele>
        <time>2009-08-27T11:10:04Z</time>
      </trkpt>
      <trkpt lat="45.39225" lon="4.61037">
        <ele>1341.5660400391</ele>
        <time>2009-08-27T11:11:05Z</time>
      </trkpt>
      <trkpt lat="45.39225" lon="4.61028">
        <ele>1340.833984375</ele>
        <time>2009-08-27T11:11:07Z</time>
      </trkpt>
      <trkpt lat="45.39223" lon="4.61009">
        <ele>1339.6540527344</ele>
        <time>2009-08-27T11:11:10Z</time>
      </trkpt>
      <trkpt lat="45.39236" lon="4.60969">
        <ele>1337.6169433594</ele>
        <time>2009-08-27T11:11:18Z</time>
      </trkpt>
      <trkpt lat="45.39258" lon="4.60973">
        <ele>1336.4339599609</ele>
        <time>2009-08-27T11:11:27Z</time>
      </trkpt>
      <trkpt lat="45.39262" lon="4.60988">
        <ele>1335.9599609375</ele>
        <time>2009-08-27T11:13:00Z</time>
      </trkpt>
      <trkpt lat="45.39287" lon="4.60986">
        <ele>1332.0229492188</ele>
        <time>2009-08-27T11:13:07Z</time>
      </trkpt>
      <trkpt lat="45.39281" lon="4.60969">
        <ele>1330.3620605469</ele>
        <time>2009-08-27T11:13:09Z</time>
      </trkpt>
      <trkpt lat="45.39252" lon="4.60908">
        <ele>1325.4260253906</ele>
        <time>2009-08-27T11:13:15Z</time>
      </trkpt>
      <trkpt lat="45.39237" lon="4.60881">
        <ele>1323.0419921875</ele>
        <time>2009-08-27T11:13:19Z</time>
      </trkpt>
      <trkpt lat="45.39179" lon="4.6084">
        <ele>1317.0600585938</ele>
        <time>2009-08-27T11:13:27Z</time>
      </trkpt>
      <trkpt lat="45.39133" lon="4.60854">
        <ele>1313.3929443359</ele>
        <time>2009-08-27T11:13:33Z</time>
      </trkpt>
      <trkpt lat="45.39119" lon="4.60851">
        <ele>1311.2729492188</ele>
        <time>2009-08-27T11:13:38Z</time>
      </trkpt>
      <trkpt lat="45.39115" lon="4.60836">
        <ele>1310.6590576172</ele>
        <time>2009-08-27T11:13:40Z</time>
      </trkpt>
      <trkpt lat="45.39094" lon="4.60795">
        <ele>1309.1280517578</ele>
        <time>2009-08-27T11:13:45Z</time>
      </trkpt>
      <trkpt lat="45.39069" lon="4.60762">
        <ele>1310.8740234375</ele>
        <time>2009-08-27T11:13:50Z</time>
      </trkpt>
      <trkpt lat="45.39045" lon="4.60739">
        <ele>1314.3919677734</ele>
        <time>2009-08-27T11:13:57Z</time>
      </trkpt>
      <trkpt lat="45.39032" lon="4.60729">
        <ele>1315.7779541016</ele>
        <time>2009-08-27T11:14:02Z</time>
      </trkpt>
      <trkpt lat="45.39019" lon="4.60722">
        <ele>1317.1610107422</ele>
        <time>2009-08-27T11:14:07Z</time>
      </trkpt>
      <trkpt lat="45.39008" lon="4.60717">
        <ele>1318.5679931641</ele>
        <time>2009-08-27T11:14:11Z</time>
      </trkpt>
      <trkpt lat="45.38991" lon="4.6071">
        <ele>1320.3669433594</ele>
        <time>2009-08-27T11:14:18Z</time>
      </trkpt>
      <trkpt lat="45.38967" lon="4.60702">
        <ele>1323.0799560547</ele>
        <time>2009-08-27T11:14:27Z</time>
      </trkpt>
      <trkpt lat="45.3894" lon="4.60692">
        <ele>1325.9079589844</ele>
        <time>2009-08-27T11:14:37Z</time>
      </trkpt>
      <trkpt lat="45.38897" lon="4.60676">
        <ele>1330.7860107422</ele>
        <time>2009-08-27T11:14:53Z</time>
      </trkpt>
      <trkpt lat="45.38865" lon="4.60663">
        <ele>1334.0720214844</ele>
        <time>2009-08-27T11:15:05Z</time>
      </trkpt>
      <trkpt lat="45.3885" lon="4.60637">
        <ele>1337.0379638672</ele>
        <time>2009-08-27T11:15:16Z</time>
      </trkpt>
      <trkpt lat="45.38857" lon="4.60621">
        <ele>1339.5450439453</ele>
        <time>2009-08-27T11:15:23Z</time>
      </trkpt>
      <trkpt lat="45.38889" lon="4.60612">
        <ele>1343.3489990234</ele>
        <time>2009-08-27T11:15:38Z</time>
      </trkpt>
      <trkpt lat="45.38928" lon="4.60604">
        <ele>1347.0129394531</ele>
        <time>2009-08-27T11:15:54Z</time>
      </trkpt>
      <trkpt lat="45.38962" lon="4.60572">
        <ele>1351.1379394531</ele>
        <time>2009-08-27T11:16:10Z</time>
      </trkpt>
      <trkpt lat="45.38985" lon="4.60519">
        <ele>1356.8649902344</ele>
        <time>2009-08-27T11:16:29Z</time>
      </trkpt>
      <trkpt lat="45.38985" lon="4.60516">
        <ele>1357.0810546875</ele>
        <time>2009-08-27T11:16:30Z</time>
      </trkpt>
      <trkpt lat="45.38966" lon="4.60502">
        <ele>1359.45703125</ele>
        <time>2009-08-27T11:16:40Z</time>
      </trkpt>
      <trkpt lat="45.38933" lon="4.60504">
        <ele>1363.4620361328</ele>
        <time>2009-08-27T11:16:54Z</time>
      </trkpt>
      <trkpt lat="45.38892" lon="4.60487">
        <ele>1368.2020263672</ele>
        <time>2009-08-27T11:17:11Z</time>
      </trkpt>
      <trkpt lat="45.38877" lon="4.60441">
        <ele>1373.2099609375</ele>
        <time>2009-08-27T11:17:26Z</time>
      </trkpt>
      <trkpt lat="45.38881" lon="4.60409">
        <ele>1376.1729736328</ele>
        <time>2009-08-27T11:17:36Z</time>
      </trkpt>
      <trkpt lat="45.38876" lon="4.60413">
        <ele>1375.7690429688</ele>
        <time>2009-08-27T11:17:46Z</time>
      </trkpt>
      <trkpt lat="45.38876" lon="4.60415">
        <ele>1375.6209716797</ele>
        <time>2009-08-27T11:17:47Z</time>
      </trkpt>
      <trkpt lat="45.38876" lon="4.60445">
        <ele>1373.1390380859</ele>
        <time>2009-08-27T11:17:56Z</time>
      </trkpt>
      <trkpt lat="45.38876" lon="4.60457">
        <ele>1372.3000488281</ele>
        <time>2009-08-27T11:17:59Z</time>
      </trkpt>
      <trkpt lat="45.38881" lon="4.60472">
        <ele>1370.6149902344</ele>
        <time>2009-08-27T11:18:02Z</time>
      </trkpt>
      <trkpt lat="45.38882" lon="4.60478">
        <ele>1370.3649902344</ele>
        <time>2009-08-27T11:18:05Z</time>
      </trkpt>
      <trkpt lat="45.38889" lon="4.60487">
        <ele>1368.6569824219</ele>
        <time>2009-08-27T11:18:48Z</time>
      </trkpt>
      <trkpt lat="45.38924" lon="4.60504">
        <ele>1364.2159423828</ele>
        <time>2009-08-27T11:18:54Z</time>
      </trkpt>
      <trkpt lat="45.38951" lon="4.60503">
        <ele>1360.9730224609</ele>
        <time>2009-08-27T11:18:57Z</time>
      </trkpt>
      <trkpt lat="45.38966" lon="4.60503">
        <ele>1359.7309570312</ele>
        <time>2009-08-27T11:18:59Z</time>
      </trkpt>
      <trkpt lat="45.38982" lon="4.60544">
        <ele>1354.5369873047</ele>
        <time>2009-08-27T11:19:05Z</time>
      </trkpt>
      <trkpt lat="45.38962" lon="4.60575">
        <ele>1351.0649414062</ele>
        <time>2009-08-27T11:19:08Z</time>
      </trkpt>
      <trkpt lat="45.3891" lon="4.60611">
        <ele>1344.1369628906</ele>
        <time>2009-08-27T11:19:13Z</time>
      </trkpt>
      <trkpt lat="45.38865" lon="4.60615">
        <ele>1341.8079833984</ele>
        <time>2009-08-27T11:19:17Z</time>
      </trkpt>
      <trkpt lat="45.38848" lon="4.60653">
        <ele>1336.8480224609</ele>
        <time>2009-08-27T11:19:22Z</time>
      </trkpt>
      <trkpt lat="45.38871" lon="4.60673">
        <ele>1332.9689941406</ele>
        <time>2009-08-27T11:19:25Z</time>
      </trkpt>
      <trkpt lat="45.38972" lon="4.60708">
        <ele>1321.1560058594</ele>
        <time>2009-08-27T11:19:34Z</time>
      </trkpt>
      <trkpt lat="45.39025" lon="4.60728">
        <ele>1315.8210449219</ele>
        <time>2009-08-27T11:19:38Z</time>
      </trkpt>
      <trkpt lat="45.39078" lon="4.60771">
        <ele>1309.5920410156</ele>
        <time>2009-08-27T11:19:42Z</time>
      </trkpt>
      <trkpt lat="45.391" lon="4.60801">
        <ele>1308.3020019531</ele>
        <time>2009-08-27T11:19:44Z</time>
      </trkpt>
      <trkpt lat="45.39128" lon="4.60883">
        <ele>1311.5169677734</ele>
        <time>2009-08-27T11:19:49Z</time>
      </trkpt>
      <trkpt lat="45.39128" lon="4.60915">
        <ele>1309.1030273438</ele>
        <time>2009-08-27T11:19:51Z</time>
      </trkpt>
      <trkpt lat="45.39124" lon="4.61003">
        <ele>1302.5179443359</ele>
        <time>2009-08-27T11:19:56Z</time>
      </trkpt>
      <trkpt lat="45.39086" lon="4.61174">
        <ele>1289.4849853516</ele>
        <time>2009-08-27T11:20:05Z</time>
      </trkpt>
      <trkpt lat="45.39083" lon="4.6133">
        <ele>1281.1169433594</ele>
        <time>2009-08-27T11:20:13Z</time>
      </trkpt>
      <trkpt lat="45.39085" lon="4.61341">
        <ele>1281.6130371094</ele>
        <time>2009-08-27T11:20:14Z</time>
      </trkpt>
      <trkpt lat="45.39061" lon="4.61343">
        <ele>1277.0720214844</ele>
        <time>2009-08-27T11:20:19Z</time>
      </trkpt>
      <trkpt lat="45.39058" lon="4.61332">
        <ele>1276.7679443359</ele>
        <time>2009-08-27T11:20:20Z</time>
      </trkpt>
      <trkpt lat="45.39051" lon="4.61308">
        <ele>1276.0009765625</ele>
        <time>2009-08-27T11:20:22Z</time>
      </trkpt>
      <trkpt lat="45.39036" lon="4.61272">
        <ele>1273.4270019531</ele>
        <time>2009-08-27T11:20:25Z</time>
      </trkpt>
      <trkpt lat="45.39" lon="4.61189">
        <ele>1273.4129638672</ele>
        <time>2009-08-27T11:20:31Z</time>
      </trkpt>
      <trkpt lat="45.38991" lon="4.6116">
        <ele>1264.6429443359</ele>
        <time>2009-08-27T11:20:33Z</time>
      </trkpt>
      <trkpt lat="45.38963" lon="4.61149">
        <ele>1260.9969482422</ele>
        <time>2009-08-27T11:20:38Z</time>
      </trkpt>
      <trkpt lat="45.38963" lon="4.61171">
        <ele>1260.2189941406</ele>
        <time>2009-08-27T11:20:40Z</time>
      </trkpt>
      <trkpt lat="45.38946" lon="4.6132">
        <ele>1248.4110107422</ele>
        <time>2009-08-27T11:20:50Z</time>
      </trkpt>
      <trkpt lat="45.38923" lon="4.61433">
        <ele>1239.4429931641</ele>
        <time>2009-08-27T11:20:56Z</time>
      </trkpt>
      <trkpt lat="45.38883" lon="4.61552">
        <ele>1233.1860351562</ele>
        <time>2009-08-27T11:21:04Z</time>
      </trkpt>
      <trkpt lat="45.38877" lon="4.61566">
        <ele>1232.3449707031</ele>
        <time>2009-08-27T11:21:06Z</time>
      </trkpt>
      <trkpt lat="45.38875" lon="4.61581">
        <ele>1231.6259765625</ele>
        <time>2009-08-27T11:21:12Z</time>
      </trkpt>
      <trkpt lat="45.38877" lon="4.61581">
        <ele>1231.8020019531</ele>
        <time>2009-08-27T11:21:15Z</time>
      </trkpt>
      <trkpt lat="45.38887" lon="4.61584">
        <ele>1231.2750244141</ele>
        <time>2009-08-27T11:22:03Z</time>
      </trkpt>
      <trkpt lat="45.38918" lon="4.61586">
        <ele>1230.2840576172</ele>
        <time>2009-08-27T11:22:09Z</time>
      </trkpt>
      <trkpt lat="45.38985" lon="4.61584">
        <ele>1228.8420410156</ele>
        <time>2009-08-27T11:22:19Z</time>
      </trkpt>
      <trkpt lat="45.39066" lon="4.61578">
        <ele>1226.248046875</ele>
        <time>2009-08-27T11:22:30Z</time>
      </trkpt>
      <trkpt lat="45.3919" lon="4.61576">
        <ele>1223.9840087891</ele>
        <time>2009-08-27T11:22:47Z</time>
      </trkpt>
      <trkpt lat="45.39289" lon="4.61583">
        <ele>1221.2580566406</ele>
        <time>2009-08-27T11:23:01Z</time>
      </trkpt>
      <trkpt lat="45.39329" lon="4.61575">
        <ele>1220.8830566406</ele>
        <time>2009-08-27T11:23:06Z</time>
      </trkpt>
      <trkpt lat="45.39479" lon="4.61534">
        <ele>1216.4530029297</ele>
        <time>2009-08-27T11:23:25Z</time>
      </trkpt>
      <trkpt lat="45.39498" lon="4.61534">
        <ele>1215.6149902344</ele>
        <time>2009-08-27T11:23:27Z</time>
      </trkpt>
      <trkpt lat="45.39617" lon="4.61552">
        <ele>1212.5880126953</ele>
        <time>2009-08-27T11:23:39Z</time>
      </trkpt>
      <trkpt lat="45.39731" lon="4.61582">
        <ele>1210.2939453125</ele>
        <time>2009-08-27T11:23:50Z</time>
      </trkpt>
      <trkpt lat="45.39802" lon="4.61628">
        <ele>1200.3089599609</ele>
        <time>2009-08-27T11:23:57Z</time>
      </trkpt>
      <trkpt lat="45.39848" lon="4.61686">
        <ele>1194.1879882812</ele>
        <time>2009-08-27T11:24:02Z</time>
      </trkpt>
      <trkpt lat="45.39898" lon="4.6175">
        <ele>1188.6710205078</ele>
        <time>2009-08-27T11:24:07Z</time>
      </trkpt>
      <trkpt lat="45.39952" lon="4.61848">
        <ele>1180.958984375</ele>
        <time>2009-08-27T11:24:13Z</time>
      </trkpt>
      <trkpt lat="45.39968" lon="4.61883">
        <ele>1177.6109619141</ele>
        <time>2009-08-27T11:24:15Z</time>
      </trkpt>
      <trkpt lat="45.39993" lon="4.61934">
        <ele>1175.0500488281</ele>
        <time>2009-08-27T11:24:18Z</time>
      </trkpt>
      <trkpt lat="45.40065" lon="4.61999">
        <ele>1167.8709716797</ele>
        <time>2009-08-27T11:24:24Z</time>
      </trkpt>
      <trkpt lat="45.40085" lon="4.6202">
        <ele>1167</ele>
        <time>2009-08-27T11:24:26Z</time>
      </trkpt>
      <trkpt lat="45.40139" lon="4.62022">
        <ele>1161.8370361328</ele>
        <time>2009-08-27T11:24:31Z</time>
      </trkpt>
      <trkpt lat="45.40159" lon="4.61999">
        <ele>1159.2209472656</ele>
        <time>2009-08-27T11:24:33Z</time>
      </trkpt>
      <trkpt lat="45.40178" lon="4.61975">
        <ele>1158.0980224609</ele>
        <time>2009-08-27T11:24:35Z</time>
      </trkpt>
      <trkpt lat="45.40187" lon="4.61962">
        <ele>1158.0930175781</ele>
        <time>2009-08-27T11:24:36Z</time>
      </trkpt>
      <trkpt lat="45.40252" lon="4.61858">
        <ele>1149.1309814453</ele>
        <time>2009-08-27T11:24:43Z</time>
      </trkpt>
      <trkpt lat="45.40344" lon="4.61808">
        <ele>1139.1369628906</ele>
        <time>2009-08-27T11:24:50Z</time>
      </trkpt>
      <trkpt lat="45.40359" lon="4.61809">
        <ele>1138.9689941406</ele>
        <time>2009-08-27T11:24:51Z</time>
      </trkpt>
      <trkpt lat="45.40482" lon="4.61834">
        <ele>1126.9549560547</ele>
        <time>2009-08-27T11:24:59Z</time>
      </trkpt>
      <trkpt lat="45.40587" lon="4.61854">
        <ele>1124.5300292969</ele>
        <time>2009-08-27T11:25:06Z</time>
      </trkpt>
      <trkpt lat="45.40662" lon="4.61846">
        <ele>1113.8000488281</ele>
        <time>2009-08-27T11:25:11Z</time>
      </trkpt>
      <trkpt lat="45.40708" lon="4.61843">
        <ele>1110.2309570312</ele>
        <time>2009-08-27T11:25:14Z</time>
      </trkpt>
      <trkpt lat="45.40786" lon="4.6186">
        <ele>1103.1519775391</ele>
        <time>2009-08-27T11:25:19Z</time>
      </trkpt>
      <trkpt lat="45.40887" lon="4.61923">
        <ele>1093.7280273438</ele>
        <time>2009-08-27T11:25:26Z</time>
      </trkpt>
      <trkpt lat="45.40912" lon="4.61948">
        <ele>1091.2409667969</ele>
        <time>2009-08-27T11:25:28Z</time>
      </trkpt>
      <trkpt lat="45.40992" lon="4.62016">
        <ele>1083.3079833984</ele>
        <time>2009-08-27T11:25:34Z</time>
      </trkpt>
      <trkpt lat="45.41043" lon="4.62065">
        <ele>1078.4799804688</ele>
        <time>2009-08-27T11:25:38Z</time>
      </trkpt>
      <trkpt lat="45.41108" lon="4.6212">
        <ele>1072.7700195312</ele>
        <time>2009-08-27T11:25:43Z</time>
      </trkpt>
      <trkpt lat="45.41135" lon="4.62143">
        <ele>1070.0179443359</ele>
        <time>2009-08-27T11:25:45Z</time>
      </trkpt>
      <trkpt lat="45.41219" lon="4.62275">
        <ele>1058.2290039062</ele>
        <time>2009-08-27T11:25:53Z</time>
      </trkpt>
      <trkpt lat="45.41262" lon="4.6235">
        <ele>1055.1729736328</ele>
        <time>2009-08-27T11:25:58Z</time>
      </trkpt>
      <trkpt lat="45.41268" lon="4.6236">
        <ele>1054.9210205078</ele>
        <time>2009-08-27T11:25:59Z</time>
      </trkpt>
      <trkpt lat="45.41294" lon="4.62364">
        <ele>1053.6130371094</ele>
        <time>2009-08-27T11:26:03Z</time>
      </trkpt>
      <trkpt lat="45.41301" lon="4.62357">
        <ele>1053.0219726562</ele>
        <time>2009-08-27T11:26:04Z</time>
      </trkpt>
      <trkpt lat="45.41357" lon="4.62276">
        <ele>1044.9019775391</ele>
        <time>2009-08-27T11:26:12Z</time>
      </trkpt>
      <trkpt lat="45.41386" lon="4.62245">
        <ele>1042.9439697266</ele>
        <time>2009-08-27T11:26:15Z</time>
      </trkpt>
      <trkpt lat="45.41497" lon="4.62161">
        <ele>1032.9549560547</ele>
        <time>2009-08-27T11:26:25Z</time>
      </trkpt>
      <trkpt lat="45.41529" lon="4.62133">
        <ele>1030.6850585938</ele>
        <time>2009-08-27T11:26:28Z</time>
      </trkpt>
      <trkpt lat="45.4158" lon="4.62085">
        <ele>1025.0970458984</ele>
        <time>2009-08-27T11:26:33Z</time>
      </trkpt>
      <trkpt lat="45.41644" lon="4.62046">
        <ele>1019.6309814453</ele>
        <time>2009-08-27T11:26:38Z</time>
      </trkpt>
      <trkpt lat="45.4177" lon="4.62039">
        <ele>1009.8070068359</ele>
        <time>2009-08-27T11:26:47Z</time>
      </trkpt>
      <trkpt lat="45.41893" lon="4.62062">
        <ele>999.95300292969</ele>
        <time>2009-08-27T11:26:56Z</time>
      </trkpt>
      <trkpt lat="45.41935" lon="4.62066">
        <ele>996.94702148438</ele>
        <time>2009-08-27T11:26:59Z</time>
      </trkpt>
      <trkpt lat="45.42057" lon="4.62006">
        <ele>987.28198242188</ele>
        <time>2009-08-27T11:27:07Z</time>
      </trkpt>
      <trkpt lat="45.42184" lon="4.61928">
        <ele>976.63897705078</ele>
        <time>2009-08-27T11:27:16Z</time>
      </trkpt>
      <trkpt lat="45.42302" lon="4.61837">
        <ele>966.68798828125</ele>
        <time>2009-08-27T11:27:25Z</time>
      </trkpt>
      <trkpt lat="45.4236" lon="4.61815">
        <ele>960.89801025391</ele>
        <time>2009-08-27T11:27:29Z</time>
      </trkpt>
      <trkpt lat="45.42419" lon="4.61778">
        <ele>960.82598876953</ele>
        <time>2009-08-27T11:27:34Z</time>
      </trkpt>
      <trkpt lat="45.4244" lon="4.61768">
        <ele>958.23999023438</ele>
        <time>2009-08-27T11:27:37Z</time>
      </trkpt>
      <trkpt lat="45.42489" lon="4.6175">
        <ele>956.36297607422</ele>
        <time>2009-08-27T11:27:47Z</time>
      </trkpt>
      <trkpt lat="45.42506" lon="4.61744">
        <ele>955.78100585938</ele>
        <time>2009-08-27T11:27:58Z</time>
      </trkpt>
      <trkpt lat="45.42509" lon="4.61741">
        <ele>955.50201416016</ele>
        <time>2009-08-27T11:28:47Z</time>
      </trkpt>
      <trkpt lat="45.42511" lon="4.61741">
        <ele>955.44201660156</ele>
        <time>2009-08-27T11:28:48Z</time>
      </trkpt>
      <trkpt lat="45.42528" lon="4.6176">
        <ele>955.02197265625</ele>
        <time>2009-08-27T11:28:57Z</time>
      </trkpt>
      <trkpt lat="45.42505" lon="4.61792">
        <ele>951.60900878906</ele>
        <time>2009-08-27T11:29:04Z</time>
      </trkpt>
      <trkpt lat="45.42484" lon="4.61799">
        <ele>949.60101318359</ele>
        <time>2009-08-27T11:29:07Z</time>
      </trkpt>
      <trkpt lat="45.42405" lon="4.61876">
        <ele>941.40600585938</ele>
        <time>2009-08-27T11:29:17Z</time>
      </trkpt>
      <trkpt lat="45.42316" lon="4.61987">
        <ele>930.77899169922</ele>
        <time>2009-08-27T11:29:27Z</time>
      </trkpt>
      <trkpt lat="45.42257" lon="4.62056">
        <ele>925.97302246094</ele>
        <time>2009-08-27T11:29:33Z</time>
      </trkpt>
      <trkpt lat="45.42225" lon="4.6212">
        <ele>921.52697753906</ele>
        <time>2009-08-27T11:29:37Z</time>
      </trkpt>
      <trkpt lat="45.42129" lon="4.62297">
        <ele>908.85998535156</ele>
        <time>2009-08-27T11:29:48Z</time>
      </trkpt>
      <trkpt lat="45.42022" lon="4.62447">
        <ele>897.92102050781</ele>
        <time>2009-08-27T11:29:58Z</time>
      </trkpt>
      <trkpt lat="45.41996" lon="4.62494">
        <ele>896.0009765625</ele>
        <time>2009-08-27T11:30:01Z</time>
      </trkpt>
      <trkpt lat="45.41947" lon="4.62495">
        <ele>891.57299804688</ele>
        <time>2009-08-27T11:30:06Z</time>
      </trkpt>
      <trkpt lat="45.41892" lon="4.62479">
        <ele>887.52001953125</ele>
        <time>2009-08-27T11:30:11Z</time>
      </trkpt>
      <trkpt lat="45.4186" lon="4.62504">
        <ele>885.14099121094</ele>
        <time>2009-08-27T11:30:14Z</time>
      </trkpt>
      <trkpt lat="45.4185" lon="4.62517">
        <ele>884.06402587891</ele>
        <time>2009-08-27T11:30:15Z</time>
      </trkpt>
      <trkpt lat="45.41837" lon="4.62632">
        <ele>876.89801025391</ele>
        <time>2009-08-27T11:30:22Z</time>
      </trkpt>
      <trkpt lat="45.41844" lon="4.62671">
        <ele>875.16198730469</ele>
        <time>2009-08-27T11:30:24Z</time>
      </trkpt>
      <trkpt lat="45.41867" lon="4.62868">
        <ele>863.96301269531</ele>
        <time>2009-08-27T11:30:34Z</time>
      </trkpt>
      <trkpt lat="45.41865" lon="4.6307">
        <ele>852.59197998047</ele>
        <time>2009-08-27T11:30:44Z</time>
      </trkpt>
      <trkpt lat="45.41856" lon="4.63192">
        <ele>846.09399414062</ele>
        <time>2009-08-27T11:30:50Z</time>
      </trkpt>
      <trkpt lat="45.41847" lon="4.63273">
        <ele>841.16198730469</ele>
        <time>2009-08-27T11:30:54Z</time>
      </trkpt>
      <trkpt lat="45.41842" lon="4.63326">
        <ele>840.84002685547</ele>
        <time>2009-08-27T11:30:57Z</time>
      </trkpt>
      <trkpt lat="45.41861" lon="4.63338">
        <ele>839.22698974609</ele>
        <time>2009-08-27T11:31:02Z</time>
      </trkpt>
      <trkpt lat="45.4187" lon="4.63278">
        <ele>835.40100097656</ele>
        <time>2009-08-27T11:31:07Z</time>
      </trkpt>
      <trkpt lat="45.41882" lon="4.6324">
        <ele>833.14801025391</ele>
        <time>2009-08-27T11:31:10Z</time>
      </trkpt>
      <trkpt lat="45.41945" lon="4.63081">
        <ele>822.26098632812</ele>
        <time>2009-08-27T11:31:21Z</time>
      </trkpt>
      <trkpt lat="45.41982" lon="4.6292">
        <ele>813.05603027344</ele>
        <time>2009-08-27T11:31:30Z</time>
      </trkpt>
      <trkpt lat="45.42001" lon="4.62875">
        <ele>811.05200195312</ele>
        <time>2009-08-27T11:31:33Z</time>
      </trkpt>
      <trkpt lat="45.42061" lon="4.62872">
        <ele>805.91802978516</ele>
        <time>2009-08-27T11:31:39Z</time>
      </trkpt>
      <trkpt lat="45.42072" lon="4.62879">
        <ele>804.80200195312</ele>
        <time>2009-08-27T11:31:40Z</time>
      </trkpt>
      <trkpt lat="45.42136" lon="4.62882">
        <ele>799.17901611328</ele>
        <time>2009-08-27T11:31:46Z</time>
      </trkpt>
      <trkpt lat="45.42249" lon="4.62778">
        <ele>789.65899658203</ele>
        <time>2009-08-27T11:31:56Z</time>
      </trkpt>
      <trkpt lat="45.42271" lon="4.62758">
        <ele>787.04498291016</ele>
        <time>2009-08-27T11:31:58Z</time>
      </trkpt>
      <trkpt lat="45.42305" lon="4.62744">
        <ele>785.15197753906</ele>
        <time>2009-08-27T11:32:01Z</time>
      </trkpt>
      <trkpt lat="45.42333" lon="4.62792">
        <ele>780.98101806641</ele>
        <time>2009-08-27T11:32:05Z</time>
      </trkpt>
      <trkpt lat="45.42337" lon="4.62808">
        <ele>780.50598144531</ele>
        <time>2009-08-27T11:32:06Z</time>
      </trkpt>
      <trkpt lat="45.4235" lon="4.63017">
        <ele>768.49798583984</ele>
        <time>2009-08-27T11:32:18Z</time>
      </trkpt>
      <trkpt lat="45.42351" lon="4.63036">
        <ele>766.99200439453</ele>
        <time>2009-08-27T11:32:19Z</time>
      </trkpt>
      <trkpt lat="45.42367" lon="4.63125">
        <ele>760.90002441406</ele>
        <time>2009-08-27T11:32:24Z</time>
      </trkpt>
      <trkpt lat="45.42395" lon="4.63187">
        <ele>756.95599365234</ele>
        <time>2009-08-27T11:32:28Z</time>
      </trkpt>
      <trkpt lat="45.42416" lon="4.63256">
        <ele>753.43298339844</ele>
        <time>2009-08-27T11:32:32Z</time>
      </trkpt>
      <trkpt lat="45.4241" lon="4.6345">
        <ele>742.57702636719</ele>
        <time>2009-08-27T11:32:42Z</time>
      </trkpt>
      <trkpt lat="45.42415" lon="4.63488">
        <ele>740.5419921875</ele>
        <time>2009-08-27T11:32:44Z</time>
      </trkpt>
      <trkpt lat="45.42409" lon="4.63565">
        <ele>735.98101806641</ele>
        <time>2009-08-27T11:32:48Z</time>
      </trkpt>
      <trkpt lat="45.42388" lon="4.63639">
        <ele>732.08898925781</ele>
        <time>2009-08-27T11:32:52Z</time>
      </trkpt>
      <trkpt lat="45.4239" lon="4.63716">
        <ele>727.39001464844</ele>
        <time>2009-08-27T11:32:56Z</time>
      </trkpt>
      <trkpt lat="45.42384" lon="4.63794">
        <ele>722.62200927734</ele>
        <time>2009-08-27T11:33:00Z</time>
      </trkpt>
      <trkpt lat="45.42382" lon="4.63872">
        <ele>720.89697265625</ele>
        <time>2009-08-27T11:33:04Z</time>
      </trkpt>
      <trkpt lat="45.42343" lon="4.64104">
        <ele>710.57098388672</ele>
        <time>2009-08-27T11:33:17Z</time>
      </trkpt>
      <trkpt lat="45.42299" lon="4.64282">
        <ele>699.84899902344</ele>
        <time>2009-08-27T11:33:27Z</time>
      </trkpt>
      <trkpt lat="45.42246" lon="4.64437">
        <ele>690.69702148438</ele>
        <time>2009-08-27T11:33:36Z</time>
      </trkpt>
      <trkpt lat="45.42241" lon="4.64474">
        <ele>688.72399902344</ele>
        <time>2009-08-27T11:33:38Z</time>
      </trkpt>
      <trkpt lat="45.42255" lon="4.64669">
        <ele>678.27502441406</ele>
        <time>2009-08-27T11:33:48Z</time>
      </trkpt>
      <trkpt lat="45.42267" lon="4.64852">
        <ele>667.78198242188</ele>
        <time>2009-08-27T11:33:57Z</time>
      </trkpt>
      <trkpt lat="45.42274" lon="4.64972">
        <ele>661.56402587891</ele>
        <time>2009-08-27T11:34:03Z</time>
      </trkpt>
      <trkpt lat="45.42308" lon="4.65171">
        <ele>649.89501953125</ele>
        <time>2009-08-27T11:34:13Z</time>
      </trkpt>
      <trkpt lat="45.42351" lon="4.65355">
        <ele>638.59997558594</ele>
        <time>2009-08-27T11:34:22Z</time>
      </trkpt>
      <trkpt lat="45.42371" lon="4.65414">
        <ele>635.55102539062</ele>
        <time>2009-08-27T11:34:25Z</time>
      </trkpt>
      <trkpt lat="45.42403" lon="4.65601">
        <ele>626.10900878906</ele>
        <time>2009-08-27T11:34:34Z</time>
      </trkpt>
      <trkpt lat="45.42457" lon="4.65774">
        <ele>615.51702880859</ele>
        <time>2009-08-27T11:34:43Z</time>
      </trkpt>
      <trkpt lat="45.42552" lon="4.65902">
        <ele>605.80297851562</ele>
        <time>2009-08-27T11:34:52Z</time>
      </trkpt>
      <trkpt lat="45.42577" lon="4.65924">
        <ele>604.00299072266</ele>
        <time>2009-08-27T11:34:54Z</time>
      </trkpt>
      <trkpt lat="45.42691" lon="4.65975">
        <ele>594.74200439453</ele>
        <time>2009-08-27T11:35:02Z</time>
      </trkpt>
      <trkpt lat="45.42732" lon="4.65997">
        <ele>591.83099365234</ele>
        <time>2009-08-27T11:35:05Z</time>
      </trkpt>
      <trkpt lat="45.4281" lon="4.65971">
        <ele>587.01702880859</ele>
        <time>2009-08-27T11:35:11Z</time>
      </trkpt>
      <trkpt lat="45.42818" lon="4.65959">
        <ele>586.31097412109</ele>
        <time>2009-08-27T11:35:12Z</time>
      </trkpt>
      <trkpt lat="45.42849" lon="4.65934">
        <ele>585.60699462891</ele>
        <time>2009-08-27T11:35:19Z</time>
      </trkpt>
      <trkpt lat="45.42849" lon="4.65941">
        <ele>584.833984375</ele>
        <time>2009-08-27T11:35:24Z</time>
      </trkpt>
      <trkpt lat="45.42842" lon="4.65958">
        <ele>583.63098144531</ele>
        <time>2009-08-27T11:35:28Z</time>
      </trkpt>
      <trkpt lat="45.4282" lon="4.66004">
        <ele>581.4169921875</ele>
        <time>2009-08-27T11:35:34Z</time>
      </trkpt>
      <trkpt lat="45.42805" lon="4.66044">
        <ele>579.76800537109</ele>
        <time>2009-08-27T11:35:38Z</time>
      </trkpt>
      <trkpt lat="45.42792" lon="4.66101">
        <ele>578.55297851562</ele>
        <time>2009-08-27T11:35:43Z</time>
      </trkpt>
      <trkpt lat="45.42752" lon="4.66126">
        <ele>575.51599121094</ele>
        <time>2009-08-27T11:35:49Z</time>
      </trkpt>
      <trkpt lat="45.42744" lon="4.66118">
        <ele>575.42797851562</ele>
        <time>2009-08-27T11:35:50Z</time>
      </trkpt>
      <trkpt lat="45.42714" lon="4.66085">
        <ele>573.76397705078</ele>
        <time>2009-08-27T11:35:54Z</time>
      </trkpt>
      <trkpt lat="45.4267" lon="4.66059">
        <ele>571.82598876953</ele>
        <time>2009-08-27T11:35:59Z</time>
      </trkpt>
      <trkpt lat="45.42641" lon="4.66047">
        <ele>570.60400390625</ele>
        <time>2009-08-27T11:36:02Z</time>
      </trkpt>
      <trkpt lat="45.4255" lon="4.66035">
        <ele>565.03900146484</ele>
        <time>2009-08-27T11:36:11Z</time>
      </trkpt>
      <trkpt lat="45.42529" lon="4.66036">
        <ele>564.94500732422</ele>
        <time>2009-08-27T11:36:13Z</time>
      </trkpt>
      <trkpt lat="45.42456" lon="4.66063">
        <ele>562.99597167969</ele>
        <time>2009-08-27T11:36:20Z</time>
      </trkpt>
      <trkpt lat="45.42411" lon="4.66127">
        <ele>563.28002929688</ele>
        <time>2009-08-27T11:36:27Z</time>
      </trkpt>
      <trkpt lat="45.42403" lon="4.66151">
        <ele>563.36700439453</ele>
        <time>2009-08-27T11:36:29Z</time>
      </trkpt>
      <trkpt lat="45.42352" lon="4.66203">
        <ele>563.75701904297</ele>
        <time>2009-08-27T11:36:37Z</time>
      </trkpt>
      <trkpt lat="45.42344" lon="4.66204">
        <ele>563.34997558594</ele>
        <time>2009-08-27T11:36:38Z</time>
      </trkpt>
      <trkpt lat="45.42265" lon="4.66213">
        <ele>560.01098632812</ele>
        <time>2009-08-27T11:36:47Z</time>
      </trkpt>
      <trkpt lat="45.42223" lon="4.66241">
        <ele>558.14599609375</ele>
        <time>2009-08-27T11:36:52Z</time>
      </trkpt>
      <trkpt lat="45.42159" lon="4.66288">
        <ele>553.71600341797</ele>
        <time>2009-08-27T11:36:59Z</time>
      </trkpt>
      <trkpt lat="45.42148" lon="4.66294">
        <ele>552.80499267578</ele>
        <time>2009-08-27T11:37:00Z</time>
      </trkpt>
      <trkpt lat="45.42103" lon="4.66303">
        <ele>550.81097412109</ele>
        <time>2009-08-27T11:37:04Z</time>
      </trkpt>
      <trkpt lat="45.42069" lon="4.66302">
        <ele>549.91900634766</ele>
        <time>2009-08-27T11:37:07Z</time>
      </trkpt>
      <trkpt lat="45.4202" lon="4.66335">
        <ele>546.39001464844</ele>
        <time>2009-08-27T11:37:12Z</time>
      </trkpt>
      <trkpt lat="45.42013" lon="4.66347">
        <ele>545.458984375</ele>
        <time>2009-08-27T11:37:13Z</time>
      </trkpt>
      <trkpt lat="45.41993" lon="4.66387">
        <ele>544.02398681641</ele>
        <time>2009-08-27T11:37:16Z</time>
      </trkpt>
      <trkpt lat="45.41948" lon="4.6648">
        <ele>540.0830078125</ele>
        <time>2009-08-27T11:37:23Z</time>
      </trkpt>
      <trkpt lat="45.41892" lon="4.66558">
        <ele>536.82000732422</ele>
        <time>2009-08-27T11:37:30Z</time>
      </trkpt>
      <trkpt lat="45.41857" lon="4.66589">
        <ele>535.60900878906</ele>
        <time>2009-08-27T11:37:34Z</time>
      </trkpt>
      <trkpt lat="45.41829" lon="4.66628">
        <ele>534.84100341797</ele>
        <time>2009-08-27T11:37:38Z</time>
      </trkpt>
      <trkpt lat="45.41811" lon="4.66676">
        <ele>534.03900146484</ele>
        <time>2009-08-27T11:37:42Z</time>
      </trkpt>
      <trkpt lat="45.418" lon="4.66836">
        <ele>530.87097167969</ele>
        <time>2009-08-27T11:37:54Z</time>
      </trkpt>
      <trkpt lat="45.41797" lon="4.66906">
        <ele>529.32000732422</ele>
        <time>2009-08-27T11:38:02Z</time>
      </trkpt>
      <trkpt lat="45.41797" lon="4.66948">
        <ele>529.05200195312</ele>
        <time>2009-08-27T11:38:07Z</time>
      </trkpt>
      <trkpt lat="45.41799" lon="4.66979">
        <ele>528.45397949219</ele>
        <time>2009-08-27T11:38:13Z</time>
      </trkpt>
      <trkpt lat="45.41803" lon="4.66972">
        <ele>528.52502441406</ele>
        <time>2009-08-27T11:38:19Z</time>
      </trkpt>
      <trkpt lat="45.41804" lon="4.66958">
        <ele>529.19396972656</ele>
        <time>2009-08-27T11:38:25Z</time>
      </trkpt>
      <trkpt lat="45.41799" lon="4.66961">
        <ele>525.57098388672</ele>
        <time>2009-08-27T11:38:48Z</time>
      </trkpt>
      <trkpt lat="45.418" lon="4.6696">
        <ele>526.86297607422</ele>
        <time>2009-08-27T11:38:52Z</time>
      </trkpt>
      <trkpt lat="45.41794" lon="4.66958">
        <ele>527.39300537109</ele>
        <time>2009-08-27T11:38:57Z</time>
      </trkpt>
      <trkpt lat="45.41796" lon="4.66958">
        <ele>528.458984375</ele>
        <time>2009-08-27T11:38:59Z</time>
      </trkpt>
      <trkpt lat="45.41796" lon="4.66962">
        <ele>528.42901611328</ele>
        <time>2009-08-27T11:39:27Z</time>
      </trkpt>
      <trkpt lat="45.41794" lon="4.66986">
        <ele>526.86700439453</ele>
        <time>2009-08-27T11:39:36Z</time>
      </trkpt>
      <trkpt lat="45.41792" lon="4.67028">
        <ele>524.49597167969</ele>
        <time>2009-08-27T11:39:42Z</time>
      </trkpt>
      <trkpt lat="45.4179" lon="4.67086">
        <ele>522.97900390625</ele>
        <time>2009-08-27T11:39:51Z</time>
      </trkpt>
      <trkpt lat="45.41788" lon="4.67106">
        <ele>521.50402832031</ele>
        <time>2009-08-27T11:39:54Z</time>
      </trkpt>
      <trkpt lat="45.4177" lon="4.6713">
        <ele>519.66802978516</ele>
        <time>2009-08-27T11:39:58Z</time>
      </trkpt>
      <trkpt lat="45.41764" lon="4.67135">
        <ele>519.41198730469</ele>
        <time>2009-08-27T11:39:59Z</time>
      </trkpt>
      <trkpt lat="45.41717" lon="4.67117">
        <ele>516.87097167969</ele>
        <time>2009-08-27T11:40:07Z</time>
      </trkpt>
      <trkpt lat="45.41706" lon="4.67102">
        <ele>516.35302734375</ele>
        <time>2009-08-27T11:40:09Z</time>
      </trkpt>
      <trkpt lat="45.41696" lon="4.67086">
        <ele>515.64099121094</ele>
        <time>2009-08-27T11:40:11Z</time>
      </trkpt>
      <trkpt lat="45.4167" lon="4.66983">
        <ele>512.08197021484</ele>
        <time>2009-08-27T11:40:20Z</time>
      </trkpt>
      <trkpt lat="45.41669" lon="4.66928">
        <ele>510.09600830078</ele>
        <time>2009-08-27T11:40:24Z</time>
      </trkpt>
      <trkpt lat="45.41674" lon="4.66887">
        <ele>509.05099487305</ele>
        <time>2009-08-27T11:40:27Z</time>
      </trkpt>
      <trkpt lat="45.4166" lon="4.66838">
        <ele>508.1969909668</ele>
        <time>2009-08-27T11:40:33Z</time>
      </trkpt>
      <trkpt lat="45.41648" lon="4.66822">
        <ele>506.97299194336</ele>
        <time>2009-08-27T11:40:36Z</time>
      </trkpt>
      <trkpt lat="45.41625" lon="4.66761">
        <ele>503.99798583984</ele>
        <time>2009-08-27T11:40:43Z</time>
      </trkpt>
      <trkpt lat="45.41618" lon="4.66742">
        <ele>503.16198730469</ele>
        <time>2009-08-27T11:40:45Z</time>
      </trkpt>
      <trkpt lat="45.41624" lon="4.66671">
        <ele>500.76501464844</ele>
        <time>2009-08-27T11:40:51Z</time>
      </trkpt>
      <trkpt lat="45.41647" lon="4.66615">
        <ele>498.46398925781</ele>
        <time>2009-08-27T11:40:56Z</time>
      </trkpt>
      <trkpt lat="45.41666" lon="4.66585">
        <ele>497.34100341797</ele>
        <time>2009-08-27T11:40:59Z</time>
      </trkpt>
      <trkpt lat="45.4167" lon="4.66505">
        <ele>493.3219909668</ele>
        <time>2009-08-27T11:41:05Z</time>
      </trkpt>
      <trkpt lat="45.41622" lon="4.66494">
        <ele>491.9049987793</ele>
        <time>2009-08-27T11:41:10Z</time>
      </trkpt>
      <trkpt lat="45.41575" lon="4.66556">
        <ele>489.6789855957</ele>
        <time>2009-08-27T11:41:16Z</time>
      </trkpt>
      <trkpt lat="45.4157" lon="4.6657">
        <ele>489.71398925781</ele>
        <time>2009-08-27T11:41:17Z</time>
      </trkpt>
      <trkpt lat="45.41539" lon="4.66648">
        <ele>489.98699951172</ele>
        <time>2009-08-27T11:41:23Z</time>
      </trkpt>
      <trkpt lat="45.4152" lon="4.66694">
        <ele>490.22198486328</ele>
        <time>2009-08-27T11:41:27Z</time>
      </trkpt>
      <trkpt lat="45.41512" lon="4.66756">
        <ele>490.67199707031</ele>
        <time>2009-08-27T11:41:32Z</time>
      </trkpt>
      <trkpt lat="45.41516" lon="4.66818">
        <ele>490.22799682617</ele>
        <time>2009-08-27T11:41:37Z</time>
      </trkpt>
      <trkpt lat="45.41494" lon="4.6685">
        <ele>490.25799560547</ele>
        <time>2009-08-27T11:41:42Z</time>
      </trkpt>
      <trkpt lat="45.41468" lon="4.66795">
        <ele>490.95300292969</ele>
        <time>2009-08-27T11:41:48Z</time>
      </trkpt>
      <trkpt lat="45.41458" lon="4.66712">
        <ele>491.25500488281</ele>
        <time>2009-08-27T11:41:56Z</time>
      </trkpt>
      <trkpt lat="45.4142" lon="4.6667">
        <ele>491.83499145508</ele>
        <time>2009-08-27T11:42:03Z</time>
      </trkpt>
      <trkpt lat="45.41381" lon="4.66708">
        <ele>491.99301147461</ele>
        <time>2009-08-27T11:42:09Z</time>
      </trkpt>
      <trkpt lat="45.41377" lon="4.66731">
        <ele>492.02099609375</ele>
        <time>2009-08-27T11:42:11Z</time>
      </trkpt>
      <trkpt lat="45.41376" lon="4.66755">
        <ele>492.11599731445</ele>
        <time>2009-08-27T11:42:13Z</time>
      </trkpt>
      <trkpt lat="45.4141" lon="4.66898">
        <ele>492.65798950195</ele>
        <time>2009-08-27T11:42:26Z</time>
      </trkpt>
      <trkpt lat="45.41419" lon="4.66949">
        <ele>492.60198974609</ele>
        <time>2009-08-27T11:42:31Z</time>
      </trkpt>
      <trkpt lat="45.41392" lon="4.67031">
        <ele>491.81900024414</ele>
        <time>2009-08-27T11:42:40Z</time>
      </trkpt>
      <trkpt lat="45.41336" lon="4.67055">
        <ele>489.52301025391</ele>
        <time>2009-08-27T11:42:47Z</time>
      </trkpt>
      <trkpt lat="45.41261" lon="4.67055">
        <ele>486.5419921875</ele>
        <time>2009-08-27T11:42:55Z</time>
      </trkpt>
      <trkpt lat="45.41206" lon="4.67107">
        <ele>484.41400146484</ele>
        <time>2009-08-27T11:43:02Z</time>
      </trkpt>
      <trkpt lat="45.41199" lon="4.67135">
        <ele>483.60598754883</ele>
        <time>2009-08-27T11:43:04Z</time>
      </trkpt>
      <trkpt lat="45.41197" lon="4.67165">
        <ele>483.54800415039</ele>
        <time>2009-08-27T11:43:06Z</time>
      </trkpt>
      <trkpt lat="45.412" lon="4.67352">
        <ele>480.85800170898</ele>
        <time>2009-08-27T11:43:18Z</time>
      </trkpt>
      <trkpt lat="45.41179" lon="4.67507">
        <ele>479.62899780273</ele>
        <time>2009-08-27T11:43:28Z</time>
      </trkpt>
      <trkpt lat="45.41153" lon="4.67679">
        <ele>477.61499023438</ele>
        <time>2009-08-27T11:43:39Z</time>
      </trkpt>
      <trkpt lat="45.41159" lon="4.67925">
        <ele>474.79501342773</ele>
        <time>2009-08-27T11:43:55Z</time>
      </trkpt>
      <trkpt lat="45.41119" lon="4.68005">
        <ele>474.73599243164</ele>
        <time>2009-08-27T11:44:02Z</time>
      </trkpt>
      <trkpt lat="45.411" lon="4.68015">
        <ele>475.45401000977</ele>
        <time>2009-08-27T11:44:04Z</time>
      </trkpt>
      <trkpt lat="45.40952" lon="4.68074">
        <ele>471.46600341797</ele>
        <time>2009-08-27T11:44:19Z</time>
      </trkpt>
      <trkpt lat="45.40811" lon="4.68093">
        <ele>468.07998657227</ele>
        <time>2009-08-27T11:44:31Z</time>
      </trkpt>
      <trkpt lat="45.40716" lon="4.68093">
        <ele>467.74099731445</ele>
        <time>2009-08-27T11:44:39Z</time>
      </trkpt>
      <trkpt lat="45.40657" lon="4.68134">
        <ele>465.98300170898</ele>
        <time>2009-08-27T11:44:45Z</time>
      </trkpt>
      <trkpt lat="45.40598" lon="4.68228">
        <ele>460.65200805664</ele>
        <time>2009-08-27T11:44:52Z</time>
      </trkpt>
      <trkpt lat="45.40554" lon="4.68264">
        <ele>460.07901000977</ele>
        <time>2009-08-27T11:44:56Z</time>
      </trkpt>
      <trkpt lat="45.40409" lon="4.68332">
        <ele>456.99200439453</ele>
        <time>2009-08-27T11:45:10Z</time>
      </trkpt>
      <trkpt lat="45.40389" lon="4.68339">
        <ele>456.88000488281</ele>
        <time>2009-08-27T11:45:12Z</time>
      </trkpt>
      <trkpt lat="45.40345" lon="4.68344">
        <ele>457.46798706055</ele>
        <time>2009-08-27T11:45:16Z</time>
      </trkpt>
      <trkpt lat="45.40282" lon="4.6839">
        <ele>457.54400634766</ele>
        <time>2009-08-27T11:45:23Z</time>
      </trkpt>
      <trkpt lat="45.40276" lon="4.68402">
        <ele>457.2799987793</ele>
        <time>2009-08-27T11:45:24Z</time>
      </trkpt>
      <trkpt lat="45.40239" lon="4.68474">
        <ele>455.03500366211</ele>
        <time>2009-08-27T11:45:30Z</time>
      </trkpt>
      <trkpt lat="45.40195" lon="4.68575">
        <ele>455.0419921875</ele>
        <time>2009-08-27T11:45:38Z</time>
      </trkpt>
      <trkpt lat="45.40164" lon="4.68612">
        <ele>455.28799438477</ele>
        <time>2009-08-27T11:45:42Z</time>
      </trkpt>
      <trkpt lat="45.40073" lon="4.68684">
        <ele>456.72799682617</ele>
        <time>2009-08-27T11:45:52Z</time>
      </trkpt>
      <trkpt lat="45.40025" lon="4.68699">
        <ele>458.47299194336</ele>
        <time>2009-08-27T11:45:57Z</time>
      </trkpt>
      <trkpt lat="45.39964" lon="4.6869">
        <ele>459.72399902344</ele>
        <time>2009-08-27T11:46:03Z</time>
      </trkpt>
      <trkpt lat="45.39927" lon="4.68665">
        <ele>459.15798950195</ele>
        <time>2009-08-27T11:46:07Z</time>
      </trkpt>
      <trkpt lat="45.39895" lon="4.68629">
        <ele>458.70700073242</ele>
        <time>2009-08-27T11:46:11Z</time>
      </trkpt>
      <trkpt lat="45.39811" lon="4.68593">
        <ele>453.53900146484</ele>
        <time>2009-08-27T11:46:19Z</time>
      </trkpt>
      <trkpt lat="45.39758" lon="4.68609">
        <ele>450.47900390625</ele>
        <time>2009-08-27T11:46:24Z</time>
      </trkpt>
      <trkpt lat="45.39727" lon="4.68622">
        <ele>448.14498901367</ele>
        <time>2009-08-27T11:46:27Z</time>
      </trkpt>
      <trkpt lat="45.39642" lon="4.68626">
        <ele>447.37799072266</ele>
        <time>2009-08-27T11:46:35Z</time>
      </trkpt>
      <trkpt lat="45.39499" lon="4.68657">
        <ele>447.87600708008</ele>
        <time>2009-08-27T11:46:49Z</time>
      </trkpt>
      <trkpt lat="45.39479" lon="4.68668">
        <ele>448.05999755859</ele>
        <time>2009-08-27T11:46:51Z</time>
      </trkpt>
      <trkpt lat="45.39446" lon="4.68704">
        <ele>447.95700073242</ele>
        <time>2009-08-27T11:46:55Z</time>
      </trkpt>
      <trkpt lat="45.39396" lon="4.68779">
        <ele>447.32598876953</ele>
        <time>2009-08-27T11:47:02Z</time>
      </trkpt>
      <trkpt lat="45.39328" lon="4.68814">
        <ele>445.09399414062</ele>
        <time>2009-08-27T11:47:09Z</time>
      </trkpt>
      <trkpt lat="45.39317" lon="4.68812">
        <ele>444.10900878906</ele>
        <time>2009-08-27T11:47:10Z</time>
      </trkpt>
      <trkpt lat="45.3922" lon="4.68793">
        <ele>440.20599365234</ele>
        <time>2009-08-27T11:47:19Z</time>
      </trkpt>
      <trkpt lat="45.39139" lon="4.68779">
        <ele>440.87701416016</ele>
        <time>2009-08-27T11:47:27Z</time>
      </trkpt>
      <trkpt lat="45.39028" lon="4.68705">
        <ele>444.0710144043</ele>
        <time>2009-08-27T11:47:39Z</time>
      </trkpt>
      <trkpt lat="45.38958" lon="4.68682">
        <ele>446.05200195312</ele>
        <time>2009-08-27T11:47:46Z</time>
      </trkpt>
      <trkpt lat="45.38866" lon="4.68684">
        <ele>446.48599243164</ele>
        <time>2009-08-27T11:47:55Z</time>
      </trkpt>
      <trkpt lat="45.38797" lon="4.68661">
        <ele>446.67001342773</ele>
        <time>2009-08-27T11:48:02Z</time>
      </trkpt>
      <trkpt lat="45.38691" lon="4.68563">
        <ele>446.45498657227</ele>
        <time>2009-08-27T11:48:14Z</time>
      </trkpt>
      <trkpt lat="45.38676" lon="4.68542">
        <ele>446.65701293945</ele>
        <time>2009-08-27T11:48:16Z</time>
      </trkpt>
      <trkpt lat="45.38577" lon="4.68465">
        <ele>447.60000610352</ele>
        <time>2009-08-27T11:48:27Z</time>
      </trkpt>
      <trkpt lat="45.38446" lon="4.68372">
        <ele>447.91400146484</ele>
        <time>2009-08-27T11:48:41Z</time>
      </trkpt>
      <trkpt lat="45.38379" lon="4.68335">
        <ele>449.18200683594</ele>
        <time>2009-08-27T11:48:48Z</time>
      </trkpt>
      <trkpt lat="45.38305" lon="4.68319">
        <ele>447</ele>
        <time>2009-08-27T11:48:55Z</time>
      </trkpt>
      <trkpt lat="45.38275" lon="4.68308">
        <ele>444.39599609375</ele>
        <time>2009-08-27T11:48:58Z</time>
      </trkpt>
      <trkpt lat="45.38173" lon="4.68328">
        <ele>442.35598754883</ele>
        <time>2009-08-27T11:49:08Z</time>
      </trkpt>
      <trkpt lat="45.38083" lon="4.68367">
        <ele>438.50500488281</ele>
        <time>2009-08-27T11:49:17Z</time>
      </trkpt>
      <trkpt lat="45.37992" lon="4.68363">
        <ele>433.94000244141</ele>
        <time>2009-08-27T11:49:25Z</time>
      </trkpt>
      <trkpt lat="45.3792" lon="4.68346">
        <ele>433.06500244141</ele>
        <time>2009-08-27T11:49:32Z</time>
      </trkpt>
      <trkpt lat="45.37811" lon="4.68291">
        <ele>432.13900756836</ele>
        <time>2009-08-27T11:49:43Z</time>
      </trkpt>
      <trkpt lat="45.37746" lon="4.68249">
        <ele>434.93399047852</ele>
        <time>2009-08-27T11:49:50Z</time>
      </trkpt>
      <trkpt lat="45.37717" lon="4.68234">
        <ele>436.32901000977</ele>
        <time>2009-08-27T11:49:53Z</time>
      </trkpt>
      <trkpt lat="45.37648" lon="4.68203">
        <ele>438.24499511719</ele>
        <time>2009-08-27T11:50:00Z</time>
      </trkpt>
      <trkpt lat="45.37637" lon="4.68201">
        <ele>438.15798950195</ele>
        <time>2009-08-27T11:50:01Z</time>
      </trkpt>
      <trkpt lat="45.37553" lon="4.68213">
        <ele>436.01400756836</ele>
        <time>2009-08-27T11:50:09Z</time>
      </trkpt>
      <trkpt lat="45.37542" lon="4.68216">
        <ele>435.72900390625</ele>
        <time>2009-08-27T11:50:10Z</time>
      </trkpt>
      <trkpt lat="45.37344" lon="4.6826">
        <ele>434.18701171875</ele>
        <time>2009-08-27T11:50:29Z</time>
      </trkpt>
      <trkpt lat="45.37219" lon="4.68255">
        <ele>433.18099975586</ele>
        <time>2009-08-27T11:50:41Z</time>
      </trkpt>
      <trkpt lat="45.37125" lon="4.68192">
        <ele>431.47399902344</ele>
        <time>2009-08-27T11:50:51Z</time>
      </trkpt>
      <trkpt lat="45.37085" lon="4.68184">
        <ele>432.43600463867</ele>
        <time>2009-08-27T11:50:55Z</time>
      </trkpt>
      <trkpt lat="45.36887" lon="4.68192">
        <ele>430.37399291992</ele>
        <time>2009-08-27T11:51:14Z</time>
      </trkpt>
      <trkpt lat="45.36806" lon="4.68178">
        <ele>433.1369934082</ele>
        <time>2009-08-27T11:51:22Z</time>
      </trkpt>
      <trkpt lat="45.36705" lon="4.68206">
        <ele>434.92199707031</ele>
        <time>2009-08-27T11:51:32Z</time>
      </trkpt>
      <trkpt lat="45.3658" lon="4.68241">
        <ele>432.10101318359</ele>
        <time>2009-08-27T11:51:44Z</time>
      </trkpt>
      <trkpt lat="45.36487" lon="4.68239">
        <ele>431.02899169922</ele>
        <time>2009-08-27T11:51:53Z</time>
      </trkpt>
      <trkpt lat="45.36456" lon="4.68242">
        <ele>430.61099243164</ele>
        <time>2009-08-27T11:51:56Z</time>
      </trkpt>
      <trkpt lat="45.36416" lon="4.68262">
        <ele>429.125</ele>
        <time>2009-08-27T11:52:00Z</time>
      </trkpt>
      <trkpt lat="45.36328" lon="4.6837">
        <ele>426.21499633789</ele>
        <time>2009-08-27T11:52:11Z</time>
      </trkpt>
      <trkpt lat="45.36287" lon="4.68445">
        <ele>425.59799194336</ele>
        <time>2009-08-27T11:52:18Z</time>
      </trkpt>
      <trkpt lat="45.36269" lon="4.68487">
        <ele>424.83999633789</ele>
        <time>2009-08-27T11:52:22Z</time>
      </trkpt>
      <trkpt lat="45.36253" lon="4.68509">
        <ele>424.58200073242</ele>
        <time>2009-08-27T11:52:25Z</time>
      </trkpt>
      <trkpt lat="45.36229" lon="4.68511">
        <ele>423.96798706055</ele>
        <time>2009-08-27T11:52:30Z</time>
      </trkpt>
      <trkpt lat="45.36206" lon="4.68489">
        <ele>424.1369934082</ele>
        <time>2009-08-27T11:52:36Z</time>
      </trkpt>
      <trkpt lat="45.36176" lon="4.68503">
        <ele>422.45999145508</ele>
        <time>2009-08-27T11:52:42Z</time>
      </trkpt>
      <trkpt lat="45.36115" lon="4.68517">
        <ele>421.8219909668</ele>
        <time>2009-08-27T11:52:49Z</time>
      </trkpt>
      <trkpt lat="45.36063" lon="4.68515">
        <ele>422.52700805664</ele>
        <time>2009-08-27T11:52:55Z</time>
      </trkpt>
      <trkpt lat="45.3597" lon="4.68474">
        <ele>424.27398681641</ele>
        <time>2009-08-27T11:53:07Z</time>
      </trkpt>
      <trkpt lat="45.35932" lon="4.68453">
        <ele>423.73001098633</ele>
        <time>2009-08-27T11:53:12Z</time>
      </trkpt>
      <trkpt lat="45.35925" lon="4.68449">
        <ele>423.83999633789</ele>
        <time>2009-08-27T11:53:13Z</time>
      </trkpt>
      <trkpt lat="45.35887" lon="4.68443">
        <ele>423.24301147461</ele>
        <time>2009-08-27T11:53:18Z</time>
      </trkpt>
      <trkpt lat="45.35865" lon="4.68434">
        <ele>422.94299316406</ele>
        <time>2009-08-27T11:53:21Z</time>
      </trkpt>
      <trkpt lat="45.35832" lon="4.68401">
        <ele>423.74301147461</ele>
        <time>2009-08-27T11:53:26Z</time>
      </trkpt>
      <trkpt lat="45.35737" lon="4.68349">
        <ele>424.4280090332</ele>
        <time>2009-08-27T11:53:39Z</time>
      </trkpt>
      <trkpt lat="45.356" lon="4.6827">
        <ele>423.61599731445</ele>
        <time>2009-08-27T11:53:57Z</time>
      </trkpt>
      <trkpt lat="45.35513" lon="4.68226">
        <ele>425.09799194336</ele>
        <time>2009-08-27T11:54:10Z</time>
      </trkpt>
      <trkpt lat="45.35363" lon="4.6818">
        <ele>423.37799072266</ele>
        <time>2009-08-27T11:54:30Z</time>
      </trkpt>
      <trkpt lat="45.35356" lon="4.68175">
        <ele>423.18798828125</ele>
        <time>2009-08-27T11:54:31Z</time>
      </trkpt>
      <trkpt lat="45.35266" lon="4.68071">
        <ele>420.08099365234</ele>
        <time>2009-08-27T11:54:44Z</time>
      </trkpt>
      <trkpt lat="45.35194" lon="4.67998">
        <ele>415.33499145508</ele>
        <time>2009-08-27T11:54:53Z</time>
      </trkpt>
      <trkpt lat="45.35165" lon="4.67982">
        <ele>413.86999511719</ele>
        <time>2009-08-27T11:54:56Z</time>
      </trkpt>
      <trkpt lat="45.35145" lon="4.67982">
        <ele>413.77801513672</ele>
        <time>2009-08-27T11:54:58Z</time>
      </trkpt>
      <trkpt lat="45.35035" lon="4.68027">
        <ele>408.86499023438</ele>
        <time>2009-08-27T11:55:10Z</time>
      </trkpt>
      <trkpt lat="45.34939" lon="4.68078">
        <ele>404.81698608398</ele>
        <time>2009-08-27T11:55:21Z</time>
      </trkpt>
      <trkpt lat="45.3484" lon="4.68145">
        <ele>398.8030090332</ele>
        <time>2009-08-27T11:55:34Z</time>
      </trkpt>
      <trkpt lat="45.34832" lon="4.68153">
        <ele>398.75100708008</ele>
        <time>2009-08-27T11:55:35Z</time>
      </trkpt>
      <trkpt lat="45.34782" lon="4.68208">
        <ele>395.5299987793</ele>
        <time>2009-08-27T11:55:42Z</time>
      </trkpt>
      <trkpt lat="45.34775" lon="4.68217">
        <ele>395.44500732422</ele>
        <time>2009-08-27T11:55:43Z</time>
      </trkpt>
      <trkpt lat="45.34709" lon="4.68287">
        <ele>388.93301391602</ele>
        <time>2009-08-27T11:55:51Z</time>
      </trkpt>
      <trkpt lat="45.34631" lon="4.68302">
        <ele>385.08200073242</ele>
        <time>2009-08-27T11:55:58Z</time>
      </trkpt>
      <trkpt lat="45.34608" lon="4.68339">
        <ele>387.44799804688</ele>
        <time>2009-08-27T11:56:02Z</time>
      </trkpt>
      <trkpt lat="45.34608" lon="4.68349">
        <ele>388.40100097656</ele>
        <time>2009-08-27T11:56:03Z</time>
      </trkpt>
      <trkpt lat="45.34608" lon="4.68369">
        <ele>389.54299926758</ele>
        <time>2009-08-27T11:56:05Z</time>
      </trkpt>
      <trkpt lat="45.34593" lon="4.68417">
        <ele>391.21099853516</ele>
        <time>2009-08-27T11:56:12Z</time>
      </trkpt>
      <trkpt lat="45.34581" lon="4.68454">
        <ele>393.02398681641</ele>
        <time>2009-08-27T11:56:19Z</time>
      </trkpt>
      <trkpt lat="45.3458" lon="4.68459">
        <ele>393.39898681641</ele>
        <time>2009-08-27T11:56:20Z</time>
      </trkpt>
      <trkpt lat="45.34573" lon="4.68492">
        <ele>394.92199707031</ele>
        <time>2009-08-27T11:56:26Z</time>
      </trkpt>
      <trkpt lat="45.34564" lon="4.68523">
        <ele>395.65399169922</ele>
        <time>2009-08-27T11:56:32Z</time>
      </trkpt>
      <trkpt lat="45.3456" lon="4.68533">
        <ele>395.89898681641</ele>
        <time>2009-08-27T11:56:34Z</time>
      </trkpt>
      <trkpt lat="45.3455" lon="4.68565">
        <ele>396.89401245117</ele>
        <time>2009-08-27T11:56:40Z</time>
      </trkpt>
      <trkpt lat="45.34536" lon="4.6861">
        <ele>399.21200561523</ele>
        <time>2009-08-27T11:56:49Z</time>
      </trkpt>
      <trkpt lat="45.34519" lon="4.68668">
        <ele>401.22799682617</ele>
        <time>2009-08-27T11:57:03Z</time>
      </trkpt>
      <trkpt lat="45.34507" lon="4.68739">
        <ele>403.59100341797</ele>
        <time>2009-08-27T11:57:18Z</time>
      </trkpt>
      <trkpt lat="45.34508" lon="4.6882">
        <ele>406.4049987793</ele>
        <time>2009-08-27T11:57:33Z</time>
      </trkpt>
      <trkpt lat="45.34501" lon="4.6884">
        <ele>406.72601318359</ele>
        <time>2009-08-27T11:57:37Z</time>
      </trkpt>
      <trkpt lat="45.34443" lon="4.68894">
        <ele>405.7080078125</ele>
        <time>2009-08-27T11:57:52Z</time>
      </trkpt>
      <trkpt lat="45.3442" lon="4.6891">
        <ele>403.99499511719</ele>
        <time>2009-08-27T11:57:56Z</time>
      </trkpt>
      <trkpt lat="45.34413" lon="4.68915">
        <ele>403.39300537109</ele>
        <time>2009-08-27T11:57:57Z</time>
      </trkpt>
      <trkpt lat="45.34361" lon="4.68911">
        <ele>400.82800292969</ele>
        <time>2009-08-27T11:58:04Z</time>
      </trkpt>
      <trkpt lat="45.34352" lon="4.68905">
        <ele>400.72500610352</ele>
        <time>2009-08-27T11:58:05Z</time>
      </trkpt>
      <trkpt lat="45.34302" lon="4.68871">
        <ele>396.84799194336</ele>
        <time>2009-08-27T11:58:11Z</time>
      </trkpt>
      <trkpt lat="45.34274" lon="4.68831">
        <ele>394.94799804688</ele>
        <time>2009-08-27T11:58:15Z</time>
      </trkpt>
      <trkpt lat="45.34262" lon="4.68773">
        <ele>392.57400512695</ele>
        <time>2009-08-27T11:58:19Z</time>
      </trkpt>
      <trkpt lat="45.34246" lon="4.68732">
        <ele>390.77398681641</ele>
        <time>2009-08-27T11:58:22Z</time>
      </trkpt>
      <trkpt lat="45.34204" lon="4.68721">
        <ele>389.32400512695</ele>
        <time>2009-08-27T11:58:26Z</time>
      </trkpt>
      <trkpt lat="45.34191" lon="4.68764">
        <ele>389.4280090332</ele>
        <time>2009-08-27T11:58:30Z</time>
      </trkpt>
      <trkpt lat="45.34192" lon="4.68777">
        <ele>389.79998779297</ele>
        <time>2009-08-27T11:58:31Z</time>
      </trkpt>
      <trkpt lat="45.34196" lon="4.68854">
        <ele>389.39801025391</ele>
        <time>2009-08-27T11:58:38Z</time>
      </trkpt>
      <trkpt lat="45.34225" lon="4.68966">
        <ele>388.54699707031</ele>
        <time>2009-08-27T11:58:50Z</time>
      </trkpt>
      <trkpt lat="45.34275" lon="4.69092">
        <ele>390.10598754883</ele>
        <time>2009-08-27T11:59:04Z</time>
      </trkpt>
      <trkpt lat="45.34287" lon="4.6913">
        <ele>390.73498535156</ele>
        <time>2009-08-27T11:59:09Z</time>
      </trkpt>
      <trkpt lat="45.34303" lon="4.69201">
        <ele>391.55999755859</ele>
        <time>2009-08-27T11:59:18Z</time>
      </trkpt>
      <trkpt lat="45.34304" lon="4.69375">
        <ele>392.74499511719</ele>
        <time>2009-08-27T11:59:39Z</time>
      </trkpt>
      <trkpt lat="45.34305" lon="4.694">
        <ele>393.20901489258</ele>
        <time>2009-08-27T11:59:42Z</time>
      </trkpt>
      <trkpt lat="45.34302" lon="4.69466">
        <ele>393.60900878906</ele>
        <time>2009-08-27T11:59:50Z</time>
      </trkpt>
      <trkpt lat="45.34301" lon="4.69491">
        <ele>393.59799194336</ele>
        <time>2009-08-27T11:59:53Z</time>
      </trkpt>
      <trkpt lat="45.34307" lon="4.69566">
        <ele>393.98400878906</ele>
        <time>2009-08-27T12:00:02Z</time>
      </trkpt>
      <trkpt lat="45.34293" lon="4.69676">
        <ele>395.02600097656</ele>
        <time>2009-08-27T12:00:16Z</time>
      </trkpt>
      <trkpt lat="45.34291" lon="4.69745">
        <ele>396.77099609375</ele>
        <time>2009-08-27T12:00:26Z</time>
      </trkpt>
      <trkpt lat="45.3429" lon="4.69781">
        <ele>397.02899169922</ele>
        <time>2009-08-27T12:00:31Z</time>
      </trkpt>
      <trkpt lat="45.34298" lon="4.69814">
        <ele>397.57598876953</ele>
        <time>2009-08-27T12:00:36Z</time>
      </trkpt>
      <trkpt lat="45.34335" lon="4.69904">
        <ele>399.57501220703</ele>
        <time>2009-08-27T12:00:51Z</time>
      </trkpt>
      <trkpt lat="45.34343" lon="4.69967">
        <ele>401.27899169922</ele>
        <time>2009-08-27T12:01:01Z</time>
      </trkpt>
      <trkpt lat="45.34353" lon="4.70003">
        <ele>401.87701416016</ele>
        <time>2009-08-27T12:01:07Z</time>
      </trkpt>
      <trkpt lat="45.34358" lon="4.7006">
        <ele>403.30700683594</ele>
        <time>2009-08-27T12:01:19Z</time>
      </trkpt>
      <trkpt lat="45.34359" lon="4.7007">
        <ele>403.25500488281</ele>
        <time>2009-08-27T12:01:21Z</time>
      </trkpt>
      <trkpt lat="45.34366" lon="4.70091">
        <ele>403.26501464844</ele>
        <time>2009-08-27T12:01:25Z</time>
      </trkpt>
      <trkpt lat="45.34372" lon="4.70101">
        <ele>403.23199462891</ele>
        <time>2009-08-27T12:01:27Z</time>
      </trkpt>
      <trkpt lat="45.34389" lon="4.70122">
        <ele>403.95001220703</ele>
        <time>2009-08-27T12:01:32Z</time>
      </trkpt>
      <trkpt lat="45.34404" lon="4.70147">
        <ele>404.73999023438</ele>
        <time>2009-08-27T12:01:37Z</time>
      </trkpt>
      <trkpt lat="45.34425" lon="4.70267">
        <ele>406.07998657227</ele>
        <time>2009-08-27T12:01:55Z</time>
      </trkpt>
      <trkpt lat="45.34463" lon="4.70403">
        <ele>407.69400024414</ele>
        <time>2009-08-27T12:02:15Z</time>
      </trkpt>
      <trkpt lat="45.34489" lon="4.70462">
        <ele>408.8219909668</ele>
        <time>2009-08-27T12:02:25Z</time>
      </trkpt>
      <trkpt lat="45.34509" lon="4.70593">
        <ele>410.51599121094</ele>
        <time>2009-08-27T12:02:43Z</time>
      </trkpt>
      <trkpt lat="45.34513" lon="4.70724">
        <ele>413.06900024414</ele>
        <time>2009-08-27T12:03:01Z</time>
      </trkpt>
      <trkpt lat="45.34536" lon="4.70843">
        <ele>412.01800537109</ele>
        <time>2009-08-27T12:03:17Z</time>
      </trkpt>
      <trkpt lat="45.34574" lon="4.70914">
        <ele>410.52099609375</ele>
        <time>2009-08-27T12:03:27Z</time>
      </trkpt>
      <trkpt lat="45.34596" lon="4.70987">
        <ele>409.3039855957</ele>
        <time>2009-08-27T12:03:35Z</time>
      </trkpt>
      <trkpt lat="45.346" lon="4.71005">
        <ele>409.03601074219</ele>
        <time>2009-08-27T12:03:37Z</time>
      </trkpt>
      <trkpt lat="45.34602" lon="4.71023">
        <ele>408.27301025391</ele>
        <time>2009-08-27T12:03:39Z</time>
      </trkpt>
      <trkpt lat="45.34599" lon="4.71061">
        <ele>407.06600952148</ele>
        <time>2009-08-27T12:03:43Z</time>
      </trkpt>
      <trkpt lat="45.34543" lon="4.71241">
        <ele>403.34298706055</ele>
        <time>2009-08-27T12:04:01Z</time>
      </trkpt>
      <trkpt lat="45.34539" lon="4.71252">
        <ele>403.04400634766</ele>
        <time>2009-08-27T12:04:02Z</time>
      </trkpt>
      <trkpt lat="45.34513" lon="4.71333">
        <ele>401.28799438477</ele>
        <time>2009-08-27T12:04:09Z</time>
      </trkpt>
      <trkpt lat="45.3443" lon="4.71472">
        <ele>399.04901123047</ele>
        <time>2009-08-27T12:04:23Z</time>
      </trkpt>
      <trkpt lat="45.34416" lon="4.71489">
        <ele>399.00698852539</ele>
        <time>2009-08-27T12:04:25Z</time>
      </trkpt>
      <trkpt lat="45.34366" lon="4.71522">
        <ele>396.83401489258</ele>
        <time>2009-08-27T12:04:31Z</time>
      </trkpt>
      <trkpt lat="45.34292" lon="4.7156">
        <ele>393.71899414062</ele>
        <time>2009-08-27T12:04:39Z</time>
      </trkpt>
      <trkpt lat="45.34253" lon="4.71582">
        <ele>391.60800170898</ele>
        <time>2009-08-27T12:04:43Z</time>
      </trkpt>
      <trkpt lat="45.34214" lon="4.71608">
        <ele>389.40200805664</ele>
        <time>2009-08-27T12:04:47Z</time>
      </trkpt>
      <trkpt lat="45.34196" lon="4.71626">
        <ele>388.16500854492</ele>
        <time>2009-08-27T12:04:49Z</time>
      </trkpt>
      <trkpt lat="45.341" lon="4.7173">
        <ele>383.12399291992</ele>
        <time>2009-08-27T12:05:00Z</time>
      </trkpt>
      <trkpt lat="45.34082" lon="4.71747">
        <ele>382.0710144043</ele>
        <time>2009-08-27T12:05:02Z</time>
      </trkpt>
      <trkpt lat="45.34056" lon="4.71776">
        <ele>380.83999633789</ele>
        <time>2009-08-27T12:05:05Z</time>
      </trkpt>
      <trkpt lat="45.34038" lon="4.71795">
        <ele>379.56298828125</ele>
        <time>2009-08-27T12:05:07Z</time>
      </trkpt>
      <trkpt lat="45.33958" lon="4.7188">
        <ele>374.60800170898</ele>
        <time>2009-08-27T12:05:16Z</time>
      </trkpt>
      <trkpt lat="45.33891" lon="4.71984">
        <ele>372.10101318359</ele>
        <time>2009-08-27T12:05:26Z</time>
      </trkpt>
      <trkpt lat="45.33894" lon="4.72049">
        <ele>369.55801391602</ele>
        <time>2009-08-27T12:05:32Z</time>
      </trkpt>
      <trkpt lat="45.33916" lon="4.72149">
        <ele>365.4169921875</ele>
        <time>2009-08-27T12:05:40Z</time>
      </trkpt>
      <trkpt lat="45.33915" lon="4.72206">
        <ele>363.32000732422</ele>
        <time>2009-08-27T12:05:44Z</time>
      </trkpt>
      <trkpt lat="45.33938" lon="4.72302">
        <ele>362.85000610352</ele>
        <time>2009-08-27T12:05:52Z</time>
      </trkpt>
      <trkpt lat="45.33969" lon="4.72383">
        <ele>363.15100097656</ele>
        <time>2009-08-27T12:06:00Z</time>
      </trkpt>
      <trkpt lat="45.33983" lon="4.72482">
        <ele>365.48498535156</ele>
        <time>2009-08-27T12:06:11Z</time>
      </trkpt>
      <trkpt lat="45.33989" lon="4.72537">
        <ele>365.97698974609</ele>
        <time>2009-08-27T12:06:18Z</time>
      </trkpt>
      <trkpt lat="45.33985" lon="4.72659">
        <ele>363.4289855957</ele>
        <time>2009-08-27T12:06:31Z</time>
      </trkpt>
      <trkpt lat="45.33965" lon="4.72811">
        <ele>360.64999389648</ele>
        <time>2009-08-27T12:06:45Z</time>
      </trkpt>
      <trkpt lat="45.33928" lon="4.72944">
        <ele>356.26599121094</ele>
        <time>2009-08-27T12:06:57Z</time>
      </trkpt>
      <trkpt lat="45.33847" lon="4.73135">
        <ele>353.5119934082</ele>
        <time>2009-08-27T12:07:15Z</time>
      </trkpt>
      <trkpt lat="45.33814" lon="4.73251">
        <ele>354.57699584961</ele>
        <time>2009-08-27T12:07:27Z</time>
      </trkpt>
      <trkpt lat="45.33765" lon="4.73443">
        <ele>353.41400146484</ele>
        <time>2009-08-27T12:07:46Z</time>
      </trkpt>
      <trkpt lat="45.33737" lon="4.73645">
        <ele>351.45001220703</ele>
        <time>2009-08-27T12:08:05Z</time>
      </trkpt>
      <trkpt lat="45.33736" lon="4.73656">
        <ele>351.77801513672</ele>
        <time>2009-08-27T12:08:06Z</time>
      </trkpt>
      <trkpt lat="45.33748" lon="4.73848">
        <ele>351.13198852539</ele>
        <time>2009-08-27T12:08:24Z</time>
      </trkpt>
      <trkpt lat="45.33751" lon="4.74032">
        <ele>349.40100097656</ele>
        <time>2009-08-27T12:08:40Z</time>
      </trkpt>
      <trkpt lat="45.33715" lon="4.7421">
        <ele>349.9169921875</ele>
        <time>2009-08-27T12:08:58Z</time>
      </trkpt>
      <trkpt lat="45.33709" lon="4.74238">
        <ele>350.24899291992</ele>
        <time>2009-08-27T12:09:01Z</time>
      </trkpt>
      <trkpt lat="45.33695" lon="4.74268">
        <ele>350.56298828125</ele>
        <time>2009-08-27T12:09:05Z</time>
      </trkpt>
      <trkpt lat="45.33642" lon="4.74329">
        <ele>353.40701293945</ele>
        <time>2009-08-27T12:09:16Z</time>
      </trkpt>
      <trkpt lat="45.33633" lon="4.74337">
        <ele>353.09799194336</ele>
        <time>2009-08-27T12:09:18Z</time>
      </trkpt>
      <trkpt lat="45.33618" lon="4.74349">
        <ele>352.31298828125</ele>
        <time>2009-08-27T12:09:21Z</time>
      </trkpt>
      <trkpt lat="45.33593" lon="4.74361">
        <ele>351.21200561523</ele>
        <time>2009-08-27T12:09:25Z</time>
      </trkpt>
      <trkpt lat="45.33576" lon="4.74336">
        <ele>349.03399658203</ele>
        <time>2009-08-27T12:09:29Z</time>
      </trkpt>
      <trkpt lat="45.33558" lon="4.74272">
        <ele>349.60800170898</ele>
        <time>2009-08-27T12:09:37Z</time>
      </trkpt>
      <trkpt lat="45.3354" lon="4.74258">
        <ele>349.42498779297</ele>
        <time>2009-08-27T12:09:41Z</time>
      </trkpt>
      <trkpt lat="45.33509" lon="4.74268">
        <ele>347.11898803711</ele>
        <time>2009-08-27T12:09:46Z</time>
      </trkpt>
      <trkpt lat="45.33466" lon="4.74281">
        <ele>344.35299682617</ele>
        <time>2009-08-27T12:09:52Z</time>
      </trkpt>
      <trkpt lat="45.33396" lon="4.74301">
        <ele>339.94500732422</ele>
        <time>2009-08-27T12:10:01Z</time>
      </trkpt>
      <trkpt lat="45.33345" lon="4.74338">
        <ele>337.16598510742</ele>
        <time>2009-08-27T12:10:08Z</time>
      </trkpt>
      <trkpt lat="45.33329" lon="4.74346">
        <ele>336.50500488281</ele>
        <time>2009-08-27T12:10:10Z</time>
      </trkpt>
      <trkpt lat="45.33302" lon="4.7435">
        <ele>335.07501220703</ele>
        <time>2009-08-27T12:10:13Z</time>
      </trkpt>
      <trkpt lat="45.33266" lon="4.74338">
        <ele>332.65100097656</ele>
        <time>2009-08-27T12:10:17Z</time>
      </trkpt>
      <trkpt lat="45.33258" lon="4.7433">
        <ele>331.94500732422</ele>
        <time>2009-08-27T12:10:18Z</time>
      </trkpt>
      <trkpt lat="45.3325" lon="4.74306">
        <ele>331.1780090332</ele>
        <time>2009-08-27T12:10:20Z</time>
      </trkpt>
      <trkpt lat="45.3326" lon="4.74253">
        <ele>328.92999267578</ele>
        <time>2009-08-27T12:10:24Z</time>
      </trkpt>
      <trkpt lat="45.33264" lon="4.74225">
        <ele>328.50799560547</ele>
        <time>2009-08-27T12:10:26Z</time>
      </trkpt>
      <trkpt lat="45.33264" lon="4.74141">
        <ele>324.3450012207</ele>
        <time>2009-08-27T12:10:32Z</time>
      </trkpt>
      <trkpt lat="45.33263" lon="4.74113">
        <ele>323.81201171875</ele>
        <time>2009-08-27T12:10:34Z</time>
      </trkpt>
      <trkpt lat="45.33229" lon="4.74033">
        <ele>320.48599243164</ele>
        <time>2009-08-27T12:10:41Z</time>
      </trkpt>
      <trkpt lat="45.33215" lon="4.74021">
        <ele>320.18301391602</ele>
        <time>2009-08-27T12:10:43Z</time>
      </trkpt>
      <trkpt lat="45.33168" lon="4.74035">
        <ele>316.10900878906</ele>
        <time>2009-08-27T12:10:50Z</time>
      </trkpt>
      <trkpt lat="45.33176" lon="4.74062">
        <ele>313.8630065918</ele>
        <time>2009-08-27T12:10:53Z</time>
      </trkpt>
      <trkpt lat="45.332" lon="4.74149">
        <ele>307.73599243164</ele>
        <time>2009-08-27T12:11:00Z</time>
      </trkpt>
      <trkpt lat="45.33162" lon="4.74232">
        <ele>300.81399536133</ele>
        <time>2009-08-27T12:11:06Z</time>
      </trkpt>
      <trkpt lat="45.33146" lon="4.74278">
        <ele>297.91799926758</ele>
        <time>2009-08-27T12:11:09Z</time>
      </trkpt>
      <trkpt lat="45.33144" lon="4.7435">
        <ele>293.97799682617</ele>
        <time>2009-08-27T12:11:13Z</time>
      </trkpt>
      <trkpt lat="45.33157" lon="4.74445">
        <ele>288.60000610352</ele>
        <time>2009-08-27T12:11:18Z</time>
      </trkpt>
      <trkpt lat="45.33165" lon="4.74483">
        <ele>286.88900756836</ele>
        <time>2009-08-27T12:11:20Z</time>
      </trkpt>
      <trkpt lat="45.33168" lon="4.74602">
        <ele>280.34600830078</ele>
        <time>2009-08-27T12:11:26Z</time>
      </trkpt>
      <trkpt lat="45.33199" lon="4.74693">
        <ele>274.86599731445</ele>
        <time>2009-08-27T12:11:31Z</time>
      </trkpt>
      <trkpt lat="45.33218" lon="4.74767">
        <ele>271.02200317383</ele>
        <time>2009-08-27T12:11:35Z</time>
      </trkpt>
      <trkpt lat="45.33234" lon="4.74798">
        <ele>269.00601196289</ele>
        <time>2009-08-27T12:11:37Z</time>
      </trkpt>
      <trkpt lat="45.33244" lon="4.74902">
        <ele>263.2619934082</ele>
        <time>2009-08-27T12:11:43Z</time>
      </trkpt>
      <trkpt lat="45.33232" lon="4.74992">
        <ele>259.3330078125</ele>
        <time>2009-08-27T12:11:48Z</time>
      </trkpt>
      <trkpt lat="45.33186" lon="4.7505">
        <ele>253.34899902344</ele>
        <time>2009-08-27T12:11:54Z</time>
      </trkpt>
      <trkpt lat="45.33159" lon="4.75103">
        <ele>248.83500671387</ele>
        <time>2009-08-27T12:11:58Z</time>
      </trkpt>
      <trkpt lat="45.33126" lon="4.75176">
        <ele>244.33599853516</ele>
        <time>2009-08-27T12:12:03Z</time>
      </trkpt>
      <trkpt lat="45.33067" lon="4.75211">
        <ele>238.99699401856</ele>
        <time>2009-08-27T12:12:08Z</time>
      </trkpt>
      <trkpt lat="45.33042" lon="4.75224">
        <ele>237.00199890137</ele>
        <time>2009-08-27T12:12:10Z</time>
      </trkpt>
      <trkpt lat="45.3297" lon="4.75222">
        <ele>231.97399902344</ele>
        <time>2009-08-27T12:12:16Z</time>
      </trkpt>
      <trkpt lat="45.32961" lon="4.75277">
        <ele>229.31300354004</ele>
        <time>2009-08-27T12:12:20Z</time>
      </trkpt>
      <trkpt lat="45.32946" lon="4.75319">
        <ele>226.30799865723</ele>
        <time>2009-08-27T12:12:23Z</time>
      </trkpt>
      <trkpt lat="45.32912" lon="4.75382">
        <ele>221.94400024414</ele>
        <time>2009-08-27T12:12:28Z</time>
      </trkpt>
      <trkpt lat="45.32846" lon="4.75397">
        <ele>216.30099487305</ele>
        <time>2009-08-27T12:12:34Z</time>
      </trkpt>
      <trkpt lat="45.32826" lon="4.75378">
        <ele>216.11599731445</ele>
        <time>2009-08-27T12:12:36Z</time>
      </trkpt>
      <trkpt lat="45.32798" lon="4.75391">
        <ele>213.00100708008</ele>
        <time>2009-08-27T12:12:42Z</time>
      </trkpt>
      <trkpt lat="45.32806" lon="4.75418">
        <ele>211.53100585938</ele>
        <time>2009-08-27T12:12:44Z</time>
      </trkpt>
      <trkpt lat="45.32829" lon="4.755">
        <ele>205.89500427246</ele>
        <time>2009-08-27T12:12:50Z</time>
      </trkpt>
      <trkpt lat="45.32808" lon="4.75569">
        <ele>200.67599487305</ele>
        <time>2009-08-27T12:12:55Z</time>
      </trkpt>
      <trkpt lat="45.3275" lon="4.75635">
        <ele>195.13800048828</ele>
        <time>2009-08-27T12:13:01Z</time>
      </trkpt>
      <trkpt lat="45.32716" lon="4.75685">
        <ele>192.48599243164</ele>
        <time>2009-08-27T12:13:05Z</time>
      </trkpt>
      <trkpt lat="45.32655" lon="4.75735">
        <ele>188.52699279785</ele>
        <time>2009-08-27T12:13:11Z</time>
      </trkpt>
      <trkpt lat="45.32579" lon="4.75786">
        <ele>183.54100036621</ele>
        <time>2009-08-27T12:13:18Z</time>
      </trkpt>
      <trkpt lat="45.32475" lon="4.75878">
        <ele>176.04499816894</ele>
        <time>2009-08-27T12:13:28Z</time>
      </trkpt>
      <trkpt lat="45.32441" lon="4.75899">
        <ele>172.63800048828</ele>
        <time>2009-08-27T12:13:31Z</time>
      </trkpt>
      <trkpt lat="45.32394" lon="4.75922">
        <ele>169.09100341797</ele>
        <time>2009-08-27T12:13:35Z</time>
      </trkpt>
      <trkpt lat="45.32369" lon="4.75927">
        <ele>167.93400573731</ele>
        <time>2009-08-27T12:13:37Z</time>
      </trkpt>
      <trkpt lat="45.32338" lon="4.75927">
        <ele>167.1309967041</ele>
        <time>2009-08-27T12:13:40Z</time>
      </trkpt>
      <trkpt lat="45.32308" lon="4.75936">
        <ele>166.74800109863</ele>
        <time>2009-08-27T12:13:47Z</time>
      </trkpt>
      <trkpt lat="45.32286" lon="4.75934">
        <ele>167.72799682617</ele>
        <time>2009-08-27T12:13:53Z</time>
      </trkpt>
      <trkpt lat="45.32274" lon="4.75934">
        <ele>168.59300231934</ele>
        <time>2009-08-27T12:13:56Z</time>
      </trkpt>
      <trkpt lat="45.32258" lon="4.75938">
        <ele>169.08599853516</ele>
        <time>2009-08-27T12:14:00Z</time>
      </trkpt>
      <trkpt lat="45.32254" lon="4.7594">
        <ele>169.35000610352</ele>
        <time>2009-08-27T12:14:01Z</time>
      </trkpt>
      <trkpt lat="45.32243" lon="4.75948">
        <ele>169.57099914551</ele>
        <time>2009-08-27T12:14:04Z</time>
      </trkpt>
      <trkpt lat="45.32213" lon="4.75967">
        <ele>170.53999328613</ele>
        <time>2009-08-27T12:14:13Z</time>
      </trkpt>
      <trkpt lat="45.32201" lon="4.75976">
        <ele>170.69999694824</ele>
        <time>2009-08-27T12:14:16Z</time>
      </trkpt>
      <trkpt lat="45.32191" lon="4.75988">
        <ele>170.85400390625</ele>
        <time>2009-08-27T12:14:19Z</time>
      </trkpt>
      <trkpt lat="45.32167" lon="4.76022">
        <ele>170.38600158691</ele>
        <time>2009-08-27T12:14:26Z</time>
      </trkpt>
      <trkpt lat="45.32143" lon="4.76042">
        <ele>169.8869934082</ele>
        <time>2009-08-27T12:14:31Z</time>
      </trkpt>
      <trkpt lat="45.3205" lon="4.76103">
        <ele>171.22999572754</ele>
        <time>2009-08-27T12:14:49Z</time>
      </trkpt>
      <trkpt lat="45.32045" lon="4.76106">
        <ele>171.34199523926</ele>
        <time>2009-08-27T12:14:50Z</time>
      </trkpt>
      <trkpt lat="45.31995" lon="4.76147">
        <ele>167.98399353027</ele>
        <time>2009-08-27T12:14:59Z</time>
      </trkpt>
      <trkpt lat="45.31968" lon="4.76171">
        <ele>165.70399475098</ele>
        <time>2009-08-27T12:15:04Z</time>
      </trkpt>
      <trkpt lat="45.3196" lon="4.76206">
        <ele>164.55200195312</ele>
        <time>2009-08-27T12:15:09Z</time>
      </trkpt>
      <trkpt lat="45.31974" lon="4.7623">
        <ele>164.07400512695</ele>
        <time>2009-08-27T12:15:15Z</time>
      </trkpt>
      <trkpt lat="45.32007" lon="4.76275">
        <ele>161.97300720215</ele>
        <time>2009-08-27T12:15:26Z</time>
      </trkpt>
      <trkpt lat="45.32022" lon="4.76297">
        <ele>161.14100646973</ele>
        <time>2009-08-27T12:15:30Z</time>
      </trkpt>
      <trkpt lat="45.32025" lon="4.76309">
        <ele>161.24699401856</ele>
        <time>2009-08-27T12:15:34Z</time>
      </trkpt>
      <trkpt lat="45.32021" lon="4.76321">
        <ele>161.3809967041</ele>
        <time>2009-08-27T12:15:37Z</time>
      </trkpt>
      <trkpt lat="45.32015" lon="4.76331">
        <ele>161.06900024414</ele>
        <time>2009-08-27T12:15:39Z</time>
      </trkpt>
      <trkpt lat="45.32005" lon="4.76346">
        <ele>161.55000305176</ele>
        <time>2009-08-27T12:15:42Z</time>
      </trkpt>
      <trkpt lat="45.31981" lon="4.7637">
        <ele>161.67599487305</ele>
        <time>2009-08-27T12:15:48Z</time>
      </trkpt>
      <trkpt lat="45.3195" lon="4.764">
        <ele>161.19200134277</ele>
        <time>2009-08-27T12:15:55Z</time>
      </trkpt>
      <trkpt lat="45.31878" lon="4.7648">
        <ele>161.14599609375</ele>
        <time>2009-08-27T12:16:10Z</time>
      </trkpt>
      <trkpt lat="45.31863" lon="4.76497">
        <ele>161.09899902344</ele>
        <time>2009-08-27T12:16:13Z</time>
      </trkpt>
      <trkpt lat="45.31804" lon="4.76572">
        <ele>162.76300048828</ele>
        <time>2009-08-27T12:16:28Z</time>
      </trkpt>
      <trkpt lat="45.31784" lon="4.76582">
        <ele>162.76100158691</ele>
        <time>2009-08-27T12:16:33Z</time>
      </trkpt>
      <trkpt lat="45.31775" lon="4.76611">
        <ele>163.39100646973</ele>
        <time>2009-08-27T12:16:40Z</time>
      </trkpt>
      <trkpt lat="45.31778" lon="4.76615">
        <ele>163.84100341797</ele>
        <time>2009-08-27T12:16:41Z</time>
      </trkpt>
      <trkpt lat="45.31807" lon="4.76669">
        <ele>165.29299926758</ele>
        <time>2009-08-27T12:16:51Z</time>
      </trkpt>
      <trkpt lat="45.3181" lon="4.76675">
        <ele>165.22900390625</ele>
        <time>2009-08-27T12:16:52Z</time>
      </trkpt>
      <trkpt lat="45.3183" lon="4.76719">
        <ele>166.20899963379</ele>
        <time>2009-08-27T12:16:58Z</time>
      </trkpt>
      <trkpt lat="45.3185" lon="4.76758">
        <ele>166.20799255371</ele>
        <time>2009-08-27T12:17:03Z</time>
      </trkpt>
      <trkpt lat="45.31905" lon="4.76871">
        <ele>162.14100646973</ele>
        <time>2009-08-27T12:17:15Z</time>
      </trkpt>
      <trkpt lat="45.31931" lon="4.76928">
        <ele>159.875</ele>
        <time>2009-08-27T12:17:20Z</time>
      </trkpt>
      <trkpt lat="45.31939" lon="4.76952">
        <ele>159.66700744629</ele>
        <time>2009-08-27T12:17:22Z</time>
      </trkpt>
      <trkpt lat="45.31936" lon="4.77062">
        <ele>159.69400024414</ele>
        <time>2009-08-27T12:17:31Z</time>
      </trkpt>
      <trkpt lat="45.31877" lon="4.77224">
        <ele>159.51699829102</ele>
        <time>2009-08-27T12:17:46Z</time>
      </trkpt>
      <trkpt lat="45.318" lon="4.77435">
        <ele>158.43400573731</ele>
        <time>2009-08-27T12:18:07Z</time>
      </trkpt>
      <trkpt lat="45.31769" lon="4.77524">
        <ele>157.56900024414</ele>
        <time>2009-08-27T12:18:16Z</time>
      </trkpt>
      <trkpt lat="45.31755" lon="4.7769">
        <ele>157.74899291992</ele>
        <time>2009-08-27T12:18:31Z</time>
      </trkpt>
      <trkpt lat="45.31749" lon="4.77931">
        <ele>156.95799255371</ele>
        <time>2009-08-27T12:18:52Z</time>
      </trkpt>
      <trkpt lat="45.31749" lon="4.78168">
        <ele>158.28799438477</ele>
        <time>2009-08-27T12:19:13Z</time>
      </trkpt>
      <trkpt lat="45.31742" lon="4.78359">
        <ele>158.88600158691</ele>
        <time>2009-08-27T12:19:30Z</time>
      </trkpt>
      <trkpt lat="45.31714" lon="4.78459">
        <ele>159.39999389648</ele>
        <time>2009-08-27T12:19:40Z</time>
      </trkpt>
      <trkpt lat="45.31659" lon="4.78581">
        <ele>162.26100158691</ele>
        <time>2009-08-27T12:19:55Z</time>
      </trkpt>
      <trkpt lat="45.31629" lon="4.78655">
        <ele>165.66700744629</ele>
        <time>2009-08-27T12:20:09Z</time>
      </trkpt>
      <trkpt lat="45.31609" lon="4.78739">
        <ele>169.0299987793</ele>
        <time>2009-08-27T12:20:25Z</time>
      </trkpt>
      <trkpt lat="45.31605" lon="4.78849">
        <ele>172.61500549316</ele>
        <time>2009-08-27T12:20:44Z</time>
      </trkpt>
      <trkpt lat="45.31622" lon="4.78954">
        <ele>175.53900146484</ele>
        <time>2009-08-27T12:21:03Z</time>
      </trkpt>
      <trkpt lat="45.31644" lon="4.79058">
        <ele>176.95300292969</ele>
        <time>2009-08-27T12:21:20Z</time>
      </trkpt>
      <trkpt lat="45.31669" lon="4.79173">
        <ele>174.50399780273</ele>
        <time>2009-08-27T12:21:35Z</time>
      </trkpt>
      <trkpt lat="45.31693" lon="4.79283">
        <ele>172.35299682617</ele>
        <time>2009-08-27T12:21:46Z</time>
      </trkpt>
      <trkpt lat="45.3171" lon="4.79362">
        <ele>171.06199645996</ele>
        <time>2009-08-27T12:21:53Z</time>
      </trkpt>
      <trkpt lat="45.3172" lon="4.79406">
        <ele>170.68299865723</ele>
        <time>2009-08-27T12:21:57Z</time>
      </trkpt>
      <trkpt lat="45.31772" lon="4.79645">
        <ele>167.96099853516</ele>
        <time>2009-08-27T12:22:17Z</time>
      </trkpt>
      <trkpt lat="45.3182" lon="4.79865">
        <ele>164.67999267578</ele>
        <time>2009-08-27T12:22:35Z</time>
      </trkpt>
      <trkpt lat="45.31841" lon="4.80078">
        <ele>162.5359954834</ele>
        <time>2009-08-27T12:22:51Z</time>
      </trkpt>
      <trkpt lat="45.31841" lon="4.80153">
        <ele>163.69299316406</ele>
        <time>2009-08-27T12:22:57Z</time>
      </trkpt>
      <trkpt lat="45.31844" lon="4.8036">
        <ele>162.02000427246</ele>
        <time>2009-08-27T12:23:14Z</time>
      </trkpt>
      <trkpt lat="45.31863" lon="4.80596">
        <ele>162.04299926758</ele>
        <time>2009-08-27T12:23:33Z</time>
      </trkpt>
      <trkpt lat="45.31862" lon="4.80678">
        <ele>164.07600402832</ele>
        <time>2009-08-27T12:23:41Z</time>
      </trkpt>
      <trkpt lat="45.3186" lon="4.80687">
        <ele>163.76899719238</ele>
        <time>2009-08-27T12:23:42Z</time>
      </trkpt>
      <trkpt lat="45.31846" lon="4.8073">
        <ele>163.98100280762</ele>
        <time>2009-08-27T12:23:47Z</time>
      </trkpt>
      <trkpt lat="45.31838" lon="4.80745">
        <ele>164.02000427246</ele>
        <time>2009-08-27T12:23:49Z</time>
      </trkpt>
      <trkpt lat="45.31801" lon="4.80796">
        <ele>164.46600341797</ele>
        <time>2009-08-27T12:23:57Z</time>
      </trkpt>
      <trkpt lat="45.31759" lon="4.8082">
        <ele>164.35200500488</ele>
        <time>2009-08-27T12:24:04Z</time>
      </trkpt>
      <trkpt lat="45.31744" lon="4.8087">
        <ele>164.7799987793</ele>
        <time>2009-08-27T12:24:10Z</time>
      </trkpt>
      <trkpt lat="45.31753" lon="4.80934">
        <ele>165.56300354004</ele>
        <time>2009-08-27T12:24:17Z</time>
      </trkpt>
      <trkpt lat="45.31706" lon="4.81073">
        <ele>167.36799621582</ele>
        <time>2009-08-27T12:24:35Z</time>
      </trkpt>
      <trkpt lat="45.31656" lon="4.81214">
        <ele>170.20500183106</ele>
        <time>2009-08-27T12:24:57Z</time>
      </trkpt>
      <trkpt lat="45.31595" lon="4.81337">
        <ele>170.45300292969</ele>
        <time>2009-08-27T12:25:15Z</time>
      </trkpt>
      <trkpt lat="45.31526" lon="4.81439">
        <ele>171.92199707031</ele>
        <time>2009-08-27T12:25:34Z</time>
      </trkpt>
      <trkpt lat="45.3143" lon="4.81572">
        <ele>170.25199890137</ele>
        <time>2009-08-27T12:25:55Z</time>
      </trkpt>
      <trkpt lat="45.31377" lon="4.81664">
        <ele>169.1609954834</ele>
        <time>2009-08-27T12:26:06Z</time>
      </trkpt>
      <trkpt lat="45.31358" lon="4.81713">
        <ele>168.78199768066</ele>
        <time>2009-08-27T12:26:11Z</time>
      </trkpt>
      <trkpt lat="45.31348" lon="4.81743">
        <ele>168.8630065918</ele>
        <time>2009-08-27T12:26:14Z</time>
      </trkpt>
      <trkpt lat="45.31322" lon="4.81858">
        <ele>168.20399475098</ele>
        <time>2009-08-27T12:26:25Z</time>
      </trkpt>
      <trkpt lat="45.31317" lon="4.82023">
        <ele>168.52200317383</ele>
        <time>2009-08-27T12:26:40Z</time>
      </trkpt>
      <trkpt lat="45.31348" lon="4.8218">
        <ele>169.49899291992</ele>
        <time>2009-08-27T12:26:56Z</time>
      </trkpt>
      <trkpt lat="45.31403" lon="4.82329">
        <ele>169.63499450684</ele>
        <time>2009-08-27T12:27:13Z</time>
      </trkpt>
      <trkpt lat="45.31462" lon="4.8248">
        <ele>170.44500732422</ele>
        <time>2009-08-27T12:27:32Z</time>
      </trkpt>
      <trkpt lat="45.31498" lon="4.82576">
        <ele>170.29600524902</ele>
        <time>2009-08-27T12:27:44Z</time>
      </trkpt>
      <trkpt lat="45.31575" lon="4.82784">
        <ele>172.07099914551</ele>
        <time>2009-08-27T12:28:09Z</time>
      </trkpt>
      <trkpt lat="45.3162" lon="4.82907">
        <ele>175.38400268555</ele>
        <time>2009-08-27T12:28:27Z</time>
      </trkpt>
      <trkpt lat="45.31654" lon="4.82997">
        <ele>178.49000549316</ele>
        <time>2009-08-27T12:28:42Z</time>
      </trkpt>
      <trkpt lat="45.3169" lon="4.83092">
        <ele>182.64700317383</ele>
        <time>2009-08-27T12:29:02Z</time>
      </trkpt>
      <trkpt lat="45.3173" lon="4.83191">
        <ele>186.8630065918</ele>
        <time>2009-08-27T12:29:24Z</time>
      </trkpt>
      <trkpt lat="45.31765" lon="4.83271">
        <ele>190.39999389648</ele>
        <time>2009-08-27T12:29:42Z</time>
      </trkpt>
      <trkpt lat="45.31811" lon="4.83371">
        <ele>194.82200622559</ele>
        <time>2009-08-27T12:30:04Z</time>
      </trkpt>
      <trkpt lat="45.31856" lon="4.83471">
        <ele>197.55999755859</ele>
        <time>2009-08-27T12:30:24Z</time>
      </trkpt>
      <trkpt lat="45.31916" lon="4.83612">
        <ele>199.7140045166</ele>
        <time>2009-08-27T12:30:47Z</time>
      </trkpt>
      <trkpt lat="45.31948" lon="4.83713">
        <ele>200.71899414062</ele>
        <time>2009-08-27T12:31:01Z</time>
      </trkpt>
      <trkpt lat="45.31939" lon="4.83767">
        <ele>200.92700195312</ele>
        <time>2009-08-27T12:31:08Z</time>
      </trkpt>
      <trkpt lat="45.31881" lon="4.83894">
        <ele>202.58200073242</ele>
        <time>2009-08-27T12:31:27Z</time>
      </trkpt>
      <trkpt lat="45.31839" lon="4.83997">
        <ele>202.80599975586</ele>
        <time>2009-08-27T12:31:42Z</time>
      </trkpt>
      <trkpt lat="45.31838" lon="4.84">
        <ele>203.06500244141</ele>
        <time>2009-08-27T12:31:43Z</time>
      </trkpt>
      <trkpt lat="45.31847" lon="4.8398">
        <ele>202.65699768066</ele>
        <time>2009-08-27T12:31:52Z</time>
      </trkpt>
      <trkpt lat="45.3185" lon="4.83976">
        <ele>202.39500427246</ele>
        <time>2009-08-27T12:31:53Z</time>
      </trkpt>
      <trkpt lat="45.31849" lon="4.83961">
        <ele>202.44900512695</ele>
        <time>2009-08-27T12:32:00Z</time>
      </trkpt>
      <trkpt lat="45.31852" lon="4.83963">
        <ele>202.53900146484</ele>
        <time>2009-08-27T12:32:19Z</time>
      </trkpt>
      <trkpt lat="45.31848" lon="4.83978">
        <ele>202.38400268555</ele>
        <time>2009-08-27T12:32:35Z</time>
      </trkpt>
      <trkpt lat="45.31818" lon="4.84053">
        <ele>202.46200561523</ele>
        <time>2009-08-27T12:32:50Z</time>
      </trkpt>
      <trkpt lat="45.31786" lon="4.84146">
        <ele>202.45300292969</ele>
        <time>2009-08-27T12:33:04Z</time>
      </trkpt>
      <trkpt lat="45.31769" lon="4.84238">
        <ele>202.74499511719</ele>
        <time>2009-08-27T12:33:17Z</time>
      </trkpt>
      <trkpt lat="45.31768" lon="4.84251">
        <ele>203.2619934082</ele>
        <time>2009-08-27T12:33:19Z</time>
      </trkpt>
      <trkpt lat="45.31767" lon="4.84303">
        <ele>203.2380065918</ele>
        <time>2009-08-27T12:33:27Z</time>
      </trkpt>
      <trkpt lat="45.31767" lon="4.84317">
        <ele>203.21299743652</ele>
        <time>2009-08-27T12:33:29Z</time>
      </trkpt>
      <trkpt lat="45.31767" lon="4.84332">
        <ele>202.79600524902</ele>
        <time>2009-08-27T12:33:31Z</time>
      </trkpt>
      <trkpt lat="45.31768" lon="4.84363">
        <ele>203.13800048828</ele>
        <time>2009-08-27T12:33:35Z</time>
      </trkpt>
      <trkpt lat="45.3177" lon="4.84385">
        <ele>203.16400146484</ele>
        <time>2009-08-27T12:33:38Z</time>
      </trkpt>
      <trkpt lat="45.31772" lon="4.84405">
        <ele>203.04200744629</ele>
        <time>2009-08-27T12:33:41Z</time>
      </trkpt>
      <trkpt lat="45.31792" lon="4.84438">
        <ele>203.52799987793</ele>
        <time>2009-08-27T12:33:47Z</time>
      </trkpt>
      <trkpt lat="45.31802" lon="4.84445">
        <ele>203.27299499512</ele>
        <time>2009-08-27T12:33:49Z</time>
      </trkpt>
      <trkpt lat="45.31844" lon="4.84526">
        <ele>203.15699768066</ele>
        <time>2009-08-27T12:34:01Z</time>
      </trkpt>
      <trkpt lat="45.31852" lon="4.84549">
        <ele>202.83399963379</ele>
        <time>2009-08-27T12:34:04Z</time>
      </trkpt>
      <trkpt lat="45.31843" lon="4.84595">
        <ele>203.00999450684</ele>
        <time>2009-08-27T12:34:10Z</time>
      </trkpt>
      <trkpt lat="45.31799" lon="4.84646">
        <ele>203.32099914551</ele>
        <time>2009-08-27T12:34:19Z</time>
      </trkpt>
      <trkpt lat="45.31786" lon="4.84697">
        <ele>202.75</ele>
        <time>2009-08-27T12:34:25Z</time>
      </trkpt>
      <trkpt lat="45.31795" lon="4.84823">
        <ele>202.49800109863</ele>
        <time>2009-08-27T12:34:38Z</time>
      </trkpt>
      <trkpt lat="45.31821" lon="4.84919">
        <ele>202.78300476074</ele>
        <time>2009-08-27T12:34:49Z</time>
      </trkpt>
      <trkpt lat="45.31826" lon="4.84935">
        <ele>202.7619934082</ele>
        <time>2009-08-27T12:34:51Z</time>
      </trkpt>
      <trkpt lat="45.31841" lon="4.84965">
        <ele>202.31199645996</ele>
        <time>2009-08-27T12:34:56Z</time>
      </trkpt>
      <trkpt lat="45.31833" lon="4.84975">
        <ele>200.50700378418</ele>
        <time>2009-08-27T12:35:00Z</time>
      </trkpt>
      <trkpt lat="45.31775" lon="4.84993">
        <ele>190.94900512695</ele>
        <time>2009-08-27T12:35:11Z</time>
      </trkpt>
      <trkpt lat="45.3175" lon="4.84992">
        <ele>187.44200134277</ele>
        <time>2009-08-27T12:35:15Z</time>
      </trkpt>
      <trkpt lat="45.31673" lon="4.85018">
        <ele>178.97399902344</ele>
        <time>2009-08-27T12:35:23Z</time>
      </trkpt>
      <trkpt lat="45.3161" lon="4.85014">
        <ele>177.99499511719</ele>
        <time>2009-08-27T12:35:29Z</time>
      </trkpt>
      <trkpt lat="45.31575" lon="4.84958">
        <ele>177.10000610352</ele>
        <time>2009-08-27T12:35:35Z</time>
      </trkpt>
      <trkpt lat="45.31574" lon="4.84934">
        <ele>177.32099914551</ele>
        <time>2009-08-27T12:35:37Z</time>
      </trkpt>
      <trkpt lat="45.31577" lon="4.84891">
        <ele>177.80599975586</ele>
        <time>2009-08-27T12:35:41Z</time>
      </trkpt>
      <trkpt lat="45.31564" lon="4.84866">
        <ele>178.89799499512</ele>
        <time>2009-08-27T12:35:45Z</time>
      </trkpt>
      <trkpt lat="45.31475" lon="4.84871">
        <ele>176.44000244141</ele>
        <time>2009-08-27T12:36:00Z</time>
      </trkpt>
      <trkpt lat="45.31403" lon="4.84859">
        <ele>176.24600219727</ele>
        <time>2009-08-27T12:36:11Z</time>
      </trkpt>
      <trkpt lat="45.31344" lon="4.84873">
        <ele>177.65699768066</ele>
        <time>2009-08-27T12:36:22Z</time>
      </trkpt>
      <trkpt lat="45.31327" lon="4.8487">
        <ele>178.91700744629</ele>
        <time>2009-08-27T12:36:26Z</time>
      </trkpt>
      <trkpt lat="45.3131" lon="4.84863">
        <ele>180.97999572754</ele>
        <time>2009-08-27T12:36:32Z</time>
      </trkpt>
      <trkpt lat="45.31297" lon="4.84858">
        <ele>182.28300476074</ele>
        <time>2009-08-27T12:36:37Z</time>
      </trkpt>
      <trkpt lat="45.31284" lon="4.84855">
        <ele>183.87600708008</ele>
        <time>2009-08-27T12:36:42Z</time>
      </trkpt>
      <trkpt lat="45.3127" lon="4.84854">
        <ele>185.09300231934</ele>
        <time>2009-08-27T12:36:47Z</time>
      </trkpt>
      <trkpt lat="45.31255" lon="4.84859">
        <ele>187.04699707031</ele>
        <time>2009-08-27T12:36:54Z</time>
      </trkpt>
      <trkpt lat="45.3124" lon="4.84867">
        <ele>188.99099731445</ele>
        <time>2009-08-27T12:37:01Z</time>
      </trkpt>
      <trkpt lat="45.31212" lon="4.84883">
        <ele>192.30299377441</ele>
        <time>2009-08-27T12:37:15Z</time>
      </trkpt>
      <trkpt lat="45.31185" lon="4.84885">
        <ele>194.83999633789</ele>
        <time>2009-08-27T12:37:27Z</time>
      </trkpt>
      <trkpt lat="45.31144" lon="4.84883">
        <ele>197.35000610352</ele>
        <time>2009-08-27T12:37:41Z</time>
      </trkpt>
      <trkpt lat="45.31098" lon="4.8488">
        <ele>200.37300109863</ele>
        <time>2009-08-27T12:37:58Z</time>
      </trkpt>
      <trkpt lat="45.31051" lon="4.84878">
        <ele>201.09199523926</ele>
        <time>2009-08-27T12:38:12Z</time>
      </trkpt>
      <trkpt lat="45.30993" lon="4.84876">
        <ele>202.72300720215</ele>
        <time>2009-08-27T12:38:29Z</time>
      </trkpt>
      <trkpt lat="45.30989" lon="4.84876">
        <ele>202.53500366211</ele>
        <time>2009-08-27T12:38:30Z</time>
      </trkpt>
      <trkpt lat="45.30957" lon="4.84881">
        <ele>202.70599365234</ele>
        <time>2009-08-27T12:38:38Z</time>
      </trkpt>
      <trkpt lat="45.30934" lon="4.84884">
        <ele>202.94900512695</ele>
        <time>2009-08-27T12:38:44Z</time>
      </trkpt>
      <trkpt lat="45.30925" lon="4.84859">
        <ele>202.63999938965</ele>
        <time>2009-08-27T12:38:49Z</time>
      </trkpt>
      <trkpt lat="45.30921" lon="4.84761">
        <ele>202.81300354004</ele>
        <time>2009-08-27T12:39:02Z</time>
      </trkpt>
      <trkpt lat="45.3092" lon="4.8472">
        <ele>202.77499389648</ele>
        <time>2009-08-27T12:39:08Z</time>
      </trkpt>
      <trkpt lat="45.30917" lon="4.84678">
        <ele>201.99600219727</ele>
        <time>2009-08-27T12:39:14Z</time>
      </trkpt>
      <trkpt lat="45.30893" lon="4.84538">
        <ele>201.70500183106</ele>
        <time>2009-08-27T12:39:31Z</time>
      </trkpt>
      <trkpt lat="45.30886" lon="4.84513">
        <ele>201.11099243164</ele>
        <time>2009-08-27T12:39:34Z</time>
      </trkpt>
      <trkpt lat="45.30876" lon="4.84408">
        <ele>200.44099426269</ele>
        <time>2009-08-27T12:39:45Z</time>
      </trkpt>
      <trkpt lat="45.30864" lon="4.84339">
        <ele>199.54299926758</ele>
        <time>2009-08-27T12:39:52Z</time>
      </trkpt>
      <trkpt lat="45.30872" lon="4.84266">
        <ele>198.95399475098</ele>
        <time>2009-08-27T12:39:59Z</time>
      </trkpt>
      <trkpt lat="45.30881" lon="4.84237">
        <ele>198.81300354004</ele>
        <time>2009-08-27T12:40:02Z</time>
      </trkpt>
      <trkpt lat="45.30902" lon="4.84206">
        <ele>198.83399963379</ele>
        <time>2009-08-27T12:40:06Z</time>
      </trkpt>
      <trkpt lat="45.30981" lon="4.84134">
        <ele>198.14700317383</ele>
        <time>2009-08-27T12:40:19Z</time>
      </trkpt>
      <trkpt lat="45.30996" lon="4.84088">
        <ele>197.74299621582</ele>
        <time>2009-08-27T12:40:24Z</time>
      </trkpt>
      <trkpt lat="45.30994" lon="4.84044">
        <ele>196.83200073242</ele>
        <time>2009-08-27T12:40:28Z</time>
      </trkpt>
      <trkpt lat="45.30991" lon="4.84019">
        <ele>197.39100646973</ele>
        <time>2009-08-27T12:40:31Z</time>
      </trkpt>
      <trkpt lat="45.30983" lon="4.83993">
        <ele>197.84199523926</ele>
        <time>2009-08-27T12:40:36Z</time>
      </trkpt>
      <trkpt lat="45.30978" lon="4.83974">
        <ele>198.56500244141</ele>
        <time>2009-08-27T12:40:46Z</time>
      </trkpt>
      <trkpt lat="45.30984" lon="4.84005">
        <ele>197.42799377441</ele>
        <time>2009-08-27T12:40:53Z</time>
      </trkpt>
      <trkpt lat="45.30979" lon="4.84029">
        <ele>197.16299438477</ele>
        <time>2009-08-27T12:40:58Z</time>
      </trkpt>
      <trkpt lat="45.30898" lon="4.84054">
        <ele>198.47300720215</ele>
        <time>2009-08-27T12:41:14Z</time>
      </trkpt>
      <trkpt lat="45.30849" lon="4.84078">
        <ele>198.7859954834</ele>
        <time>2009-08-27T12:41:23Z</time>
      </trkpt>
      <trkpt lat="45.30825" lon="4.84101">
        <ele>198.57000732422</ele>
        <time>2009-08-27T12:41:28Z</time>
      </trkpt>
      <trkpt lat="45.30735" lon="4.84159">
        <ele>198.75399780273</ele>
        <time>2009-08-27T12:41:44Z</time>
      </trkpt>
      <trkpt lat="45.30708" lon="4.84183">
        <ele>198.56399536133</ele>
        <time>2009-08-27T12:41:49Z</time>
      </trkpt>
      <trkpt lat="45.30685" lon="4.84214">
        <ele>198.80499267578</ele>
        <time>2009-08-27T12:41:54Z</time>
      </trkpt>
      <trkpt lat="45.30667" lon="4.84248">
        <ele>199.14100646973</ele>
        <time>2009-08-27T12:41:59Z</time>
      </trkpt>
      <trkpt lat="45.30635" lon="4.84296">
        <ele>195.62300109863</ele>
        <time>2009-08-27T12:42:06Z</time>
      </trkpt>
      <trkpt lat="45.3062" lon="4.84328">
        <ele>192.0059967041</ele>
        <time>2009-08-27T12:42:10Z</time>
      </trkpt>
      <trkpt lat="45.30611" lon="4.84369">
        <ele>188.45100402832</ele>
        <time>2009-08-27T12:42:17Z</time>
      </trkpt>
      <trkpt lat="45.3061" lon="4.8438">
        <ele>187.36999511719</ele>
        <time>2009-08-27T12:42:19Z</time>
      </trkpt>
      <trkpt lat="45.30608" lon="4.84409">
        <ele>184.50999450684</ele>
        <time>2009-08-27T12:42:23Z</time>
      </trkpt>
      <trkpt lat="45.30606" lon="4.84432">
        <ele>183.11199951172</ele>
        <time>2009-08-27T12:42:27Z</time>
      </trkpt>
      <trkpt lat="45.30596" lon="4.84453">
        <ele>181.61399841309</ele>
        <time>2009-08-27T12:42:31Z</time>
      </trkpt>
      <trkpt lat="45.30577" lon="4.84473">
        <ele>180.44700622559</ele>
        <time>2009-08-27T12:42:35Z</time>
      </trkpt>
      <trkpt lat="45.30547" lon="4.84492">
        <ele>178.97799682617</ele>
        <time>2009-08-27T12:42:40Z</time>
      </trkpt>
      <trkpt lat="45.30478" lon="4.84549">
        <ele>178.78100585938</ele>
        <time>2009-08-27T12:42:53Z</time>
      </trkpt>
      <trkpt lat="45.30434" lon="4.84589">
        <ele>178.91600036621</ele>
        <time>2009-08-27T12:43:01Z</time>
      </trkpt>
      <trkpt lat="45.3038" lon="4.84643">
        <ele>179.70500183106</ele>
        <time>2009-08-27T12:43:11Z</time>
      </trkpt>
      <trkpt lat="45.30341" lon="4.84699">
        <ele>180.00199890137</ele>
        <time>2009-08-27T12:43:20Z</time>
      </trkpt>
      <trkpt lat="45.30296" lon="4.84756">
        <ele>180.5359954834</ele>
        <time>2009-08-27T12:43:30Z</time>
      </trkpt>
      <trkpt lat="45.30265" lon="4.84786">
        <ele>181.31700134277</ele>
        <time>2009-08-27T12:43:37Z</time>
      </trkpt>
      <trkpt lat="45.30225" lon="4.84827">
        <ele>181.09300231934</ele>
        <time>2009-08-27T12:43:47Z</time>
      </trkpt>
      <trkpt lat="45.3021" lon="4.84838">
        <ele>181.41499328613</ele>
        <time>2009-08-27T12:43:50Z</time>
      </trkpt>
      <trkpt lat="45.30104" lon="4.84877">
        <ele>182.31100463867</ele>
        <time>2009-08-27T12:44:08Z</time>
      </trkpt>
      <trkpt lat="45.30026" lon="4.84947">
        <ele>181.94400024414</ele>
        <time>2009-08-27T12:44:22Z</time>
      </trkpt>
      <trkpt lat="45.29938" lon="4.85039">
        <ele>181.59399414062</ele>
        <time>2009-08-27T12:44:38Z</time>
      </trkpt>
      <trkpt lat="45.29875" lon="4.85077">
        <ele>179.72999572754</ele>
        <time>2009-08-27T12:44:49Z</time>
      </trkpt>
      <trkpt lat="45.29865" lon="4.85083">
        <ele>179.69500732422</ele>
        <time>2009-08-27T12:44:53Z</time>
      </trkpt>
      <trkpt lat="45.29853" lon="4.85085">
        <ele>179.69299316406</ele>
        <time>2009-08-27T12:44:57Z</time>
      </trkpt>
      <trkpt lat="45.2984" lon="4.85117">
        <ele>179.47200012207</ele>
        <time>2009-08-27T12:45:03Z</time>
      </trkpt>
      <trkpt lat="45.2982" lon="4.85154">
        <ele>178.9880065918</ele>
        <time>2009-08-27T12:45:09Z</time>
      </trkpt>
      <trkpt lat="45.29773" lon="4.85273">
        <ele>178.57699584961</ele>
        <time>2009-08-27T12:45:24Z</time>
      </trkpt>
      <trkpt lat="45.29729" lon="4.85382">
        <ele>178.88800048828</ele>
        <time>2009-08-27T12:45:38Z</time>
      </trkpt>
      <trkpt lat="45.29669" lon="4.85524">
        <ele>180.10200500488</ele>
        <time>2009-08-27T12:45:56Z</time>
      </trkpt>
      <trkpt lat="45.29622" lon="4.85652">
        <ele>179.6609954834</ele>
        <time>2009-08-27T12:46:11Z</time>
      </trkpt>
      <trkpt lat="45.29541" lon="4.85723">
        <ele>180.00900268555</ele>
        <time>2009-08-27T12:46:25Z</time>
      </trkpt>
      <trkpt lat="45.29433" lon="4.85838">
        <ele>180.87800598144</ele>
        <time>2009-08-27T12:46:45Z</time>
      </trkpt>
      <trkpt lat="45.29388" lon="4.85886">
        <ele>180.78900146484</ele>
        <time>2009-08-27T12:46:53Z</time>
      </trkpt>
      <trkpt lat="45.29288" lon="4.85914">
        <ele>180.38600158691</ele>
        <time>2009-08-27T12:47:07Z</time>
      </trkpt>
      <trkpt lat="45.29192" lon="4.85888">
        <ele>181.72599792481</ele>
        <time>2009-08-27T12:47:20Z</time>
      </trkpt>
      <trkpt lat="45.2909" lon="4.85852">
        <ele>181.35600280762</ele>
        <time>2009-08-27T12:47:35Z</time>
      </trkpt>
      <trkpt lat="45.28974" lon="4.85801">
        <ele>184.57400512695</ele>
        <time>2009-08-27T12:47:53Z</time>
      </trkpt>
      <trkpt lat="45.28898" lon="4.8578">
        <ele>186.02299499512</ele>
        <time>2009-08-27T12:48:07Z</time>
      </trkpt>
      <trkpt lat="45.28868" lon="4.85775">
        <ele>185.48399353027</ele>
        <time>2009-08-27T12:48:16Z</time>
      </trkpt>
      <trkpt lat="45.28855" lon="4.85771">
        <ele>185.52000427246</ele>
        <time>2009-08-27T12:48:19Z</time>
      </trkpt>
      <trkpt lat="45.28835" lon="4.85768">
        <ele>185.83299255371</ele>
        <time>2009-08-27T12:48:23Z</time>
      </trkpt>
      <trkpt lat="45.28795" lon="4.85764">
        <ele>185.79699707031</ele>
        <time>2009-08-27T12:48:31Z</time>
      </trkpt>
      <trkpt lat="45.28773" lon="4.85765">
        <ele>186.09100341797</ele>
        <time>2009-08-27T12:48:35Z</time>
      </trkpt>
      <trkpt lat="45.28762" lon="4.85766">
        <ele>186.08599853516</ele>
        <time>2009-08-27T12:48:37Z</time>
      </trkpt>
      <trkpt lat="45.28751" lon="4.85768">
        <ele>186.09199523926</ele>
        <time>2009-08-27T12:48:39Z</time>
      </trkpt>
      <trkpt lat="45.28701" lon="4.85773">
        <ele>186.21600341797</ele>
        <time>2009-08-27T12:48:48Z</time>
      </trkpt>
      <trkpt lat="45.28689" lon="4.85772">
        <ele>186.14500427246</ele>
        <time>2009-08-27T12:48:50Z</time>
      </trkpt>
      <trkpt lat="45.28667" lon="4.85772">
        <ele>186.55999755859</ele>
        <time>2009-08-27T12:48:54Z</time>
      </trkpt>
      <trkpt lat="45.28585" lon="4.85776">
        <ele>186.6369934082</ele>
        <time>2009-08-27T12:49:08Z</time>
      </trkpt>
      <trkpt lat="45.28573" lon="4.85777">
        <ele>186.57699584961</ele>
        <time>2009-08-27T12:49:10Z</time>
      </trkpt>
      <trkpt lat="45.28556" lon="4.85776">
        <ele>186.50500488281</ele>
        <time>2009-08-27T12:49:13Z</time>
      </trkpt>
      <trkpt lat="45.28506" lon="4.85778">
        <ele>186.14999389648</ele>
        <time>2009-08-27T12:49:22Z</time>
      </trkpt>
      <trkpt lat="45.28415" lon="4.85781">
        <ele>186.10099792481</ele>
        <time>2009-08-27T12:49:38Z</time>
      </trkpt>
      <trkpt lat="45.28269" lon="4.85784">
        <ele>185.63999938965</ele>
        <time>2009-08-27T12:50:00Z</time>
      </trkpt>
      <trkpt lat="45.28109" lon="4.85791">
        <ele>185.52000427246</ele>
        <time>2009-08-27T12:50:23Z</time>
      </trkpt>
      <trkpt lat="45.27974" lon="4.85815">
        <ele>185.50500488281</ele>
        <time>2009-08-27T12:50:42Z</time>
      </trkpt>
      <trkpt lat="45.27832" lon="4.85853">
        <ele>184.63200378418</ele>
        <time>2009-08-27T12:51:02Z</time>
      </trkpt>
      <trkpt lat="45.27728" lon="4.85891">
        <ele>184.95500183106</ele>
        <time>2009-08-27T12:51:18Z</time>
      </trkpt>
      <trkpt lat="45.27599" lon="4.85921">
        <ele>185.44000244141</ele>
        <time>2009-08-27T12:51:37Z</time>
      </trkpt>
      <trkpt lat="45.27476" lon="4.85926">
        <ele>185.07600402832</ele>
        <time>2009-08-27T12:51:55Z</time>
      </trkpt>
      <trkpt lat="45.27362" lon="4.85932">
        <ele>183.47099304199</ele>
        <time>2009-08-27T12:52:11Z</time>
      </trkpt>
      <trkpt lat="45.27277" lon="4.85971">
        <ele>184.26800537109</ele>
        <time>2009-08-27T12:52:25Z</time>
      </trkpt>
      <trkpt lat="45.27136" lon="4.86044">
        <ele>182.78199768066</ele>
        <time>2009-08-27T12:52:46Z</time>
      </trkpt>
      <trkpt lat="45.27065" lon="4.86081">
        <ele>182.54600524902</ele>
        <time>2009-08-27T12:52:58Z</time>
      </trkpt>
      <trkpt lat="45.27008" lon="4.86112">
        <ele>182.27099609375</ele>
        <time>2009-08-27T12:53:09Z</time>
      </trkpt>
      <trkpt lat="45.27003" lon="4.86114">
        <ele>182.17500305176</ele>
        <time>2009-08-27T12:53:10Z</time>
      </trkpt>
      <trkpt lat="45.26974" lon="4.86124">
        <ele>182.20500183106</ele>
        <time>2009-08-27T12:53:18Z</time>
      </trkpt>
      <trkpt lat="45.26929" lon="4.86139">
        <ele>182.02499389648</ele>
        <time>2009-08-27T12:53:29Z</time>
      </trkpt>
      <trkpt lat="45.26911" lon="4.86147">
        <ele>181.85000610352</ele>
        <time>2009-08-27T12:53:33Z</time>
      </trkpt>
      <trkpt lat="45.26906" lon="4.86149">
        <ele>181.89900207519</ele>
        <time>2009-08-27T12:53:34Z</time>
      </trkpt>
      <trkpt lat="45.26817" lon="4.86179">
        <ele>181.58099365234</ele>
        <time>2009-08-27T12:53:51Z</time>
      </trkpt>
      <trkpt lat="45.26736" lon="4.86219">
        <ele>181.61099243164</ele>
        <time>2009-08-27T12:54:05Z</time>
      </trkpt>
      <trkpt lat="45.26669" lon="4.86262">
        <ele>182.47300720215</ele>
        <time>2009-08-27T12:54:17Z</time>
      </trkpt>
      <trkpt lat="45.26625" lon="4.86297">
        <ele>181.99600219727</ele>
        <time>2009-08-27T12:54:26Z</time>
      </trkpt>
      <trkpt lat="45.26561" lon="4.86364">
        <ele>184.05799865723</ele>
        <time>2009-08-27T12:54:41Z</time>
      </trkpt>
      <trkpt lat="45.26546" lon="4.86379">
        <ele>184.43800354004</ele>
        <time>2009-08-27T12:54:45Z</time>
      </trkpt>
      <trkpt lat="45.26516" lon="4.86406">
        <ele>185.27900695801</ele>
        <time>2009-08-27T12:54:53Z</time>
      </trkpt>
      <trkpt lat="45.26441" lon="4.86444">
        <ele>185.125</ele>
        <time>2009-08-27T12:55:07Z</time>
      </trkpt>
      <trkpt lat="45.26336" lon="4.86512">
        <ele>184.79200744629</ele>
        <time>2009-08-27T12:55:24Z</time>
      </trkpt>
      <trkpt lat="45.26229" lon="4.8659">
        <ele>187.53799438477</ele>
        <time>2009-08-27T12:55:43Z</time>
      </trkpt>
      <trkpt lat="45.26191" lon="4.86614">
        <ele>188.38000488281</ele>
        <time>2009-08-27T12:55:50Z</time>
      </trkpt>
      <trkpt lat="45.26141" lon="4.8659">
        <ele>188.86000061035</ele>
        <time>2009-08-27T12:55:59Z</time>
      </trkpt>
      <trkpt lat="45.26136" lon="4.86574">
        <ele>189.18099975586</ele>
        <time>2009-08-27T12:56:01Z</time>
      </trkpt>
      <trkpt lat="45.26107" lon="4.86475">
        <ele>190.25300598144</ele>
        <time>2009-08-27T12:56:12Z</time>
      </trkpt>
      <trkpt lat="45.26078" lon="4.86428">
        <ele>192.44700622559</ele>
        <time>2009-08-27T12:56:19Z</time>
      </trkpt>
      <trkpt lat="45.26013" lon="4.86336">
        <ele>191.71499633789</ele>
        <time>2009-08-27T12:56:34Z</time>
      </trkpt>
      <trkpt lat="45.25962" lon="4.862">
        <ele>187.67399597168</ele>
        <time>2009-08-27T12:56:48Z</time>
      </trkpt>
      <trkpt lat="45.25938" lon="4.86146">
        <ele>186.69999694824</ele>
        <time>2009-08-27T12:56:54Z</time>
      </trkpt>
      <trkpt lat="45.25931" lon="4.86128">
        <ele>185.86700439453</ele>
        <time>2009-08-27T12:56:56Z</time>
      </trkpt>
      <trkpt lat="45.25916" lon="4.86028">
        <ele>184.29600524902</ele>
        <time>2009-08-27T12:57:06Z</time>
      </trkpt>
      <trkpt lat="45.25913" lon="4.86008">
        <ele>183.62300109863</ele>
        <time>2009-08-27T12:57:08Z</time>
      </trkpt>
      <trkpt lat="45.2587" lon="4.85906">
        <ele>181.03100585938</ele>
        <time>2009-08-27T12:57:19Z</time>
      </trkpt>
      <trkpt lat="45.25851" lon="4.85871">
        <ele>180.12699890137</ele>
        <time>2009-08-27T12:57:23Z</time>
      </trkpt>
      <trkpt lat="45.25842" lon="4.85853">
        <ele>179.89999389648</ele>
        <time>2009-08-27T12:57:25Z</time>
      </trkpt>
      <trkpt lat="45.25772" lon="4.85751">
        <ele>179.43400573731</ele>
        <time>2009-08-27T12:57:39Z</time>
      </trkpt>
      <trkpt lat="45.25703" lon="4.85712">
        <ele>180.24800109863</ele>
        <time>2009-08-27T12:57:50Z</time>
      </trkpt>
      <trkpt lat="45.25653" lon="4.8567">
        <ele>180.86399841309</ele>
        <time>2009-08-27T12:57:59Z</time>
      </trkpt>
      <trkpt lat="45.25637" lon="4.8564">
        <ele>180.44700622559</ele>
        <time>2009-08-27T12:58:03Z</time>
      </trkpt>
      <trkpt lat="45.25621" lon="4.85593">
        <ele>178.94700622559</ele>
        <time>2009-08-27T12:58:08Z</time>
      </trkpt>
      <trkpt lat="45.25603" lon="4.85557">
        <ele>177.77400207519</ele>
        <time>2009-08-27T12:58:12Z</time>
      </trkpt>
      <trkpt lat="45.25525" lon="4.85464">
        <ele>176.30400085449</ele>
        <time>2009-08-27T12:58:25Z</time>
      </trkpt>
      <trkpt lat="45.25386" lon="4.85358">
        <ele>175.09399414062</ele>
        <time>2009-08-27T12:58:45Z</time>
      </trkpt>
      <trkpt lat="45.25307" lon="4.85267">
        <ele>173.67500305176</ele>
        <time>2009-08-27T12:58:59Z</time>
      </trkpt>
      <trkpt lat="45.25207" lon="4.85163">
        <ele>171.43899536133</ele>
        <time>2009-08-27T12:59:15Z</time>
      </trkpt>
      <trkpt lat="45.25107" lon="4.85079">
        <ele>170.83200073242</ele>
        <time>2009-08-27T12:59:30Z</time>
      </trkpt>
      <trkpt lat="45.2492" lon="4.84962">
        <ele>170.12399291992</ele>
        <time>2009-08-27T12:59:57Z</time>
      </trkpt>
      <trkpt lat="45.24778" lon="4.84906">
        <ele>170.44299316406</ele>
        <time>2009-08-27T13:00:17Z</time>
      </trkpt>
      <trkpt lat="45.24745" lon="4.84895">
        <ele>170.37600708008</ele>
        <time>2009-08-27T13:00:22Z</time>
      </trkpt>
      <trkpt lat="45.24619" lon="4.84828">
        <ele>170.28199768066</ele>
        <time>2009-08-27T13:00:41Z</time>
      </trkpt>
      <trkpt lat="45.24594" lon="4.84816">
        <ele>170.65899658203</ele>
        <time>2009-08-27T13:00:45Z</time>
      </trkpt>
      <trkpt lat="45.24577" lon="4.84811">
        <ele>170.83700561523</ele>
        <time>2009-08-27T13:00:48Z</time>
      </trkpt>
      <trkpt lat="45.24542" lon="4.84798">
        <ele>171.31500244141</ele>
        <time>2009-08-27T13:00:54Z</time>
      </trkpt>
      <trkpt lat="45.24531" lon="4.84792">
        <ele>171.26899719238</ele>
        <time>2009-08-27T13:00:56Z</time>
      </trkpt>
      <trkpt lat="45.24514" lon="4.84786">
        <ele>171.54800415039</ele>
        <time>2009-08-27T13:00:59Z</time>
      </trkpt>
      <trkpt lat="45.24488" lon="4.84776">
        <ele>171.80499267578</ele>
        <time>2009-08-27T13:01:04Z</time>
      </trkpt>
      <trkpt lat="45.24471" lon="4.84763">
        <ele>171.53500366211</ele>
        <time>2009-08-27T13:01:08Z</time>
      </trkpt>
      <trkpt lat="45.24449" lon="4.84769">
        <ele>172.3390045166</ele>
        <time>2009-08-27T13:01:15Z</time>
      </trkpt>
      <trkpt lat="45.24442" lon="4.84813">
        <ele>175.38600158691</ele>
        <time>2009-08-27T13:01:25Z</time>
      </trkpt>
      <trkpt lat="45.24442" lon="4.84844">
        <ele>177.76899719238</ele>
        <time>2009-08-27T13:01:33Z</time>
      </trkpt>
      <trkpt lat="45.24442" lon="4.8487">
        <ele>180.11399841309</ele>
        <time>2009-08-27T13:01:40Z</time>
      </trkpt>
      <trkpt lat="45.24448" lon="4.84907">
        <ele>182.80700683594</ele>
        <time>2009-08-27T13:01:50Z</time>
      </trkpt>
      <trkpt lat="45.24448" lon="4.8491">
        <ele>183.07000732422</ele>
        <time>2009-08-27T13:01:51Z</time>
      </trkpt>
      <trkpt lat="45.24459" lon="4.84958">
        <ele>185.24699401856</ele>
        <time>2009-08-27T13:02:03Z</time>
      </trkpt>
      <trkpt lat="45.24463" lon="4.85006">
        <ele>186.02200317383</ele>
        <time>2009-08-27T13:02:13Z</time>
      </trkpt>
      <trkpt lat="45.24445" lon="4.85021">
        <ele>184.90400695801</ele>
        <time>2009-08-27T13:02:18Z</time>
      </trkpt>
      <trkpt lat="45.24427" lon="4.85025">
        <ele>183.55499267578</ele>
        <time>2009-08-27T13:02:21Z</time>
      </trkpt>
      <trkpt lat="45.2437" lon="4.85045">
        <ele>181.62100219727</ele>
        <time>2009-08-27T13:02:29Z</time>
      </trkpt>
      <trkpt lat="45.24349" lon="4.85056">
        <ele>179.98100280762</ele>
        <time>2009-08-27T13:02:32Z</time>
      </trkpt>
      <trkpt lat="45.24296" lon="4.85125">
        <ele>174.02799987793</ele>
        <time>2009-08-27T13:02:40Z</time>
      </trkpt>
      <trkpt lat="45.24289" lon="4.85134">
        <ele>173.875</ele>
        <time>2009-08-27T13:02:41Z</time>
      </trkpt>
      <trkpt lat="45.2425" lon="4.85168">
        <ele>173.45300292969</ele>
        <time>2009-08-27T13:02:46Z</time>
      </trkpt>
      <trkpt lat="45.24211" lon="4.85198">
        <ele>173.57000732422</ele>
        <time>2009-08-27T13:02:52Z</time>
      </trkpt>
      <trkpt lat="45.24205" lon="4.85205">
        <ele>173.28799438477</ele>
        <time>2009-08-27T13:02:53Z</time>
      </trkpt>
      <trkpt lat="45.24151" lon="4.85293">
        <ele>173.99699401856</ele>
        <time>2009-08-27T13:03:05Z</time>
      </trkpt>
      <trkpt lat="45.24126" lon="4.85321">
        <ele>174.70399475098</ele>
        <time>2009-08-27T13:03:10Z</time>
      </trkpt>
      <trkpt lat="45.24075" lon="4.85341">
        <ele>176.19599914551</ele>
        <time>2009-08-27T13:03:19Z</time>
      </trkpt>
      <trkpt lat="45.24069" lon="4.85343">
        <ele>176.35400390625</ele>
        <time>2009-08-27T13:03:20Z</time>
      </trkpt>
      <trkpt lat="45.23995" lon="4.85386">
        <ele>180.26800537109</ele>
        <time>2009-08-27T13:03:37Z</time>
      </trkpt>
      <trkpt lat="45.23928" lon="4.85415">
        <ele>184.93099975586</ele>
        <time>2009-08-27T13:03:57Z</time>
      </trkpt>
      <trkpt lat="45.23905" lon="4.85423">
        <ele>186.82000732422</ele>
        <time>2009-08-27T13:04:04Z</time>
      </trkpt>
      <trkpt lat="45.23887" lon="4.8543">
        <ele>188.19799804688</ele>
        <time>2009-08-27T13:04:10Z</time>
      </trkpt>
      <trkpt lat="45.2385" lon="4.85425">
        <ele>190.13200378418</ele>
        <time>2009-08-27T13:04:23Z</time>
      </trkpt>
      <trkpt lat="45.23797" lon="4.8541">
        <ele>193.95599365234</ele>
        <time>2009-08-27T13:04:41Z</time>
      </trkpt>
      <trkpt lat="45.23757" lon="4.85401">
        <ele>197.63600158691</ele>
        <time>2009-08-27T13:04:58Z</time>
      </trkpt>
      <trkpt lat="45.23727" lon="4.85396">
        <ele>201.14500427246</ele>
        <time>2009-08-27T13:05:12Z</time>
      </trkpt>
      <trkpt lat="45.23696" lon="4.85393">
        <ele>204.67999267578</ele>
        <time>2009-08-27T13:05:27Z</time>
      </trkpt>
      <trkpt lat="45.23661" lon="4.85388">
        <ele>205.39199829102</ele>
        <time>2009-08-27T13:05:42Z</time>
      </trkpt>
      <trkpt lat="45.23656" lon="4.85387">
        <ele>208.16799926758</ele>
        <time>2009-08-27T13:05:44Z</time>
      </trkpt>
      <trkpt lat="45.23617" lon="4.85376">
        <ele>211.16799926758</ele>
        <time>2009-08-27T13:06:00Z</time>
      </trkpt>
      <trkpt lat="45.23569" lon="4.85366">
        <ele>213.07699584961</ele>
        <time>2009-08-27T13:06:15Z</time>
      </trkpt>
      <trkpt lat="45.23536" lon="4.85362">
        <ele>213.6369934082</ele>
        <time>2009-08-27T13:06:24Z</time>
      </trkpt>
      <trkpt lat="45.23471" lon="4.85375">
        <ele>214.47399902344</ele>
        <time>2009-08-27T13:06:39Z</time>
      </trkpt>
      <trkpt lat="45.2338" lon="4.85395">
        <ele>216.54800415039</ele>
        <time>2009-08-27T13:06:59Z</time>
      </trkpt>
      <trkpt lat="45.23274" lon="4.85417">
        <ele>219.34599304199</ele>
        <time>2009-08-27T13:07:22Z</time>
      </trkpt>
      <trkpt lat="45.23202" lon="4.85431">
        <ele>221.9049987793</ele>
        <time>2009-08-27T13:07:38Z</time>
      </trkpt>
      <trkpt lat="45.23133" lon="4.85442">
        <ele>225.98699951172</ele>
        <time>2009-08-27T13:07:56Z</time>
      </trkpt>
      <trkpt lat="45.23082" lon="4.85449">
        <ele>229.53500366211</ele>
        <time>2009-08-27T13:08:13Z</time>
      </trkpt>
      <trkpt lat="45.23027" lon="4.85458">
        <ele>233.44400024414</ele>
        <time>2009-08-27T13:08:31Z</time>
      </trkpt>
      <trkpt lat="45.22985" lon="4.85465">
        <ele>236.77299499512</ele>
        <time>2009-08-27T13:08:47Z</time>
      </trkpt>
      <trkpt lat="45.22952" lon="4.8547">
        <ele>240.01100158691</ele>
        <time>2009-08-27T13:09:02Z</time>
      </trkpt>
      <trkpt lat="45.22921" lon="4.85475">
        <ele>243.56399536133</ele>
        <time>2009-08-27T13:09:18Z</time>
      </trkpt>
      <trkpt lat="45.22885" lon="4.85469">
        <ele>246.31300354004</ele>
        <time>2009-08-27T13:09:33Z</time>
      </trkpt>
      <trkpt lat="45.2284" lon="4.85456">
        <ele>249.49099731445</ele>
        <time>2009-08-27T13:09:51Z</time>
      </trkpt>
      <trkpt lat="45.22806" lon="4.85449">
        <ele>252.26600646973</ele>
        <time>2009-08-27T13:10:05Z</time>
      </trkpt>
      <trkpt lat="45.22802" lon="4.8545">
        <ele>252.59100341797</ele>
        <time>2009-08-27T13:10:07Z</time>
      </trkpt>
      <trkpt lat="45.22797" lon="4.85458">
        <ele>253.42999267578</ele>
        <time>2009-08-27T13:10:11Z</time>
      </trkpt>
      <trkpt lat="45.22787" lon="4.85496">
        <ele>254.95100402832</ele>
        <time>2009-08-27T13:10:22Z</time>
      </trkpt>
      <trkpt lat="45.22769" lon="4.8554">
        <ele>256.7919921875</ele>
        <time>2009-08-27T13:10:33Z</time>
      </trkpt>
      <trkpt lat="45.22736" lon="4.85598">
        <ele>260.38101196289</ele>
        <time>2009-08-27T13:10:50Z</time>
      </trkpt>
      <trkpt lat="45.22696" lon="4.85663">
        <ele>264.69500732422</ele>
        <time>2009-08-27T13:11:09Z</time>
      </trkpt>
      <trkpt lat="45.22642" lon="4.85735">
        <ele>269.03500366211</ele>
        <time>2009-08-27T13:11:31Z</time>
      </trkpt>
      <trkpt lat="45.22584" lon="4.85809">
        <ele>273.77499389648</ele>
        <time>2009-08-27T13:11:54Z</time>
      </trkpt>
      <trkpt lat="45.2254" lon="4.85871">
        <ele>276.56298828125</ele>
        <time>2009-08-27T13:12:11Z</time>
      </trkpt>
      <trkpt lat="45.22502" lon="4.85947">
        <ele>279.89700317383</ele>
        <time>2009-08-27T13:12:30Z</time>
      </trkpt>
      <trkpt lat="45.22489" lon="4.86004">
        <ele>281.54800415039</ele>
        <time>2009-08-27T13:12:43Z</time>
      </trkpt>
      <trkpt lat="45.22453" lon="4.86079">
        <ele>284.87600708008</ele>
        <time>2009-08-27T13:13:01Z</time>
      </trkpt>
      <trkpt lat="45.22446" lon="4.86139">
        <ele>287.94299316406</ele>
        <time>2009-08-27T13:13:14Z</time>
      </trkpt>
      <trkpt lat="45.22445" lon="4.862">
        <ele>289.91598510742</ele>
        <time>2009-08-27T13:13:27Z</time>
      </trkpt>
      <trkpt lat="45.22438" lon="4.86264">
        <ele>291.26000976562</ele>
        <time>2009-08-27T13:13:39Z</time>
      </trkpt>
      <trkpt lat="45.22436" lon="4.86289">
        <ele>290.75299072266</ele>
        <time>2009-08-27T13:13:43Z</time>
      </trkpt>
      <trkpt lat="45.22436" lon="4.8635">
        <ele>291.67001342773</ele>
        <time>2009-08-27T13:13:53Z</time>
      </trkpt>
      <trkpt lat="45.22432" lon="4.86368">
        <ele>292.3450012207</ele>
        <time>2009-08-27T13:13:56Z</time>
      </trkpt>
      <trkpt lat="45.22394" lon="4.8644">
        <ele>295.78100585938</ele>
        <time>2009-08-27T13:14:13Z</time>
      </trkpt>
      <trkpt lat="45.22367" lon="4.86492">
        <ele>299.89401245117</ele>
        <time>2009-08-27T13:14:30Z</time>
      </trkpt>
      <trkpt lat="45.22348" lon="4.86523">
        <ele>302.6130065918</ele>
        <time>2009-08-27T13:14:42Z</time>
      </trkpt>
      <trkpt lat="45.22318" lon="4.86553">
        <ele>306.45901489258</ele>
        <time>2009-08-27T13:14:57Z</time>
      </trkpt>
      <trkpt lat="45.22293" lon="4.86569">
        <ele>308.9580078125</ele>
        <time>2009-08-27T13:15:08Z</time>
      </trkpt>
      <trkpt lat="45.22265" lon="4.86589">
        <ele>311.89199829102</ele>
        <time>2009-08-27T13:15:20Z</time>
      </trkpt>
      <trkpt lat="45.22232" lon="4.86608">
        <ele>314.41799926758</ele>
        <time>2009-08-27T13:15:32Z</time>
      </trkpt>
      <trkpt lat="45.22198" lon="4.86629">
        <ele>317.59600830078</ele>
        <time>2009-08-27T13:15:46Z</time>
      </trkpt>
      <trkpt lat="45.22163" lon="4.86668">
        <ele>322.27700805664</ele>
        <time>2009-08-27T13:16:03Z</time>
      </trkpt>
      <trkpt lat="45.22136" lon="4.867">
        <ele>326.65301513672</ele>
        <time>2009-08-27T13:16:19Z</time>
      </trkpt>
      <trkpt lat="45.22105" lon="4.86732">
        <ele>331.26000976562</ele>
        <time>2009-08-27T13:16:37Z</time>
      </trkpt>
      <trkpt lat="45.2207" lon="4.86768">
        <ele>336.17001342773</ele>
        <time>2009-08-27T13:16:56Z</time>
      </trkpt>
      <trkpt lat="45.2204" lon="4.86797">
        <ele>338.49700927734</ele>
        <time>2009-08-27T13:17:08Z</time>
      </trkpt>
      <trkpt lat="45.22003" lon="4.8682">
        <ele>339.84600830078</ele>
        <time>2009-08-27T13:17:21Z</time>
      </trkpt>
      <trkpt lat="45.21944" lon="4.86858">
        <ele>340.84399414062</ele>
        <time>2009-08-27T13:17:39Z</time>
      </trkpt>
      <trkpt lat="45.21902" lon="4.86886">
        <ele>341.28799438477</ele>
        <time>2009-08-27T13:17:50Z</time>
      </trkpt>
      <trkpt lat="45.21862" lon="4.8691">
        <ele>343.06100463867</ele>
        <time>2009-08-27T13:18:01Z</time>
      </trkpt>
      <trkpt lat="45.21828" lon="4.86926">
        <ele>345.8039855957</ele>
        <time>2009-08-27T13:18:14Z</time>
      </trkpt>
      <trkpt lat="45.2179" lon="4.86952">
        <ele>348.60000610352</ele>
        <time>2009-08-27T13:18:29Z</time>
      </trkpt>
      <trkpt lat="45.21736" lon="4.86995">
        <ele>351.46899414062</ele>
        <time>2009-08-27T13:18:49Z</time>
      </trkpt>
      <trkpt lat="45.21701" lon="4.87027">
        <ele>352.06100463867</ele>
        <time>2009-08-27T13:19:02Z</time>
      </trkpt>
      <trkpt lat="45.21669" lon="4.87071">
        <ele>350.58801269531</ele>
        <time>2009-08-27T13:19:14Z</time>
      </trkpt>
      <trkpt lat="45.21651" lon="4.87094">
        <ele>350.07299804688</ele>
        <time>2009-08-27T13:19:19Z</time>
      </trkpt>
      <trkpt lat="45.21619" lon="4.87125">
        <ele>349.47500610352</ele>
        <time>2009-08-27T13:19:27Z</time>
      </trkpt>
      <trkpt lat="45.21611" lon="4.8713">
        <ele>349.55499267578</ele>
        <time>2009-08-27T13:19:29Z</time>
      </trkpt>
      <trkpt lat="45.21537" lon="4.87191">
        <ele>349.20098876953</ele>
        <time>2009-08-27T13:19:45Z</time>
      </trkpt>
      <trkpt lat="45.21484" lon="4.87288">
        <ele>350.31298828125</ele>
        <time>2009-08-27T13:20:00Z</time>
      </trkpt>
      <trkpt lat="45.21432" lon="4.87394">
        <ele>351.46798706055</ele>
        <time>2009-08-27T13:20:16Z</time>
      </trkpt>
      <trkpt lat="45.21376" lon="4.8751">
        <ele>353.50500488281</ele>
        <time>2009-08-27T13:20:34Z</time>
      </trkpt>
      <trkpt lat="45.21341" lon="4.87601">
        <ele>355.01000976562</ele>
        <time>2009-08-27T13:20:48Z</time>
      </trkpt>
      <trkpt lat="45.2132" lon="4.87735">
        <ele>355.48400878906</ele>
        <time>2009-08-27T13:21:05Z</time>
      </trkpt>
      <trkpt lat="45.21276" lon="4.87839">
        <ele>355.53799438477</ele>
        <time>2009-08-27T13:21:19Z</time>
      </trkpt>
      <trkpt lat="45.21221" lon="4.87919">
        <ele>355.17199707031</ele>
        <time>2009-08-27T13:21:31Z</time>
      </trkpt>
      <trkpt lat="45.2121" lon="4.87941">
        <ele>355.09399414062</ele>
        <time>2009-08-27T13:21:34Z</time>
      </trkpt>
      <trkpt lat="45.21158" lon="4.88084">
        <ele>354.35101318359</ele>
        <time>2009-08-27T13:21:50Z</time>
      </trkpt>
      <trkpt lat="45.21098" lon="4.88195">
        <ele>352.46200561523</ele>
        <time>2009-08-27T13:22:03Z</time>
      </trkpt>
      <trkpt lat="45.21038" lon="4.88269">
        <ele>353.92098999023</ele>
        <time>2009-08-27T13:22:15Z</time>
      </trkpt>
      <trkpt lat="45.21018" lon="4.88304">
        <ele>353.30499267578</ele>
        <time>2009-08-27T13:22:21Z</time>
      </trkpt>
      <trkpt lat="45.21001" lon="4.88317">
        <ele>351.79998779297</ele>
        <time>2009-08-27T13:22:24Z</time>
      </trkpt>
      <trkpt lat="45.20987" lon="4.8832">
        <ele>351.46099853516</ele>
        <time>2009-08-27T13:22:26Z</time>
      </trkpt>
      <trkpt lat="45.20965" lon="4.88318">
        <ele>352.26000976562</ele>
        <time>2009-08-27T13:22:30Z</time>
      </trkpt>
      <trkpt lat="45.20946" lon="4.88315">
        <ele>353.11898803711</ele>
        <time>2009-08-27T13:22:34Z</time>
      </trkpt>
      <trkpt lat="45.20917" lon="4.88308">
        <ele>354.08898925781</ele>
        <time>2009-08-27T13:22:40Z</time>
      </trkpt>
      <trkpt lat="45.2089" lon="4.88297">
        <ele>354.77801513672</ele>
        <time>2009-08-27T13:22:46Z</time>
      </trkpt>
      <trkpt lat="45.20869" lon="4.88287">
        <ele>355.34298706055</ele>
        <time>2009-08-27T13:22:51Z</time>
      </trkpt>
      <trkpt lat="45.20834" lon="4.88264">
        <ele>355.72698974609</ele>
        <time>2009-08-27T13:22:59Z</time>
      </trkpt>
      <trkpt lat="45.2077" lon="4.88221">
        <ele>356.87799072266</ele>
        <time>2009-08-27T13:23:14Z</time>
      </trkpt>
      <trkpt lat="45.20755" lon="4.88213">
        <ele>356.37298583984</ele>
        <time>2009-08-27T13:23:17Z</time>
      </trkpt>
      <trkpt lat="45.20735" lon="4.88208">
        <ele>356.08099365234</ele>
        <time>2009-08-27T13:23:21Z</time>
      </trkpt>
      <trkpt lat="45.20724" lon="4.88204">
        <ele>356.10501098633</ele>
        <time>2009-08-27T13:23:23Z</time>
      </trkpt>
      <trkpt lat="45.2069" lon="4.88194">
        <ele>355.31799316406</ele>
        <time>2009-08-27T13:23:30Z</time>
      </trkpt>
      <trkpt lat="45.20675" lon="4.8819">
        <ele>354.22198486328</ele>
        <time>2009-08-27T13:23:33Z</time>
      </trkpt>
      <trkpt lat="45.20638" lon="4.88174">
        <ele>353.00201416016</ele>
        <time>2009-08-27T13:23:39Z</time>
      </trkpt>
      <trkpt lat="45.20599" lon="4.88149">
        <ele>351.19799804688</ele>
        <time>2009-08-27T13:23:45Z</time>
      </trkpt>
      <trkpt lat="45.20568" lon="4.88142">
        <ele>348.49798583984</ele>
        <time>2009-08-27T13:23:49Z</time>
      </trkpt>
      <trkpt lat="45.20552" lon="4.88142">
        <ele>347.02700805664</ele>
        <time>2009-08-27T13:23:51Z</time>
      </trkpt>
      <trkpt lat="45.20453" lon="4.88126">
        <ele>338.14999389648</ele>
        <time>2009-08-27T13:24:01Z</time>
      </trkpt>
      <trkpt lat="45.20424" lon="4.88122">
        <ele>335.10998535156</ele>
        <time>2009-08-27T13:24:04Z</time>
      </trkpt>
      <trkpt lat="45.20395" lon="4.88126">
        <ele>334.07000732422</ele>
        <time>2009-08-27T13:24:07Z</time>
      </trkpt>
      <trkpt lat="45.20303" lon="4.88181">
        <ele>323.98699951172</ele>
        <time>2009-08-27T13:24:18Z</time>
      </trkpt>
      <trkpt lat="45.20295" lon="4.88187">
        <ele>323.33599853516</ele>
        <time>2009-08-27T13:24:19Z</time>
      </trkpt>
      <trkpt lat="45.2022" lon="4.8825">
        <ele>312.29901123047</ele>
        <time>2009-08-27T13:24:29Z</time>
      </trkpt>
      <trkpt lat="45.20161" lon="4.88301">
        <ele>306.52099609375</ele>
        <time>2009-08-27T13:24:35Z</time>
      </trkpt>
      <trkpt lat="45.20079" lon="4.88364">
        <ele>299.04800415039</ele>
        <time>2009-08-27T13:24:44Z</time>
      </trkpt>
      <trkpt lat="45.2002" lon="4.88444">
        <ele>289.04098510742</ele>
        <time>2009-08-27T13:24:51Z</time>
      </trkpt>
      <trkpt lat="45.19957" lon="4.88522">
        <ele>280.87399291992</ele>
        <time>2009-08-27T13:24:57Z</time>
      </trkpt>
      <trkpt lat="45.19946" lon="4.88533">
        <ele>279.63198852539</ele>
        <time>2009-08-27T13:24:58Z</time>
      </trkpt>
      <trkpt lat="45.19889" lon="4.88632">
        <ele>273.96701049805</ele>
        <time>2009-08-27T13:25:05Z</time>
      </trkpt>
      <trkpt lat="45.19844" lon="4.88712">
        <ele>272.98098754883</ele>
        <time>2009-08-27T13:25:11Z</time>
      </trkpt>
      <trkpt lat="45.19802" lon="4.88751">
        <ele>273.30499267578</ele>
        <time>2009-08-27T13:25:16Z</time>
      </trkpt>
      <trkpt lat="45.19756" lon="4.88774">
        <ele>270.66000366211</ele>
        <time>2009-08-27T13:25:21Z</time>
      </trkpt>
      <trkpt lat="45.19699" lon="4.88773">
        <ele>264.5710144043</ele>
        <time>2009-08-27T13:25:26Z</time>
      </trkpt>
      <trkpt lat="45.19656" lon="4.88757">
        <ele>261.53298950195</ele>
        <time>2009-08-27T13:25:30Z</time>
      </trkpt>
      <trkpt lat="45.19624" lon="4.88717">
        <ele>256.51699829102</ele>
        <time>2009-08-27T13:25:34Z</time>
      </trkpt>
      <trkpt lat="45.19595" lon="4.88681">
        <ele>254.17300415039</ele>
        <time>2009-08-27T13:25:39Z</time>
      </trkpt>
      <trkpt lat="45.19583" lon="4.88673">
        <ele>252.42599487305</ele>
        <time>2009-08-27T13:25:41Z</time>
      </trkpt>
      <trkpt lat="45.19552" lon="4.88666">
        <ele>250.125</ele>
        <time>2009-08-27T13:25:45Z</time>
      </trkpt>
      <trkpt lat="45.19536" lon="4.88672">
        <ele>248.95899963379</ele>
        <time>2009-08-27T13:25:47Z</time>
      </trkpt>
      <trkpt lat="45.1947" lon="4.88699">
        <ele>243.67100524902</ele>
        <time>2009-08-27T13:25:54Z</time>
      </trkpt>
      <trkpt lat="45.19429" lon="4.88704">
        <ele>242.01699829102</ele>
        <time>2009-08-27T13:25:58Z</time>
      </trkpt>
      <trkpt lat="45.19387" lon="4.88706">
        <ele>239.9049987793</ele>
        <time>2009-08-27T13:26:02Z</time>
      </trkpt>
      <trkpt lat="45.19311" lon="4.88655">
        <ele>238.15899658203</ele>
        <time>2009-08-27T13:26:11Z</time>
      </trkpt>
      <trkpt lat="45.19303" lon="4.88633">
        <ele>238.10899353027</ele>
        <time>2009-08-27T13:26:13Z</time>
      </trkpt>
      <trkpt lat="45.19286" lon="4.88572">
        <ele>237.79699707031</ele>
        <time>2009-08-27T13:26:19Z</time>
      </trkpt>
      <trkpt lat="45.19264" lon="4.8856">
        <ele>237.70700073242</ele>
        <time>2009-08-27T13:26:23Z</time>
      </trkpt>
      <trkpt lat="45.19198" lon="4.88599">
        <ele>235.85600280762</ele>
        <time>2009-08-27T13:26:33Z</time>
      </trkpt>
      <trkpt lat="45.19158" lon="4.88612">
        <ele>234.92599487305</ele>
        <time>2009-08-27T13:26:39Z</time>
      </trkpt>
      <trkpt lat="45.19134" lon="4.88624">
        <ele>235.39199829102</ele>
        <time>2009-08-27T13:26:43Z</time>
      </trkpt>
      <trkpt lat="45.19097" lon="4.88653">
        <ele>234.6369934082</ele>
        <time>2009-08-27T13:26:50Z</time>
      </trkpt>
      <trkpt lat="45.1907" lon="4.88674">
        <ele>234.37899780273</ele>
        <time>2009-08-27T13:26:55Z</time>
      </trkpt>
      <trkpt lat="45.19021" lon="4.88667">
        <ele>233.52799987793</ele>
        <time>2009-08-27T13:27:03Z</time>
      </trkpt>
      <trkpt lat="45.18946" lon="4.88604">
        <ele>232.85299682617</ele>
        <time>2009-08-27T13:27:17Z</time>
      </trkpt>
      <trkpt lat="45.18904" lon="4.88584">
        <ele>232.69299316406</ele>
        <time>2009-08-27T13:27:24Z</time>
      </trkpt>
      <trkpt lat="45.18879" lon="4.88586">
        <ele>232.34300231934</ele>
        <time>2009-08-27T13:27:28Z</time>
      </trkpt>
      <trkpt lat="45.18859" lon="4.8859">
        <ele>232.32000732422</ele>
        <time>2009-08-27T13:27:31Z</time>
      </trkpt>
      <trkpt lat="45.18846" lon="4.88589">
        <ele>232.16000366211</ele>
        <time>2009-08-27T13:27:33Z</time>
      </trkpt>
      <trkpt lat="45.18784" lon="4.8858">
        <ele>228.90400695801</ele>
        <time>2009-08-27T13:27:42Z</time>
      </trkpt>
      <trkpt lat="45.18718" lon="4.88584">
        <ele>223.35000610352</ele>
        <time>2009-08-27T13:27:49Z</time>
      </trkpt>
      <trkpt lat="45.18636" lon="4.88564">
        <ele>215.98500061035</ele>
        <time>2009-08-27T13:27:57Z</time>
      </trkpt>
      <trkpt lat="45.18605" lon="4.88542">
        <ele>214.02900695801</ele>
        <time>2009-08-27T13:28:00Z</time>
      </trkpt>
      <trkpt lat="45.18586" lon="4.88523">
        <ele>213.27799987793</ele>
        <time>2009-08-27T13:28:02Z</time>
      </trkpt>
      <trkpt lat="45.18539" lon="4.88506">
        <ele>213.29200744629</ele>
        <time>2009-08-27T13:28:07Z</time>
      </trkpt>
      <trkpt lat="45.18516" lon="4.88474">
        <ele>211.80999755859</ele>
        <time>2009-08-27T13:28:13Z</time>
      </trkpt>
      <trkpt lat="45.18502" lon="4.88454">
        <ele>210.27600097656</ele>
        <time>2009-08-27T13:28:16Z</time>
      </trkpt>
      <trkpt lat="45.18461" lon="4.88421">
        <ele>208.17900085449</ele>
        <time>2009-08-27T13:28:22Z</time>
      </trkpt>
      <trkpt lat="45.18436" lon="4.88413">
        <ele>206.92700195312</ele>
        <time>2009-08-27T13:28:25Z</time>
      </trkpt>
      <trkpt lat="45.1841" lon="4.88414">
        <ele>205.10699462891</ele>
        <time>2009-08-27T13:28:28Z</time>
      </trkpt>
      <trkpt lat="45.18384" lon="4.88425">
        <ele>203.50199890137</ele>
        <time>2009-08-27T13:28:31Z</time>
      </trkpt>
      <trkpt lat="45.18371" lon="4.88444">
        <ele>202.05000305176</ele>
        <time>2009-08-27T13:28:33Z</time>
      </trkpt>
      <trkpt lat="45.1834" lon="4.88501">
        <ele>197.99099731445</ele>
        <time>2009-08-27T13:28:38Z</time>
      </trkpt>
      <trkpt lat="45.18319" lon="4.88523">
        <ele>197.24200439453</ele>
        <time>2009-08-27T13:28:45Z</time>
      </trkpt>
      <trkpt lat="45.18296" lon="4.88538">
        <ele>194.45199584961</ele>
        <time>2009-08-27T13:28:50Z</time>
      </trkpt>
      <trkpt lat="45.18266" lon="4.88544">
        <ele>192.08299255371</ele>
        <time>2009-08-27T13:28:54Z</time>
      </trkpt>
      <trkpt lat="45.18231" lon="4.88548">
        <ele>190.41299438477</ele>
        <time>2009-08-27T13:28:58Z</time>
      </trkpt>
      <trkpt lat="45.18194" lon="4.88578">
        <ele>188.36999511719</ele>
        <time>2009-08-27T13:29:03Z</time>
      </trkpt>
      <trkpt lat="45.18126" lon="4.88655">
        <ele>188.30099487305</ele>
        <time>2009-08-27T13:29:14Z</time>
      </trkpt>
      <trkpt lat="45.1808" lon="4.88699">
        <ele>190.05799865723</ele>
        <time>2009-08-27T13:29:22Z</time>
      </trkpt>
      <trkpt lat="45.18036" lon="4.88742">
        <ele>189.43699645996</ele>
        <time>2009-08-27T13:29:33Z</time>
      </trkpt>
      <trkpt lat="45.18002" lon="4.88772">
        <ele>188.0299987793</ele>
        <time>2009-08-27T13:29:39Z</time>
      </trkpt>
      <trkpt lat="45.17934" lon="4.88834">
        <ele>188.73399353027</ele>
        <time>2009-08-27T13:29:52Z</time>
      </trkpt>
      <trkpt lat="45.17846" lon="4.88912">
        <ele>188.70300292969</ele>
        <time>2009-08-27T13:30:07Z</time>
      </trkpt>
      <trkpt lat="45.17804" lon="4.88966">
        <ele>188.84199523926</ele>
        <time>2009-08-27T13:30:15Z</time>
      </trkpt>
      <trkpt lat="45.17787" lon="4.88984">
        <ele>188.87300109863</ele>
        <time>2009-08-27T13:30:18Z</time>
      </trkpt>
      <trkpt lat="45.17701" lon="4.8903">
        <ele>191.76300048828</ele>
        <time>2009-08-27T13:30:33Z</time>
      </trkpt>
      <trkpt lat="45.17682" lon="4.89038">
        <ele>193.03500366211</ele>
        <time>2009-08-27T13:30:37Z</time>
      </trkpt>
      <trkpt lat="45.17657" lon="4.89055">
        <ele>192.82499694824</ele>
        <time>2009-08-27T13:30:43Z</time>
      </trkpt>
      <trkpt lat="45.17636" lon="4.89079">
        <ele>191.35200500488</ele>
        <time>2009-08-27T13:30:48Z</time>
      </trkpt>
      <trkpt lat="45.17612" lon="4.89092">
        <ele>188.68800354004</ele>
        <time>2009-08-27T13:30:52Z</time>
      </trkpt>
      <trkpt lat="45.17597" lon="4.8909">
        <ele>188.49299621582</ele>
        <time>2009-08-27T13:30:54Z</time>
      </trkpt>
      <trkpt lat="45.17529" lon="4.89082">
        <ele>190.60200500488</ele>
        <time>2009-08-27T13:31:07Z</time>
      </trkpt>
      <trkpt lat="45.17473" lon="4.89069">
        <ele>193.87399291992</ele>
        <time>2009-08-27T13:31:22Z</time>
      </trkpt>
      <trkpt lat="45.17464" lon="4.89027">
        <ele>197.27099609375</ele>
        <time>2009-08-27T13:31:33Z</time>
      </trkpt>
      <trkpt lat="45.1746" lon="4.89012">
        <ele>197.98699951172</ele>
        <time>2009-08-27T13:31:38Z</time>
      </trkpt>
      <trkpt lat="45.17453" lon="4.89">
        <ele>198.52699279785</ele>
        <time>2009-08-27T13:31:43Z</time>
      </trkpt>
      <trkpt lat="45.1742" lon="4.89001">
        <ele>198.54699707031</ele>
        <time>2009-08-27T13:31:56Z</time>
      </trkpt>
      <trkpt lat="45.17405" lon="4.89005">
        <ele>198.14700317383</ele>
        <time>2009-08-27T13:32:00Z</time>
      </trkpt>
      <trkpt lat="45.17392" lon="4.89008">
        <ele>197.61099243164</ele>
        <time>2009-08-27T13:32:03Z</time>
      </trkpt>
      <trkpt lat="45.17376" lon="4.8901">
        <ele>196.32499694824</ele>
        <time>2009-08-27T13:32:06Z</time>
      </trkpt>
      <trkpt lat="45.17346" lon="4.89025">
        <ele>195.60299682617</ele>
        <time>2009-08-27T13:32:11Z</time>
      </trkpt>
      <trkpt lat="45.17323" lon="4.89043">
        <ele>195.08700561523</ele>
        <time>2009-08-27T13:32:15Z</time>
      </trkpt>
      <trkpt lat="45.17302" lon="4.8906">
        <ele>194.46499633789</ele>
        <time>2009-08-27T13:32:19Z</time>
      </trkpt>
      <trkpt lat="45.17274" lon="4.89066">
        <ele>195.17399597168</ele>
        <time>2009-08-27T13:32:24Z</time>
      </trkpt>
      <trkpt lat="45.1722" lon="4.89054">
        <ele>195.92799377441</ele>
        <time>2009-08-27T13:32:34Z</time>
      </trkpt>
      <trkpt lat="45.17139" lon="4.89051">
        <ele>196.58299255371</ele>
        <time>2009-08-27T13:32:48Z</time>
      </trkpt>
      <trkpt lat="45.17097" lon="4.89053">
        <ele>197.30400085449</ele>
        <time>2009-08-27T13:32:55Z</time>
      </trkpt>
      <trkpt lat="45.17023" lon="4.89058">
        <ele>199.77699279785</ele>
        <time>2009-08-27T13:33:09Z</time>
      </trkpt>
      <trkpt lat="45.16949" lon="4.89062">
        <ele>199.61500549316</ele>
        <time>2009-08-27T13:33:22Z</time>
      </trkpt>
      <trkpt lat="45.16856" lon="4.89056">
        <ele>201.54100036621</ele>
        <time>2009-08-27T13:33:39Z</time>
      </trkpt>
      <trkpt lat="45.16846" lon="4.89057">
        <ele>201.87800598144</ele>
        <time>2009-08-27T13:33:44Z</time>
      </trkpt>
      <trkpt lat="45.16817" lon="4.89106">
        <ele>201.53999328613</ele>
        <time>2009-08-27T13:33:54Z</time>
      </trkpt>
      <trkpt lat="45.16735" lon="4.89165">
        <ele>201.75799560547</ele>
        <time>2009-08-27T13:34:10Z</time>
      </trkpt>
      <trkpt lat="45.16622" lon="4.89205">
        <ele>200.70599365234</ele>
        <time>2009-08-27T13:34:28Z</time>
      </trkpt>
      <trkpt lat="45.16567" lon="4.89277">
        <ele>200.27000427246</ele>
        <time>2009-08-27T13:34:39Z</time>
      </trkpt>
      <trkpt lat="45.16534" lon="4.89405">
        <ele>201.58000183106</ele>
        <time>2009-08-27T13:34:53Z</time>
      </trkpt>
      <trkpt lat="45.16512" lon="4.89497">
        <ele>205.29899597168</ele>
        <time>2009-08-27T13:35:08Z</time>
      </trkpt>
      <trkpt lat="45.16495" lon="4.89569">
        <ele>208.15299987793</ele>
        <time>2009-08-27T13:35:22Z</time>
      </trkpt>
      <trkpt lat="45.16476" lon="4.89645">
        <ele>210.66799926758</ele>
        <time>2009-08-27T13:35:38Z</time>
      </trkpt>
      <trkpt lat="45.16453" lon="4.89744">
        <ele>213.46699523926</ele>
        <time>2009-08-27T13:35:56Z</time>
      </trkpt>
      <trkpt lat="45.16416" lon="4.89866">
        <ele>217.09599304199</ele>
        <time>2009-08-27T13:36:18Z</time>
      </trkpt>
      <trkpt lat="45.16368" lon="4.89989">
        <ele>218.22700500488</ele>
        <time>2009-08-27T13:36:39Z</time>
      </trkpt>
      <trkpt lat="45.16312" lon="4.90091">
        <ele>218.11599731445</ele>
        <time>2009-08-27T13:36:54Z</time>
      </trkpt>
      <trkpt lat="45.16254" lon="4.90183">
        <ele>219.70700073242</ele>
        <time>2009-08-27T13:37:09Z</time>
      </trkpt>
      <trkpt lat="45.16192" lon="4.90301">
        <ele>222.35800170898</ele>
        <time>2009-08-27T13:37:28Z</time>
      </trkpt>
      <trkpt lat="45.16126" lon="4.90441">
        <ele>226.19900512695</ele>
        <time>2009-08-27T13:37:50Z</time>
      </trkpt>
      <trkpt lat="45.16069" lon="4.90584">
        <ele>230.68800354004</ele>
        <time>2009-08-27T13:38:13Z</time>
      </trkpt>
      <trkpt lat="45.1604" lon="4.90677">
        <ele>231.91499328613</ele>
        <time>2009-08-27T13:38:26Z</time>
      </trkpt>
      <trkpt lat="45.15978" lon="4.90846">
        <ele>235.51699829102</ele>
        <time>2009-08-27T13:38:49Z</time>
      </trkpt>
      <trkpt lat="45.15916" lon="4.90964">
        <ele>237.74200439453</ele>
        <time>2009-08-27T13:39:09Z</time>
      </trkpt>
      <trkpt lat="45.15904" lon="4.90978">
        <ele>238.41600036621</ele>
        <time>2009-08-27T13:39:12Z</time>
      </trkpt>
      <trkpt lat="45.15808" lon="4.91047">
        <ele>241.78799438477</ele>
        <time>2009-08-27T13:39:33Z</time>
      </trkpt>
      <trkpt lat="45.15732" lon="4.911">
        <ele>244.7140045166</ele>
        <time>2009-08-27T13:39:51Z</time>
      </trkpt>
      <trkpt lat="45.15667" lon="4.91146">
        <ele>246.91999816894</ele>
        <time>2009-08-27T13:40:08Z</time>
      </trkpt>
      <trkpt lat="45.1559" lon="4.9121">
        <ele>250.85899353027</ele>
        <time>2009-08-27T13:40:29Z</time>
      </trkpt>
      <trkpt lat="45.15531" lon="4.91278">
        <ele>250.41600036621</ele>
        <time>2009-08-27T13:40:46Z</time>
      </trkpt>
      <trkpt lat="45.15503" lon="4.91313">
        <ele>248.68099975586</ele>
        <time>2009-08-27T13:40:53Z</time>
      </trkpt>
      <trkpt lat="45.15485" lon="4.91336">
        <ele>247.46899414062</ele>
        <time>2009-08-27T13:40:57Z</time>
      </trkpt>
      <trkpt lat="45.15461" lon="4.91369">
        <ele>245.78900146484</ele>
        <time>2009-08-27T13:41:02Z</time>
      </trkpt>
      <trkpt lat="45.15426" lon="4.91389">
        <ele>244.28999328613</ele>
        <time>2009-08-27T13:41:07Z</time>
      </trkpt>
      <trkpt lat="45.15411" lon="4.91414">
        <ele>243.1549987793</ele>
        <time>2009-08-27T13:41:10Z</time>
      </trkpt>
      <trkpt lat="45.15399" lon="4.91454">
        <ele>241.82499694824</ele>
        <time>2009-08-27T13:41:14Z</time>
      </trkpt>
      <trkpt lat="45.15278" lon="4.91627">
        <ele>237.78100585938</ele>
        <time>2009-08-27T13:41:34Z</time>
      </trkpt>
      <trkpt lat="45.15218" lon="4.91712">
        <ele>236.49000549316</ele>
        <time>2009-08-27T13:41:44Z</time>
      </trkpt>
      <trkpt lat="45.1516" lon="4.91797">
        <ele>236.94900512695</ele>
        <time>2009-08-27T13:41:55Z</time>
      </trkpt>
      <trkpt lat="45.15095" lon="4.91912">
        <ele>236.49299621582</ele>
        <time>2009-08-27T13:42:09Z</time>
      </trkpt>
      <trkpt lat="45.15012" lon="4.92093">
        <ele>234.68699645996</ele>
        <time>2009-08-27T13:42:28Z</time>
      </trkpt>
      <trkpt lat="45.14955" lon="4.9222">
        <ele>237.20399475098</ele>
        <time>2009-08-27T13:42:44Z</time>
      </trkpt>
      <trkpt lat="45.14916" lon="4.92304">
        <ele>239.19400024414</ele>
        <time>2009-08-27T13:42:56Z</time>
      </trkpt>
      <trkpt lat="45.14887" lon="4.92368">
        <ele>240.55400085449</ele>
        <time>2009-08-27T13:43:04Z</time>
      </trkpt>
      <trkpt lat="45.14853" lon="4.9245">
        <ele>242.60099792481</ele>
        <time>2009-08-27T13:43:14Z</time>
      </trkpt>
      <trkpt lat="45.14825" lon="4.92509">
        <ele>243.96299743652</ele>
        <time>2009-08-27T13:43:23Z</time>
      </trkpt>
      <trkpt lat="45.14783" lon="4.92619">
        <ele>245.62600708008</ele>
        <time>2009-08-27T13:43:39Z</time>
      </trkpt>
      <trkpt lat="45.14731" lon="4.9276">
        <ele>246.13999938965</ele>
        <time>2009-08-27T13:43:56Z</time>
      </trkpt>
      <trkpt lat="45.14653" lon="4.92948">
        <ele>247.77299499512</ele>
        <time>2009-08-27T13:44:20Z</time>
      </trkpt>
      <trkpt lat="45.14567" lon="4.93077">
        <ele>250.75700378418</ele>
        <time>2009-08-27T13:44:42Z</time>
      </trkpt>
      <trkpt lat="45.14474" lon="4.93215">
        <ele>252.81900024414</ele>
        <time>2009-08-27T13:45:04Z</time>
      </trkpt>
      <trkpt lat="45.14369" lon="4.93374">
        <ele>256.67599487305</ele>
        <time>2009-08-27T13:45:29Z</time>
      </trkpt>
      <trkpt lat="45.14301" lon="4.93487">
        <ele>259.53900146484</ele>
        <time>2009-08-27T13:45:48Z</time>
      </trkpt>
      <trkpt lat="45.14242" lon="4.9359">
        <ele>262.8450012207</ele>
        <time>2009-08-27T13:46:06Z</time>
      </trkpt>
      <trkpt lat="45.14174" lon="4.9371">
        <ele>267.10998535156</ele>
        <time>2009-08-27T13:46:28Z</time>
      </trkpt>
      <trkpt lat="45.14137" lon="4.93791">
        <ele>270.2080078125</ele>
        <time>2009-08-27T13:46:45Z</time>
      </trkpt>
      <trkpt lat="45.14105" lon="4.93867">
        <ele>273.28298950195</ele>
        <time>2009-08-27T13:47:02Z</time>
      </trkpt>
      <trkpt lat="45.14074" lon="4.93939">
        <ele>276.29501342773</ele>
        <time>2009-08-27T13:47:18Z</time>
      </trkpt>
      <trkpt lat="45.14037" lon="4.9403">
        <ele>279.90200805664</ele>
        <time>2009-08-27T13:47:38Z</time>
      </trkpt>
      <trkpt lat="45.13998" lon="4.94125">
        <ele>283.94900512695</ele>
        <time>2009-08-27T13:47:58Z</time>
      </trkpt>
      <trkpt lat="45.13959" lon="4.94202">
        <ele>286.26300048828</ele>
        <time>2009-08-27T13:48:15Z</time>
      </trkpt>
      <trkpt lat="45.13892" lon="4.94279">
        <ele>286.09698486328</ele>
        <time>2009-08-27T13:48:31Z</time>
      </trkpt>
      <trkpt lat="45.13887" lon="4.94284">
        <ele>286.07400512695</ele>
        <time>2009-08-27T13:48:32Z</time>
      </trkpt>
      <trkpt lat="45.1384" lon="4.94348">
        <ele>284.55899047852</ele>
        <time>2009-08-27T13:48:42Z</time>
      </trkpt>
      <trkpt lat="45.13786" lon="4.94487">
        <ele>283.94500732422</ele>
        <time>2009-08-27T13:48:56Z</time>
      </trkpt>
      <trkpt lat="45.1372" lon="4.9464">
        <ele>283.27499389648</ele>
        <time>2009-08-27T13:49:11Z</time>
      </trkpt>
      <trkpt lat="45.13664" lon="4.94716">
        <ele>286.04000854492</ele>
        <time>2009-08-27T13:49:24Z</time>
      </trkpt>
      <trkpt lat="45.13615" lon="4.94764">
        <ele>287.52301025391</ele>
        <time>2009-08-27T13:49:36Z</time>
      </trkpt>
      <trkpt lat="45.1361" lon="4.94767">
        <ele>287.65301513672</ele>
        <time>2009-08-27T13:49:37Z</time>
      </trkpt>
      <trkpt lat="45.13593" lon="4.94779">
        <ele>289.21899414062</ele>
        <time>2009-08-27T13:49:41Z</time>
      </trkpt>
      <trkpt lat="45.13557" lon="4.94797">
        <ele>288.47799682617</ele>
        <time>2009-08-27T13:49:49Z</time>
      </trkpt>
      <trkpt lat="45.13543" lon="4.94804">
        <ele>287.64898681641</ele>
        <time>2009-08-27T13:49:52Z</time>
      </trkpt>
      <trkpt lat="45.13521" lon="4.94814">
        <ele>286.88800048828</ele>
        <time>2009-08-27T13:49:56Z</time>
      </trkpt>
      <trkpt lat="45.13503" lon="4.94814">
        <ele>285.875</ele>
        <time>2009-08-27T13:49:59Z</time>
      </trkpt>
      <trkpt lat="45.13453" lon="4.94815">
        <ele>283.85101318359</ele>
        <time>2009-08-27T13:50:06Z</time>
      </trkpt>
      <trkpt lat="45.13446" lon="4.94816">
        <ele>283.70098876953</ele>
        <time>2009-08-27T13:50:07Z</time>
      </trkpt>
      <trkpt lat="45.13415" lon="4.94816">
        <ele>282.34799194336</ele>
        <time>2009-08-27T13:50:11Z</time>
      </trkpt>
      <trkpt lat="45.13407" lon="4.94816">
        <ele>281.7799987793</ele>
        <time>2009-08-27T13:50:12Z</time>
      </trkpt>
      <trkpt lat="45.13341" lon="4.94846">
        <ele>280.13299560547</ele>
        <time>2009-08-27T13:50:21Z</time>
      </trkpt>
      <trkpt lat="45.13334" lon="4.94851">
        <ele>279.71499633789</ele>
        <time>2009-08-27T13:50:22Z</time>
      </trkpt>
      <trkpt lat="45.133" lon="4.94931">
        <ele>275.76000976562</ele>
        <time>2009-08-27T13:50:30Z</time>
      </trkpt>
      <trkpt lat="45.13299" lon="4.94959">
        <ele>274.31900024414</ele>
        <time>2009-08-27T13:50:32Z</time>
      </trkpt>
      <trkpt lat="45.13256" lon="4.95057">
        <ele>270.4049987793</ele>
        <time>2009-08-27T13:50:40Z</time>
      </trkpt>
      <trkpt lat="45.13247" lon="4.95064">
        <ele>270.5530090332</ele>
        <time>2009-08-27T13:50:41Z</time>
      </trkpt>
      <trkpt lat="45.1321" lon="4.95089">
        <ele>268.71301269531</ele>
        <time>2009-08-27T13:50:45Z</time>
      </trkpt>
      <trkpt lat="45.132" lon="4.95095">
        <ele>268.18399047852</ele>
        <time>2009-08-27T13:50:46Z</time>
      </trkpt>
      <trkpt lat="45.13168" lon="4.95132">
        <ele>265.78399658203</ele>
        <time>2009-08-27T13:50:50Z</time>
      </trkpt>
      <trkpt lat="45.13156" lon="4.95176">
        <ele>264.31799316406</ele>
        <time>2009-08-27T13:50:53Z</time>
      </trkpt>
      <trkpt lat="45.13128" lon="4.95338">
        <ele>257.98098754883</ele>
        <time>2009-08-27T13:51:03Z</time>
      </trkpt>
      <trkpt lat="45.13078" lon="4.95412">
        <ele>259.45498657227</ele>
        <time>2009-08-27T13:51:10Z</time>
      </trkpt>
      <trkpt lat="45.13041" lon="4.95436">
        <ele>261.24899291992</ele>
        <time>2009-08-27T13:51:14Z</time>
      </trkpt>
      <trkpt lat="45.13023" lon="4.95444">
        <ele>262.50799560547</ele>
        <time>2009-08-27T13:51:16Z</time>
      </trkpt>
      <trkpt lat="45.13013" lon="4.95448">
        <ele>262.59100341797</ele>
        <time>2009-08-27T13:51:17Z</time>
      </trkpt>
      <trkpt lat="45.12996" lon="4.95456">
        <ele>263.40798950195</ele>
        <time>2009-08-27T13:51:19Z</time>
      </trkpt>
      <trkpt lat="45.12978" lon="4.95464">
        <ele>264.03100585938</ele>
        <time>2009-08-27T13:51:21Z</time>
      </trkpt>
      <trkpt lat="45.12959" lon="4.95471">
        <ele>264.99499511719</ele>
        <time>2009-08-27T13:51:23Z</time>
      </trkpt>
      <trkpt lat="45.12951" lon="4.95475">
        <ele>265.22100830078</ele>
        <time>2009-08-27T13:51:24Z</time>
      </trkpt>
      <trkpt lat="45.12941" lon="4.95478">
        <ele>265.61599731445</ele>
        <time>2009-08-27T13:51:25Z</time>
      </trkpt>
      <trkpt lat="45.12933" lon="4.95482">
        <ele>266.16198730469</ele>
        <time>2009-08-27T13:51:26Z</time>
      </trkpt>
      <trkpt lat="45.12893" lon="4.95499">
        <ele>267.97500610352</ele>
        <time>2009-08-27T13:51:31Z</time>
      </trkpt>
      <trkpt lat="45.12869" lon="4.9551">
        <ele>271.04800415039</ele>
        <time>2009-08-27T13:51:35Z</time>
      </trkpt>
      <trkpt lat="45.1281" lon="4.95557">
        <ele>272.58499145508</ele>
        <time>2009-08-27T13:51:51Z</time>
      </trkpt>
      <trkpt lat="45.12751" lon="4.95625">
        <ele>270.48901367188</ele>
        <time>2009-08-27T13:52:06Z</time>
      </trkpt>
      <trkpt lat="45.1272" lon="4.95661">
        <ele>268.01699829102</ele>
        <time>2009-08-27T13:52:12Z</time>
      </trkpt>
      <trkpt lat="45.12678" lon="4.95691">
        <ele>265.04699707031</ele>
        <time>2009-08-27T13:52:18Z</time>
      </trkpt>
      <trkpt lat="45.12634" lon="4.95707">
        <ele>263.15301513672</ele>
        <time>2009-08-27T13:52:23Z</time>
      </trkpt>
      <trkpt lat="45.12611" lon="4.95731">
        <ele>261.46301269531</ele>
        <time>2009-08-27T13:52:26Z</time>
      </trkpt>
      <trkpt lat="45.12605" lon="4.95742">
        <ele>260.45098876953</ele>
        <time>2009-08-27T13:52:27Z</time>
      </trkpt>
      <trkpt lat="45.12587" lon="4.95779">
        <ele>259.01901245117</ele>
        <time>2009-08-27T13:52:30Z</time>
      </trkpt>
      <trkpt lat="45.12569" lon="4.95818">
        <ele>257.11599731445</ele>
        <time>2009-08-27T13:52:33Z</time>
      </trkpt>
      <trkpt lat="45.12527" lon="4.95913">
        <ele>253.50500488281</ele>
        <time>2009-08-27T13:52:40Z</time>
      </trkpt>
      <trkpt lat="45.12503" lon="4.95966">
        <ele>251.42100524902</ele>
        <time>2009-08-27T13:52:44Z</time>
      </trkpt>
      <trkpt lat="45.1246" lon="4.9606">
        <ele>248.70599365234</ele>
        <time>2009-08-27T13:52:51Z</time>
      </trkpt>
      <trkpt lat="45.12454" lon="4.96073">
        <ele>248.51899719238</ele>
        <time>2009-08-27T13:52:52Z</time>
      </trkpt>
      <trkpt lat="45.12405" lon="4.96187">
        <ele>245.99000549316</ele>
        <time>2009-08-27T13:53:01Z</time>
      </trkpt>
      <trkpt lat="45.12399" lon="4.962">
        <ele>245.71099853516</ele>
        <time>2009-08-27T13:53:02Z</time>
      </trkpt>
      <trkpt lat="45.12361" lon="4.96259">
        <ele>241.28799438477</ele>
        <time>2009-08-27T13:53:07Z</time>
      </trkpt>
      <trkpt lat="45.12261" lon="4.96333">
        <ele>231.54100036621</ele>
        <time>2009-08-27T13:53:16Z</time>
      </trkpt>
      <trkpt lat="45.12197" lon="4.96365">
        <ele>227.00500488281</ele>
        <time>2009-08-27T13:53:21Z</time>
      </trkpt>
      <trkpt lat="45.12105" lon="4.96401">
        <ele>219.80299377441</ele>
        <time>2009-08-27T13:53:28Z</time>
      </trkpt>
      <trkpt lat="45.12045" lon="4.9645">
        <ele>215.28700256348</ele>
        <time>2009-08-27T13:53:33Z</time>
      </trkpt>
      <trkpt lat="45.11983" lon="4.96498">
        <ele>208.54299926758</ele>
        <time>2009-08-27T13:53:38Z</time>
      </trkpt>
      <trkpt lat="45.11941" lon="4.96512">
        <ele>207.17199707031</ele>
        <time>2009-08-27T13:53:41Z</time>
      </trkpt>
      <trkpt lat="45.11904" lon="4.96543">
        <ele>205.49000549316</ele>
        <time>2009-08-27T13:53:44Z</time>
      </trkpt>
      <trkpt lat="45.11873" lon="4.96606">
        <ele>204.25100708008</ele>
        <time>2009-08-27T13:53:48Z</time>
      </trkpt>
      <trkpt lat="45.11821" lon="4.96753">
        <ele>202.34300231934</ele>
        <time>2009-08-27T13:53:58Z</time>
      </trkpt>
      <trkpt lat="45.11791" lon="4.96799">
        <ele>202.15800476074</ele>
        <time>2009-08-27T13:54:02Z</time>
      </trkpt>
      <trkpt lat="45.11775" lon="4.96817">
        <ele>201.17399597168</ele>
        <time>2009-08-27T13:54:04Z</time>
      </trkpt>
      <trkpt lat="45.11721" lon="4.96804">
        <ele>201.32400512695</ele>
        <time>2009-08-27T13:54:10Z</time>
      </trkpt>
      <trkpt lat="45.11708" lon="4.96785">
        <ele>201.57299804688</ele>
        <time>2009-08-27T13:54:12Z</time>
      </trkpt>
      <trkpt lat="45.11626" lon="4.96607">
        <ele>200.57600402832</ele>
        <time>2009-08-27T13:54:28Z</time>
      </trkpt>
      <trkpt lat="45.11586" lon="4.96504">
        <ele>200.87699890137</ele>
        <time>2009-08-27T13:54:39Z</time>
      </trkpt>
      <trkpt lat="45.11581" lon="4.96473">
        <ele>201.35899353027</ele>
        <time>2009-08-27T13:54:43Z</time>
      </trkpt>
      <trkpt lat="45.11583" lon="4.96446">
        <ele>202.61799621582</ele>
        <time>2009-08-27T13:54:47Z</time>
      </trkpt>
      <trkpt lat="45.11583" lon="4.9644">
        <ele>202.62100219727</ele>
        <time>2009-08-27T13:54:48Z</time>
      </trkpt>
      <trkpt lat="45.11586" lon="4.96404">
        <ele>203.94099426269</ele>
        <time>2009-08-27T13:54:55Z</time>
      </trkpt>
      <trkpt lat="45.11583" lon="4.96414">
        <ele>204.05200195312</ele>
        <time>2009-08-27T13:55:02Z</time>
      </trkpt>
      <trkpt lat="45.11586" lon="4.96435">
        <ele>202.88299560547</ele>
        <time>2009-08-27T13:55:06Z</time>
      </trkpt>
      <trkpt lat="45.1158" lon="4.96444">
        <ele>202.69200134277</ele>
        <time>2009-08-27T13:55:11Z</time>
      </trkpt>
      <trkpt lat="45.11579" lon="4.96444">
        <ele>202.74299621582</ele>
        <time>2009-08-27T13:55:13Z</time>
      </trkpt>
      <trkpt lat="45.11569" lon="4.9645">
        <ele>202.35800170898</ele>
        <time>2009-08-27T13:55:44Z</time>
      </trkpt>
      <trkpt lat="45.11564" lon="4.9643">
        <ele>202.46000671387</ele>
        <time>2009-08-27T13:55:49Z</time>
      </trkpt>
      <trkpt lat="45.1157" lon="4.96426">
        <ele>203.34399414062</ele>
        <time>2009-08-27T13:55:55Z</time>
      </trkpt>
      <trkpt lat="45.11572" lon="4.96427">
        <ele>203.60499572754</ele>
        <time>2009-08-27T13:56:02Z</time>
      </trkpt>
      <trkpt lat="45.11572" lon="4.96426">
        <ele>203.55299377441</ele>
        <time>2009-08-27T13:56:05Z</time>
      </trkpt>
    </trkseg>
  </trk>
</gpx>